<?xml version="1.0" encoding="UTF-8" standalone="no" ?>
<gpx xmlns="http://www.topografix.com/GPX/1/1" xmlns:xsi="http://www.w3.org/2001/XMLSchema-instance" xsi:schemaLocation="http://www.topografix.com/GPX/1/1 http://www.topografix.com/GPX/1/1/gpx.xsd" version="1.1" creator="VisuGPX - https://www.visugpx.com">
  <metadata>
    <name>Le mas d'Azil </name>
    <desc><![CDATA[Circuit 1: La Croix            2h00-  6 km- 235 m dénivelé . A faire le matin . Panorama sur Le Mas d' Azil , le lac de Filheit et sur les Pyrénées.
Circuit 2: Les Dolmens    4h00-13 km- 380  m de dénivelé . A ne pas faire quand il fait chaud . Trop long avec peu d' intérêt . Pas de visuel quand les arbres sont feuillus. 
Circuit 3: 3 circuits en 1 : Corniches Sud et Nord et Chemin de pierres 
                                        3h00-  6 km- 370 m de dénivelé . 
Ne connaissant pas , j'ai fait les 2 corniches séparément en revenant à la route, mais on peut combiner les deux sans y revenir .
Très beau parcours à l'ombre pour la Corniche Nord . Cabanes en pierres sèches sur les 3 parcours avec panorama sur les Pyrénées . Constructions artistiques sur le Chemin de pierres .

]]></desc>
  </metadata>
  <trk>
    <name><![CDATA[Le Mas d' Azil croix]]></name>
    <trkseg>
      <trkpt lat="43.07973" lon="1.36107">
        <ele>292.86</ele>
        <time>2017-03-30T08:23:08Z</time>
      </trkpt>
      <trkpt lat="43.07972" lon="1.36108">
        <ele>292.86</ele>
        <time>2017-03-30T08:23:09Z</time>
      </trkpt>
      <trkpt lat="43.07966" lon="1.36126">
        <ele>292.38</ele>
        <time>2017-03-30T08:23:26Z</time>
      </trkpt>
      <trkpt lat="43.07958" lon="1.36122">
        <ele>292.38</ele>
        <time>2017-03-30T08:23:38Z</time>
      </trkpt>
      <trkpt lat="43.0795" lon="1.36113">
        <ele>292.38</ele>
        <time>2017-03-30T08:23:52Z</time>
      </trkpt>
      <trkpt lat="43.07943" lon="1.36109">
        <ele>293.34</ele>
        <time>2017-03-30T08:24:06Z</time>
      </trkpt>
      <trkpt lat="43.0793" lon="1.36096">
        <ele>293.34</ele>
        <time>2017-03-30T08:24:23Z</time>
      </trkpt>
      <trkpt lat="43.07925" lon="1.36093">
        <ele>293.34</ele>
        <time>2017-03-30T08:24:30Z</time>
      </trkpt>
      <trkpt lat="43.07915" lon="1.3608">
        <ele>293.34</ele>
        <time>2017-03-30T08:24:46Z</time>
      </trkpt>
      <trkpt lat="43.07909" lon="1.3607">
        <ele>293.34</ele>
        <time>2017-03-30T08:25:01Z</time>
      </trkpt>
      <trkpt lat="43.07906" lon="1.36069">
        <ele>293.34</ele>
        <time>2017-03-30T08:25:16Z</time>
      </trkpt>
      <trkpt lat="43.07901" lon="1.36062">
        <ele>293.82</ele>
        <time>2017-03-30T08:25:33Z</time>
      </trkpt>
      <trkpt lat="43.07894" lon="1.36056">
        <ele>293.82</ele>
        <time>2017-03-30T08:25:59Z</time>
      </trkpt>
      <trkpt lat="43.0789" lon="1.36053">
        <ele>293.82</ele>
        <time>2017-03-30T08:26:07Z</time>
      </trkpt>
      <trkpt lat="43.07882" lon="1.36038">
        <ele>293.82</ele>
        <time>2017-03-30T08:26:21Z</time>
      </trkpt>
      <trkpt lat="43.07878" lon="1.36035">
        <ele>293.82</ele>
        <time>2017-03-30T08:26:26Z</time>
      </trkpt>
      <trkpt lat="43.07873" lon="1.3603">
        <ele>293.82</ele>
        <time>2017-03-30T08:26:31Z</time>
      </trkpt>
      <trkpt lat="43.07856" lon="1.36019">
        <ele>293.82</ele>
        <time>2017-03-30T08:26:48Z</time>
      </trkpt>
      <trkpt lat="43.07852" lon="1.3602">
        <ele>293.82</ele>
        <time>2017-03-30T08:26:52Z</time>
      </trkpt>
      <trkpt lat="43.07837" lon="1.36016">
        <ele>293.82</ele>
        <time>2017-03-30T08:27:05Z</time>
      </trkpt>
      <trkpt lat="43.07829" lon="1.36014">
        <ele>293.82</ele>
        <time>2017-03-30T08:27:13Z</time>
      </trkpt>
      <trkpt lat="43.07826" lon="1.36012">
        <ele>293.82</ele>
        <time>2017-03-30T08:27:17Z</time>
      </trkpt>
      <trkpt lat="43.0782" lon="1.36012">
        <ele>293.82</ele>
        <time>2017-03-30T08:27:22Z</time>
      </trkpt>
      <trkpt lat="43.07803" lon="1.36012">
        <ele>293.82</ele>
        <time>2017-03-30T08:27:36Z</time>
      </trkpt>
      <trkpt lat="43.07794" lon="1.36011">
        <ele>294.3</ele>
        <time>2017-03-30T08:27:43Z</time>
      </trkpt>
      <trkpt lat="43.07787" lon="1.3601">
        <ele>294.3</ele>
        <time>2017-03-30T08:27:48Z</time>
      </trkpt>
      <trkpt lat="43.07781" lon="1.36007">
        <ele>294.78</ele>
        <time>2017-03-30T08:27:53Z</time>
      </trkpt>
      <trkpt lat="43.0776" lon="1.35994">
        <ele>295.74</ele>
        <time>2017-03-30T08:28:08Z</time>
      </trkpt>
      <trkpt lat="43.07752" lon="1.35992">
        <ele>296.22</ele>
        <time>2017-03-30T08:28:18Z</time>
      </trkpt>
      <trkpt lat="43.0775" lon="1.3599">
        <ele>296.22</ele>
        <time>2017-03-30T08:28:19Z</time>
      </trkpt>
      <trkpt lat="43.07749" lon="1.3599">
        <ele>296.22</ele>
        <time>2017-03-30T08:28:20Z</time>
      </trkpt>
      <trkpt lat="43.07746" lon="1.35989">
        <ele>296.22</ele>
        <time>2017-03-30T08:28:23Z</time>
      </trkpt>
      <trkpt lat="43.07744" lon="1.35989">
        <ele>296.22</ele>
        <time>2017-03-30T08:28:24Z</time>
      </trkpt>
      <trkpt lat="43.07743" lon="1.35988">
        <ele>296.22</ele>
        <time>2017-03-30T08:28:25Z</time>
      </trkpt>
      <trkpt lat="43.07734" lon="1.35989">
        <ele>297.18</ele>
        <time>2017-03-30T08:28:33Z</time>
      </trkpt>
      <trkpt lat="43.07732" lon="1.35989">
        <ele>297.18</ele>
        <time>2017-03-30T08:28:34Z</time>
      </trkpt>
      <trkpt lat="43.07727" lon="1.35989">
        <ele>297.18</ele>
        <time>2017-03-30T08:28:38Z</time>
      </trkpt>
      <trkpt lat="43.07726" lon="1.35988">
        <ele>297.67</ele>
        <time>2017-03-30T08:28:39Z</time>
      </trkpt>
      <trkpt lat="43.07724" lon="1.35988">
        <ele>297.67</ele>
        <time>2017-03-30T08:28:40Z</time>
      </trkpt>
      <trkpt lat="43.07712" lon="1.35985">
        <ele>298.63</ele>
        <time>2017-03-30T08:28:51Z</time>
      </trkpt>
      <trkpt lat="43.07703" lon="1.35985">
        <ele>299.11</ele>
        <time>2017-03-30T08:28:59Z</time>
      </trkpt>
      <trkpt lat="43.07701" lon="1.35985">
        <ele>299.11</ele>
        <time>2017-03-30T08:29:00Z</time>
      </trkpt>
      <trkpt lat="43.077" lon="1.35985">
        <ele>299.11</ele>
        <time>2017-03-30T08:29:01Z</time>
      </trkpt>
      <trkpt lat="43.07684" lon="1.35983">
        <ele>300.55</ele>
        <time>2017-03-30T08:29:14Z</time>
      </trkpt>
      <trkpt lat="43.07665" lon="1.35978">
        <ele>301.99</ele>
        <time>2017-03-30T08:29:30Z</time>
      </trkpt>
      <trkpt lat="43.07656" lon="1.35975">
        <ele>302.47</ele>
        <time>2017-03-30T08:29:39Z</time>
      </trkpt>
      <trkpt lat="43.07654" lon="1.35975">
        <ele>302.47</ele>
        <time>2017-03-30T08:29:40Z</time>
      </trkpt>
      <trkpt lat="43.07653" lon="1.35974">
        <ele>302.95</ele>
        <time>2017-03-30T08:29:41Z</time>
      </trkpt>
      <trkpt lat="43.07652" lon="1.35974">
        <ele>302.95</ele>
        <time>2017-03-30T08:29:42Z</time>
      </trkpt>
      <trkpt lat="43.0765" lon="1.35974">
        <ele>302.95</ele>
        <time>2017-03-30T08:29:43Z</time>
      </trkpt>
      <trkpt lat="43.07649" lon="1.35975">
        <ele>302.95</ele>
        <time>2017-03-30T08:29:44Z</time>
      </trkpt>
      <trkpt lat="43.07648" lon="1.35974">
        <ele>303.43</ele>
        <time>2017-03-30T08:29:45Z</time>
      </trkpt>
      <trkpt lat="43.07635" lon="1.3597">
        <ele>303.91</ele>
        <time>2017-03-30T08:29:59Z</time>
      </trkpt>
      <trkpt lat="43.07631" lon="1.35972">
        <ele>304.39</ele>
        <time>2017-03-30T08:30:06Z</time>
      </trkpt>
      <trkpt lat="43.0763" lon="1.35972">
        <ele>304.39</ele>
        <time>2017-03-30T08:30:07Z</time>
      </trkpt>
      <trkpt lat="43.07627" lon="1.35972">
        <ele>304.88</ele>
        <time>2017-03-30T08:30:10Z</time>
      </trkpt>
      <trkpt lat="43.07624" lon="1.35973">
        <ele>305.36</ele>
        <time>2017-03-30T08:30:40Z</time>
      </trkpt>
      <trkpt lat="43.07625" lon="1.35979">
        <ele>305.36</ele>
        <time>2017-03-30T08:30:44Z</time>
      </trkpt>
      <trkpt lat="43.07625" lon="1.35982">
        <ele>306.32</ele>
        <time>2017-03-30T08:30:47Z</time>
      </trkpt>
      <trkpt lat="43.07626" lon="1.35984">
        <ele>306.32</ele>
        <time>2017-03-30T08:30:48Z</time>
      </trkpt>
      <trkpt lat="43.07626" lon="1.35986">
        <ele>306.32</ele>
        <time>2017-03-30T08:30:49Z</time>
      </trkpt>
      <trkpt lat="43.07628" lon="1.35995">
        <ele>307.28</ele>
        <time>2017-03-30T08:30:55Z</time>
      </trkpt>
      <trkpt lat="43.07628" lon="1.35999">
        <ele>308.72</ele>
        <time>2017-03-30T08:30:59Z</time>
      </trkpt>
      <trkpt lat="43.07627" lon="1.36005">
        <ele>309.2</ele>
        <time>2017-03-30T08:31:02Z</time>
      </trkpt>
      <trkpt lat="43.07621" lon="1.36028">
        <ele>312.57</ele>
        <time>2017-03-30T08:31:18Z</time>
      </trkpt>
      <trkpt lat="43.07617" lon="1.36037">
        <ele>314.01</ele>
        <time>2017-03-30T08:31:26Z</time>
      </trkpt>
      <trkpt lat="43.07611" lon="1.36042">
        <ele>314.97</ele>
        <time>2017-03-30T08:31:33Z</time>
      </trkpt>
      <trkpt lat="43.0761" lon="1.36047">
        <ele>315.93</ele>
        <time>2017-03-30T08:31:38Z</time>
      </trkpt>
      <trkpt lat="43.07609" lon="1.36048">
        <ele>316.41</ele>
        <time>2017-03-30T08:31:39Z</time>
      </trkpt>
      <trkpt lat="43.07607" lon="1.36051">
        <ele>316.89</ele>
        <time>2017-03-30T08:31:49Z</time>
      </trkpt>
      <trkpt lat="43.07607" lon="1.36053">
        <ele>316.89</ele>
        <time>2017-03-30T08:31:50Z</time>
      </trkpt>
      <trkpt lat="43.07605" lon="1.36056">
        <ele>317.37</ele>
        <time>2017-03-30T08:31:53Z</time>
      </trkpt>
      <trkpt lat="43.07602" lon="1.36061">
        <ele>318.33</ele>
        <time>2017-03-30T08:31:57Z</time>
      </trkpt>
      <trkpt lat="43.07597" lon="1.3608">
        <ele>319.78</ele>
        <time>2017-03-30T08:32:10Z</time>
      </trkpt>
      <trkpt lat="43.07597" lon="1.36081">
        <ele>319.78</ele>
        <time>2017-03-30T08:32:11Z</time>
      </trkpt>
      <trkpt lat="43.07597" lon="1.36083">
        <ele>320.26</ele>
        <time>2017-03-30T08:32:12Z</time>
      </trkpt>
      <trkpt lat="43.07592" lon="1.36103">
        <ele>320.74</ele>
        <time>2017-03-30T08:32:24Z</time>
      </trkpt>
      <trkpt lat="43.07585" lon="1.36137">
        <ele>321.7</ele>
        <time>2017-03-30T08:32:43Z</time>
      </trkpt>
      <trkpt lat="43.07581" lon="1.36166">
        <ele>322.66</ele>
        <time>2017-03-30T08:33:01Z</time>
      </trkpt>
      <trkpt lat="43.07581" lon="1.36183">
        <ele>324.1</ele>
        <time>2017-03-30T08:33:12Z</time>
      </trkpt>
      <trkpt lat="43.07581" lon="1.36193">
        <ele>325.06</ele>
        <time>2017-03-30T08:33:18Z</time>
      </trkpt>
      <trkpt lat="43.0758" lon="1.36195">
        <ele>325.06</ele>
        <time>2017-03-30T08:33:19Z</time>
      </trkpt>
      <trkpt lat="43.0758" lon="1.36197">
        <ele>325.54</ele>
        <time>2017-03-30T08:33:20Z</time>
      </trkpt>
      <trkpt lat="43.0758" lon="1.36214">
        <ele>327.47</ele>
        <time>2017-03-30T08:33:31Z</time>
      </trkpt>
      <trkpt lat="43.0758" lon="1.36238">
        <ele>330.35</ele>
        <time>2017-03-30T08:33:47Z</time>
      </trkpt>
      <trkpt lat="43.07577" lon="1.36255">
        <ele>330.83</ele>
        <time>2017-03-30T08:34:00Z</time>
      </trkpt>
      <trkpt lat="43.07577" lon="1.36263">
        <ele>330.83</ele>
        <time>2017-03-30T08:34:06Z</time>
      </trkpt>
      <trkpt lat="43.07578" lon="1.36274">
        <ele>329.87</ele>
        <time>2017-03-30T08:34:15Z</time>
      </trkpt>
      <trkpt lat="43.07576" lon="1.36281">
        <ele>329.87</ele>
        <time>2017-03-30T08:34:19Z</time>
      </trkpt>
      <trkpt lat="43.07575" lon="1.36282">
        <ele>329.87</ele>
        <time>2017-03-30T08:34:20Z</time>
      </trkpt>
      <trkpt lat="43.07575" lon="1.36284">
        <ele>329.87</ele>
        <time>2017-03-30T08:34:21Z</time>
      </trkpt>
      <trkpt lat="43.07574" lon="1.36288">
        <ele>329.87</ele>
        <time>2017-03-30T08:34:24Z</time>
      </trkpt>
      <trkpt lat="43.07576" lon="1.36297">
        <ele>329.39</ele>
        <time>2017-03-30T08:34:37Z</time>
      </trkpt>
      <trkpt lat="43.07574" lon="1.36313">
        <ele>329.39</ele>
        <time>2017-03-30T08:34:50Z</time>
      </trkpt>
      <trkpt lat="43.07574" lon="1.36321">
        <ele>330.83</ele>
        <time>2017-03-30T08:34:55Z</time>
      </trkpt>
      <trkpt lat="43.07573" lon="1.36337">
        <ele>332.27</ele>
        <time>2017-03-30T08:35:07Z</time>
      </trkpt>
      <trkpt lat="43.07571" lon="1.3635">
        <ele>332.75</ele>
        <time>2017-03-30T08:35:15Z</time>
      </trkpt>
      <trkpt lat="43.0757" lon="1.36352">
        <ele>332.75</ele>
        <time>2017-03-30T08:35:16Z</time>
      </trkpt>
      <trkpt lat="43.07568" lon="1.36356">
        <ele>333.23</ele>
        <time>2017-03-30T08:35:20Z</time>
      </trkpt>
      <trkpt lat="43.07568" lon="1.36358">
        <ele>333.23</ele>
        <time>2017-03-30T08:35:21Z</time>
      </trkpt>
      <trkpt lat="43.07565" lon="1.36364">
        <ele>333.71</ele>
        <time>2017-03-30T08:35:32Z</time>
      </trkpt>
      <trkpt lat="43.07566" lon="1.36379">
        <ele>334.2</ele>
        <time>2017-03-30T08:35:41Z</time>
      </trkpt>
      <trkpt lat="43.07566" lon="1.36381">
        <ele>334.2</ele>
        <time>2017-03-30T08:35:42Z</time>
      </trkpt>
      <trkpt lat="43.07565" lon="1.36383">
        <ele>334.68</ele>
        <time>2017-03-30T08:35:43Z</time>
      </trkpt>
      <trkpt lat="43.07565" lon="1.36387">
        <ele>334.68</ele>
        <time>2017-03-30T08:35:46Z</time>
      </trkpt>
      <trkpt lat="43.07564" lon="1.36389">
        <ele>334.68</ele>
        <time>2017-03-30T08:35:47Z</time>
      </trkpt>
      <trkpt lat="43.07565" lon="1.36392">
        <ele>334.68</ele>
        <time>2017-03-30T08:35:54Z</time>
      </trkpt>
      <trkpt lat="43.07564" lon="1.36398">
        <ele>334.68</ele>
        <time>2017-03-30T08:35:58Z</time>
      </trkpt>
      <trkpt lat="43.07563" lon="1.36407">
        <ele>335.16</ele>
        <time>2017-03-30T08:36:03Z</time>
      </trkpt>
      <trkpt lat="43.07562" lon="1.36409">
        <ele>335.16</ele>
        <time>2017-03-30T08:36:04Z</time>
      </trkpt>
      <trkpt lat="43.07562" lon="1.36411">
        <ele>335.16</ele>
        <time>2017-03-30T08:36:05Z</time>
      </trkpt>
      <trkpt lat="43.07559" lon="1.36424">
        <ele>336.6</ele>
        <time>2017-03-30T08:36:14Z</time>
      </trkpt>
      <trkpt lat="43.07557" lon="1.36437">
        <ele>337.08</ele>
        <time>2017-03-30T08:36:23Z</time>
      </trkpt>
      <trkpt lat="43.07557" lon="1.36452">
        <ele>337.56</ele>
        <time>2017-03-30T08:36:32Z</time>
      </trkpt>
      <trkpt lat="43.07557" lon="1.36453">
        <ele>337.56</ele>
        <time>2017-03-30T08:36:33Z</time>
      </trkpt>
      <trkpt lat="43.07557" lon="1.36456">
        <ele>337.56</ele>
        <time>2017-03-30T08:36:34Z</time>
      </trkpt>
      <trkpt lat="43.07557" lon="1.36458">
        <ele>337.56</ele>
        <time>2017-03-30T08:36:35Z</time>
      </trkpt>
      <trkpt lat="43.07557" lon="1.3646">
        <ele>337.56</ele>
        <time>2017-03-30T08:36:37Z</time>
      </trkpt>
      <trkpt lat="43.07555" lon="1.36467">
        <ele>338.52</ele>
        <time>2017-03-30T08:36:42Z</time>
      </trkpt>
      <trkpt lat="43.07555" lon="1.36469">
        <ele>338.52</ele>
        <time>2017-03-30T08:36:43Z</time>
      </trkpt>
      <trkpt lat="43.07555" lon="1.36471">
        <ele>338.52</ele>
        <time>2017-03-30T08:36:44Z</time>
      </trkpt>
      <trkpt lat="43.07555" lon="1.36474">
        <ele>338.52</ele>
        <time>2017-03-30T08:36:47Z</time>
      </trkpt>
      <trkpt lat="43.07555" lon="1.36476">
        <ele>338.52</ele>
        <time>2017-03-30T08:36:48Z</time>
      </trkpt>
      <trkpt lat="43.07555" lon="1.36478">
        <ele>338.52</ele>
        <time>2017-03-30T08:36:49Z</time>
      </trkpt>
      <trkpt lat="43.07553" lon="1.36491">
        <ele>338.52</ele>
        <time>2017-03-30T08:36:58Z</time>
      </trkpt>
      <trkpt lat="43.07553" lon="1.36493">
        <ele>338.52</ele>
        <time>2017-03-30T08:36:59Z</time>
      </trkpt>
      <trkpt lat="43.0755" lon="1.36505">
        <ele>339</ele>
        <time>2017-03-30T08:37:07Z</time>
      </trkpt>
      <trkpt lat="43.07549" lon="1.36506">
        <ele>339</ele>
        <time>2017-03-30T08:37:08Z</time>
      </trkpt>
      <trkpt lat="43.07548" lon="1.36509">
        <ele>339</ele>
        <time>2017-03-30T08:37:09Z</time>
      </trkpt>
      <trkpt lat="43.07547" lon="1.36513">
        <ele>339</ele>
        <time>2017-03-30T08:37:12Z</time>
      </trkpt>
      <trkpt lat="43.07546" lon="1.36514">
        <ele>339</ele>
        <time>2017-03-30T08:37:13Z</time>
      </trkpt>
      <trkpt lat="43.07542" lon="1.36527">
        <ele>339.96</ele>
        <time>2017-03-30T08:37:22Z</time>
      </trkpt>
      <trkpt lat="43.07542" lon="1.36529">
        <ele>339.96</ele>
        <time>2017-03-30T08:37:23Z</time>
      </trkpt>
      <trkpt lat="43.07543" lon="1.36531">
        <ele>339.96</ele>
        <time>2017-03-30T08:37:24Z</time>
      </trkpt>
      <trkpt lat="43.07544" lon="1.36534">
        <ele>339.96</ele>
        <time>2017-03-30T08:37:27Z</time>
      </trkpt>
      <trkpt lat="43.07545" lon="1.36536">
        <ele>339.96</ele>
        <time>2017-03-30T08:37:28Z</time>
      </trkpt>
      <trkpt lat="43.07545" lon="1.36539">
        <ele>339.96</ele>
        <time>2017-03-30T08:37:29Z</time>
      </trkpt>
      <trkpt lat="43.07546" lon="1.36541">
        <ele>339.96</ele>
        <time>2017-03-30T08:37:30Z</time>
      </trkpt>
      <trkpt lat="43.07548" lon="1.36544">
        <ele>339.96</ele>
        <time>2017-03-30T08:37:33Z</time>
      </trkpt>
      <trkpt lat="43.07548" lon="1.36547">
        <ele>339.96</ele>
        <time>2017-03-30T08:37:34Z</time>
      </trkpt>
      <trkpt lat="43.07548" lon="1.36549">
        <ele>339.96</ele>
        <time>2017-03-30T08:37:35Z</time>
      </trkpt>
      <trkpt lat="43.07547" lon="1.36552">
        <ele>339.96</ele>
        <time>2017-03-30T08:37:38Z</time>
      </trkpt>
      <trkpt lat="43.07547" lon="1.36554">
        <ele>339.96</ele>
        <time>2017-03-30T08:37:39Z</time>
      </trkpt>
      <trkpt lat="43.07543" lon="1.36565">
        <ele>340.92</ele>
        <time>2017-03-30T08:37:47Z</time>
      </trkpt>
      <trkpt lat="43.07542" lon="1.36567">
        <ele>340.92</ele>
        <time>2017-03-30T08:37:48Z</time>
      </trkpt>
      <trkpt lat="43.07542" lon="1.36569">
        <ele>341.41</ele>
        <time>2017-03-30T08:37:49Z</time>
      </trkpt>
      <trkpt lat="43.0754" lon="1.36581">
        <ele>342.85</ele>
        <time>2017-03-30T08:37:58Z</time>
      </trkpt>
      <trkpt lat="43.0754" lon="1.36586">
        <ele>343.81</ele>
        <time>2017-03-30T08:38:02Z</time>
      </trkpt>
      <trkpt lat="43.0754" lon="1.36587">
        <ele>344.29</ele>
        <time>2017-03-30T08:38:03Z</time>
      </trkpt>
      <trkpt lat="43.07539" lon="1.36591">
        <ele>344.77</ele>
        <time>2017-03-30T08:38:06Z</time>
      </trkpt>
      <trkpt lat="43.07538" lon="1.36592">
        <ele>344.77</ele>
        <time>2017-03-30T08:38:07Z</time>
      </trkpt>
      <trkpt lat="43.07537" lon="1.36594">
        <ele>344.77</ele>
        <time>2017-03-30T08:38:08Z</time>
      </trkpt>
      <trkpt lat="43.07538" lon="1.36596">
        <ele>345.25</ele>
        <time>2017-03-30T08:38:09Z</time>
      </trkpt>
      <trkpt lat="43.07535" lon="1.36615">
        <ele>346.69</ele>
        <time>2017-03-30T08:38:21Z</time>
      </trkpt>
      <trkpt lat="43.07535" lon="1.36617">
        <ele>346.69</ele>
        <time>2017-03-30T08:38:22Z</time>
      </trkpt>
      <trkpt lat="43.07534" lon="1.36618">
        <ele>346.69</ele>
        <time>2017-03-30T08:38:23Z</time>
      </trkpt>
      <trkpt lat="43.07534" lon="1.3662">
        <ele>346.69</ele>
        <time>2017-03-30T08:38:25Z</time>
      </trkpt>
      <trkpt lat="43.07533" lon="1.36622">
        <ele>347.17</ele>
        <time>2017-03-30T08:38:26Z</time>
      </trkpt>
      <trkpt lat="43.07531" lon="1.3663">
        <ele>347.17</ele>
        <time>2017-03-30T08:38:32Z</time>
      </trkpt>
      <trkpt lat="43.0753" lon="1.36632">
        <ele>347.17</ele>
        <time>2017-03-30T08:38:33Z</time>
      </trkpt>
      <trkpt lat="43.07529" lon="1.36633">
        <ele>347.17</ele>
        <time>2017-03-30T08:38:34Z</time>
      </trkpt>
      <trkpt lat="43.07524" lon="1.36653">
        <ele>347.65</ele>
        <time>2017-03-30T08:38:47Z</time>
      </trkpt>
      <trkpt lat="43.07522" lon="1.36665">
        <ele>347.17</ele>
        <time>2017-03-30T08:38:56Z</time>
      </trkpt>
      <trkpt lat="43.07521" lon="1.36668">
        <ele>347.17</ele>
        <time>2017-03-30T08:38:57Z</time>
      </trkpt>
      <trkpt lat="43.07521" lon="1.36671">
        <ele>346.21</ele>
        <time>2017-03-30T08:38:58Z</time>
      </trkpt>
      <trkpt lat="43.07521" lon="1.36674">
        <ele>346.21</ele>
        <time>2017-03-30T08:38:59Z</time>
      </trkpt>
      <trkpt lat="43.07521" lon="1.36678">
        <ele>345.73</ele>
        <time>2017-03-30T08:39:03Z</time>
      </trkpt>
      <trkpt lat="43.0752" lon="1.36681">
        <ele>345.73</ele>
        <time>2017-03-30T08:39:04Z</time>
      </trkpt>
      <trkpt lat="43.0752" lon="1.36684">
        <ele>345.73</ele>
        <time>2017-03-30T08:39:05Z</time>
      </trkpt>
      <trkpt lat="43.07519" lon="1.36697">
        <ele>345.25</ele>
        <time>2017-03-30T08:39:13Z</time>
      </trkpt>
      <trkpt lat="43.07515" lon="1.36712">
        <ele>345.25</ele>
        <time>2017-03-30T08:39:22Z</time>
      </trkpt>
      <trkpt lat="43.07515" lon="1.36715">
        <ele>345.25</ele>
        <time>2017-03-30T08:39:25Z</time>
      </trkpt>
      <trkpt lat="43.07515" lon="1.36717">
        <ele>345.25</ele>
        <time>2017-03-30T08:39:26Z</time>
      </trkpt>
      <trkpt lat="43.07514" lon="1.3672">
        <ele>345.25</ele>
        <time>2017-03-30T08:39:27Z</time>
      </trkpt>
      <trkpt lat="43.07511" lon="1.36735">
        <ele>346.21</ele>
        <time>2017-03-30T08:39:36Z</time>
      </trkpt>
      <trkpt lat="43.07511" lon="1.36737">
        <ele>346.21</ele>
        <time>2017-03-30T08:39:37Z</time>
      </trkpt>
      <trkpt lat="43.07511" lon="1.3674">
        <ele>346.21</ele>
        <time>2017-03-30T08:39:38Z</time>
      </trkpt>
      <trkpt lat="43.0751" lon="1.36743">
        <ele>346.21</ele>
        <time>2017-03-30T08:39:41Z</time>
      </trkpt>
      <trkpt lat="43.0751" lon="1.36745">
        <ele>346.69</ele>
        <time>2017-03-30T08:39:42Z</time>
      </trkpt>
      <trkpt lat="43.0751" lon="1.36748">
        <ele>346.69</ele>
        <time>2017-03-30T08:39:43Z</time>
      </trkpt>
      <trkpt lat="43.0751" lon="1.36749">
        <ele>346.69</ele>
        <time>2017-03-30T08:39:44Z</time>
      </trkpt>
      <trkpt lat="43.07509" lon="1.36762">
        <ele>347.17</ele>
        <time>2017-03-30T08:39:52Z</time>
      </trkpt>
      <trkpt lat="43.07509" lon="1.36764">
        <ele>347.17</ele>
        <time>2017-03-30T08:39:53Z</time>
      </trkpt>
      <trkpt lat="43.07508" lon="1.36767">
        <ele>347.17</ele>
        <time>2017-03-30T08:39:54Z</time>
      </trkpt>
      <trkpt lat="43.07508" lon="1.36769">
        <ele>347.17</ele>
        <time>2017-03-30T08:39:55Z</time>
      </trkpt>
      <trkpt lat="43.07507" lon="1.36772">
        <ele>347.17</ele>
        <time>2017-03-30T08:39:58Z</time>
      </trkpt>
      <trkpt lat="43.07507" lon="1.36774">
        <ele>347.17</ele>
        <time>2017-03-30T08:39:59Z</time>
      </trkpt>
      <trkpt lat="43.07506" lon="1.36777">
        <ele>347.17</ele>
        <time>2017-03-30T08:40:00Z</time>
      </trkpt>
      <trkpt lat="43.07504" lon="1.36788">
        <ele>348.62</ele>
        <time>2017-03-30T08:40:08Z</time>
      </trkpt>
      <trkpt lat="43.07503" lon="1.3679">
        <ele>348.62</ele>
        <time>2017-03-30T08:40:09Z</time>
      </trkpt>
      <trkpt lat="43.07501" lon="1.36794">
        <ele>349.58</ele>
        <time>2017-03-30T08:40:13Z</time>
      </trkpt>
      <trkpt lat="43.075" lon="1.36796">
        <ele>349.58</ele>
        <time>2017-03-30T08:40:14Z</time>
      </trkpt>
      <trkpt lat="43.07499" lon="1.36797">
        <ele>349.58</ele>
        <time>2017-03-30T08:40:15Z</time>
      </trkpt>
      <trkpt lat="43.07494" lon="1.3681">
        <ele>351.02</ele>
        <time>2017-03-30T08:40:24Z</time>
      </trkpt>
      <trkpt lat="43.07491" lon="1.36815">
        <ele>351.5</ele>
        <time>2017-03-30T08:40:28Z</time>
      </trkpt>
      <trkpt lat="43.0749" lon="1.36816">
        <ele>351.5</ele>
        <time>2017-03-30T08:40:29Z</time>
      </trkpt>
      <trkpt lat="43.0749" lon="1.36818">
        <ele>351.5</ele>
        <time>2017-03-30T08:40:30Z</time>
      </trkpt>
      <trkpt lat="43.07484" lon="1.36831">
        <ele>352.94</ele>
        <time>2017-03-30T08:40:41Z</time>
      </trkpt>
      <trkpt lat="43.07481" lon="1.36844">
        <ele>354.38</ele>
        <time>2017-03-30T08:40:51Z</time>
      </trkpt>
      <trkpt lat="43.07476" lon="1.3686">
        <ele>355.83</ele>
        <time>2017-03-30T08:41:03Z</time>
      </trkpt>
      <trkpt lat="43.07472" lon="1.36871">
        <ele>356.79</ele>
        <time>2017-03-30T08:41:11Z</time>
      </trkpt>
      <trkpt lat="43.07467" lon="1.3688">
        <ele>357.75</ele>
        <time>2017-03-30T08:41:21Z</time>
      </trkpt>
      <trkpt lat="43.0746" lon="1.36896">
        <ele>359.19</ele>
        <time>2017-03-30T08:41:35Z</time>
      </trkpt>
      <trkpt lat="43.07455" lon="1.36915">
        <ele>360.63</ele>
        <time>2017-03-30T08:41:49Z</time>
      </trkpt>
      <trkpt lat="43.0745" lon="1.36929">
        <ele>361.11</ele>
        <time>2017-03-30T08:41:59Z</time>
      </trkpt>
      <trkpt lat="43.07449" lon="1.36945">
        <ele>362.55</ele>
        <time>2017-03-30T08:42:09Z</time>
      </trkpt>
      <trkpt lat="43.07449" lon="1.36947">
        <ele>362.55</ele>
        <time>2017-03-30T08:42:11Z</time>
      </trkpt>
      <trkpt lat="43.07449" lon="1.36951">
        <ele>363.04</ele>
        <time>2017-03-30T08:42:14Z</time>
      </trkpt>
      <trkpt lat="43.07447" lon="1.36968">
        <ele>363.52</ele>
        <time>2017-03-30T08:42:24Z</time>
      </trkpt>
      <trkpt lat="43.07444" lon="1.36974">
        <ele>364.48</ele>
        <time>2017-03-30T08:42:30Z</time>
      </trkpt>
      <trkpt lat="43.07441" lon="1.36979">
        <ele>364.96</ele>
        <time>2017-03-30T08:42:35Z</time>
      </trkpt>
      <trkpt lat="43.07437" lon="1.36984">
        <ele>365.44</ele>
        <time>2017-03-30T08:42:39Z</time>
      </trkpt>
      <trkpt lat="43.07433" lon="1.36995">
        <ele>365.92</ele>
        <time>2017-03-30T08:42:48Z</time>
      </trkpt>
      <trkpt lat="43.07426" lon="1.37009">
        <ele>368.32</ele>
        <time>2017-03-30T08:43:02Z</time>
      </trkpt>
      <trkpt lat="43.07422" lon="1.37018">
        <ele>369.28</ele>
        <time>2017-03-30T08:43:10Z</time>
      </trkpt>
      <trkpt lat="43.07419" lon="1.37024">
        <ele>369.76</ele>
        <time>2017-03-30T08:43:15Z</time>
      </trkpt>
      <trkpt lat="43.07413" lon="1.37045">
        <ele>373.13</ele>
        <time>2017-03-30T08:43:31Z</time>
      </trkpt>
      <trkpt lat="43.07411" lon="1.37051">
        <ele>374.09</ele>
        <time>2017-03-30T08:43:47Z</time>
      </trkpt>
      <trkpt lat="43.07411" lon="1.37058">
        <ele>374.09</ele>
        <time>2017-03-30T08:44:15Z</time>
      </trkpt>
      <trkpt lat="43.07412" lon="1.37071">
        <ele>374.57</ele>
        <time>2017-03-30T08:44:36Z</time>
      </trkpt>
      <trkpt lat="43.07412" lon="1.37076">
        <ele>374.57</ele>
        <time>2017-03-30T08:44:47Z</time>
      </trkpt>
      <trkpt lat="43.07412" lon="1.37083">
        <ele>374.57</ele>
        <time>2017-03-30T08:44:52Z</time>
      </trkpt>
      <trkpt lat="43.07413" lon="1.37096">
        <ele>373.13</ele>
        <time>2017-03-30T08:45:02Z</time>
      </trkpt>
      <trkpt lat="43.07412" lon="1.37099">
        <ele>373.13</ele>
        <time>2017-03-30T08:45:04Z</time>
      </trkpt>
      <trkpt lat="43.07413" lon="1.37119">
        <ele>372.65</ele>
        <time>2017-03-30T08:45:16Z</time>
      </trkpt>
      <trkpt lat="43.07413" lon="1.37121">
        <ele>372.65</ele>
        <time>2017-03-30T08:45:18Z</time>
      </trkpt>
      <trkpt lat="43.07413" lon="1.37129">
        <ele>372.65</ele>
        <time>2017-03-30T08:45:23Z</time>
      </trkpt>
      <trkpt lat="43.07415" lon="1.37141">
        <ele>372.17</ele>
        <time>2017-03-30T08:45:35Z</time>
      </trkpt>
      <trkpt lat="43.07415" lon="1.37146">
        <ele>373.61</ele>
        <time>2017-03-30T08:45:55Z</time>
      </trkpt>
      <trkpt lat="43.07415" lon="1.37151">
        <ele>373.61</ele>
        <time>2017-03-30T08:45:59Z</time>
      </trkpt>
      <trkpt lat="43.0742" lon="1.3717">
        <ele>374.57</ele>
        <time>2017-03-30T08:46:12Z</time>
      </trkpt>
      <trkpt lat="43.07427" lon="1.37186">
        <ele>375.05</ele>
        <time>2017-03-30T08:46:24Z</time>
      </trkpt>
      <trkpt lat="43.07427" lon="1.37188">
        <ele>375.05</ele>
        <time>2017-03-30T08:46:42Z</time>
      </trkpt>
      <trkpt lat="43.07428" lon="1.3719">
        <ele>375.05</ele>
        <time>2017-03-30T08:46:47Z</time>
      </trkpt>
      <trkpt lat="43.07428" lon="1.37194">
        <ele>375.05</ele>
        <time>2017-03-30T08:46:49Z</time>
      </trkpt>
      <trkpt lat="43.07428" lon="1.37196">
        <ele>375.05</ele>
        <time>2017-03-30T08:46:50Z</time>
      </trkpt>
      <trkpt lat="43.07429" lon="1.37199">
        <ele>374.57</ele>
        <time>2017-03-30T08:46:53Z</time>
      </trkpt>
      <trkpt lat="43.07429" lon="1.37201">
        <ele>375.05</ele>
        <time>2017-03-30T08:46:54Z</time>
      </trkpt>
      <trkpt lat="43.0743" lon="1.37204">
        <ele>374.57</ele>
        <time>2017-03-30T08:46:55Z</time>
      </trkpt>
      <trkpt lat="43.07431" lon="1.37206">
        <ele>374.57</ele>
        <time>2017-03-30T08:46:56Z</time>
      </trkpt>
      <trkpt lat="43.07432" lon="1.3721">
        <ele>374.57</ele>
        <time>2017-03-30T08:46:59Z</time>
      </trkpt>
      <trkpt lat="43.07432" lon="1.37212">
        <ele>374.57</ele>
        <time>2017-03-30T08:47:00Z</time>
      </trkpt>
      <trkpt lat="43.07433" lon="1.37222">
        <ele>373.61</ele>
        <time>2017-03-30T08:47:07Z</time>
      </trkpt>
      <trkpt lat="43.07436" lon="1.37239">
        <ele>372.65</ele>
        <time>2017-03-30T08:47:19Z</time>
      </trkpt>
      <trkpt lat="43.07438" lon="1.37247">
        <ele>372.17</ele>
        <time>2017-03-30T08:47:24Z</time>
      </trkpt>
      <trkpt lat="43.07438" lon="1.37249">
        <ele>372.17</ele>
        <time>2017-03-30T08:47:25Z</time>
      </trkpt>
      <trkpt lat="43.07434" lon="1.37254">
        <ele>372.17</ele>
        <time>2017-03-30T08:47:35Z</time>
      </trkpt>
      <trkpt lat="43.07433" lon="1.37256">
        <ele>372.17</ele>
        <time>2017-03-30T08:47:36Z</time>
      </trkpt>
      <trkpt lat="43.07432" lon="1.37259">
        <ele>371.69</ele>
        <time>2017-03-30T08:47:39Z</time>
      </trkpt>
      <trkpt lat="43.07431" lon="1.37261">
        <ele>371.69</ele>
        <time>2017-03-30T08:47:40Z</time>
      </trkpt>
      <trkpt lat="43.07429" lon="1.37263">
        <ele>371.69</ele>
        <time>2017-03-30T08:47:41Z</time>
      </trkpt>
      <trkpt lat="43.07428" lon="1.37264">
        <ele>371.69</ele>
        <time>2017-03-30T08:47:42Z</time>
      </trkpt>
      <trkpt lat="43.07427" lon="1.37267">
        <ele>371.69</ele>
        <time>2017-03-30T08:47:57Z</time>
      </trkpt>
      <trkpt lat="43.07423" lon="1.37267">
        <ele>371.69</ele>
        <time>2017-03-30T08:48:07Z</time>
      </trkpt>
      <trkpt lat="43.07404" lon="1.37259">
        <ele>374.09</ele>
        <time>2017-03-30T08:48:26Z</time>
      </trkpt>
      <trkpt lat="43.07394" lon="1.3726">
        <ele>375.05</ele>
        <time>2017-03-30T08:48:37Z</time>
      </trkpt>
      <trkpt lat="43.07392" lon="1.37261">
        <ele>375.53</ele>
        <time>2017-03-30T08:48:38Z</time>
      </trkpt>
      <trkpt lat="43.07391" lon="1.37262">
        <ele>375.53</ele>
        <time>2017-03-30T08:48:39Z</time>
      </trkpt>
      <trkpt lat="43.0739" lon="1.37262">
        <ele>375.53</ele>
        <time>2017-03-30T08:48:40Z</time>
      </trkpt>
      <trkpt lat="43.07379" lon="1.37271">
        <ele>376.01</ele>
        <time>2017-03-30T08:48:52Z</time>
      </trkpt>
      <trkpt lat="43.07378" lon="1.37272">
        <ele>376.01</ele>
        <time>2017-03-30T08:48:53Z</time>
      </trkpt>
      <trkpt lat="43.07377" lon="1.37273">
        <ele>376.01</ele>
        <time>2017-03-30T08:48:54Z</time>
      </trkpt>
      <trkpt lat="43.07376" lon="1.37274">
        <ele>376.97</ele>
        <time>2017-03-30T08:48:55Z</time>
      </trkpt>
      <trkpt lat="43.0737" lon="1.3728">
        <ele>377.45</ele>
        <time>2017-03-30T08:49:02Z</time>
      </trkpt>
      <trkpt lat="43.07368" lon="1.37281">
        <ele>377.94</ele>
        <time>2017-03-30T08:49:03Z</time>
      </trkpt>
      <trkpt lat="43.07367" lon="1.37282">
        <ele>377.94</ele>
        <time>2017-03-30T08:49:04Z</time>
      </trkpt>
      <trkpt lat="43.07358" lon="1.37289">
        <ele>379.86</ele>
        <time>2017-03-30T08:49:14Z</time>
      </trkpt>
      <trkpt lat="43.07349" lon="1.37296">
        <ele>381.78</ele>
        <time>2017-03-30T08:49:25Z</time>
      </trkpt>
      <trkpt lat="43.0734" lon="1.37304">
        <ele>383.22</ele>
        <time>2017-03-30T08:49:36Z</time>
      </trkpt>
      <trkpt lat="43.07339" lon="1.37306">
        <ele>384.18</ele>
        <time>2017-03-30T08:49:38Z</time>
      </trkpt>
      <trkpt lat="43.07337" lon="1.37307">
        <ele>384.18</ele>
        <time>2017-03-30T08:49:39Z</time>
      </trkpt>
      <trkpt lat="43.07336" lon="1.37308">
        <ele>384.66</ele>
        <time>2017-03-30T08:49:40Z</time>
      </trkpt>
      <trkpt lat="43.07327" lon="1.37316">
        <ele>386.11</ele>
        <time>2017-03-30T08:49:50Z</time>
      </trkpt>
      <trkpt lat="43.07325" lon="1.37318">
        <ele>386.59</ele>
        <time>2017-03-30T08:49:53Z</time>
      </trkpt>
      <trkpt lat="43.0732" lon="1.37321">
        <ele>387.07</ele>
        <time>2017-03-30T08:49:58Z</time>
      </trkpt>
      <trkpt lat="43.07319" lon="1.37323">
        <ele>387.07</ele>
        <time>2017-03-30T08:49:59Z</time>
      </trkpt>
      <trkpt lat="43.07314" lon="1.37331">
        <ele>388.51</ele>
        <time>2017-03-30T08:50:07Z</time>
      </trkpt>
      <trkpt lat="43.07313" lon="1.37332">
        <ele>388.51</ele>
        <time>2017-03-30T08:50:08Z</time>
      </trkpt>
      <trkpt lat="43.07305" lon="1.37343">
        <ele>389.95</ele>
        <time>2017-03-30T08:50:18Z</time>
      </trkpt>
      <trkpt lat="43.07303" lon="1.37345">
        <ele>389.95</ele>
        <time>2017-03-30T08:50:19Z</time>
      </trkpt>
      <trkpt lat="43.073" lon="1.37349">
        <ele>389.95</ele>
        <time>2017-03-30T08:50:23Z</time>
      </trkpt>
      <trkpt lat="43.07299" lon="1.3735">
        <ele>389.95</ele>
        <time>2017-03-30T08:50:24Z</time>
      </trkpt>
      <trkpt lat="43.07297" lon="1.37351">
        <ele>390.43</ele>
        <time>2017-03-30T08:50:25Z</time>
      </trkpt>
      <trkpt lat="43.07296" lon="1.37352">
        <ele>390.43</ele>
        <time>2017-03-30T08:50:26Z</time>
      </trkpt>
      <trkpt lat="43.07295" lon="1.37354">
        <ele>390.43</ele>
        <time>2017-03-30T08:50:29Z</time>
      </trkpt>
      <trkpt lat="43.07293" lon="1.37355">
        <ele>390.43</ele>
        <time>2017-03-30T08:50:30Z</time>
      </trkpt>
      <trkpt lat="43.07291" lon="1.37356">
        <ele>390.43</ele>
        <time>2017-03-30T08:50:31Z</time>
      </trkpt>
      <trkpt lat="43.0729" lon="1.37357">
        <ele>390.43</ele>
        <time>2017-03-30T08:50:32Z</time>
      </trkpt>
      <trkpt lat="43.07281" lon="1.37367">
        <ele>390.43</ele>
        <time>2017-03-30T08:50:42Z</time>
      </trkpt>
      <trkpt lat="43.07267" lon="1.37378">
        <ele>390.91</ele>
        <time>2017-03-30T08:50:53Z</time>
      </trkpt>
      <trkpt lat="43.07256" lon="1.37388">
        <ele>390.91</ele>
        <time>2017-03-30T08:51:03Z</time>
      </trkpt>
      <trkpt lat="43.07234" lon="1.37407">
        <ele>391.39</ele>
        <time>2017-03-30T08:51:23Z</time>
      </trkpt>
      <trkpt lat="43.07221" lon="1.3743">
        <ele>392.36</ele>
        <time>2017-03-30T08:51:40Z</time>
      </trkpt>
      <trkpt lat="43.07216" lon="1.37441">
        <ele>392.36</ele>
        <time>2017-03-30T08:51:48Z</time>
      </trkpt>
      <trkpt lat="43.07215" lon="1.37443">
        <ele>392.36</ele>
        <time>2017-03-30T08:51:49Z</time>
      </trkpt>
      <trkpt lat="43.07214" lon="1.37445">
        <ele>392.36</ele>
        <time>2017-03-30T08:51:50Z</time>
      </trkpt>
      <trkpt lat="43.07213" lon="1.37447">
        <ele>392.36</ele>
        <time>2017-03-30T08:51:51Z</time>
      </trkpt>
      <trkpt lat="43.0721" lon="1.37462">
        <ele>392.36</ele>
        <time>2017-03-30T08:52:00Z</time>
      </trkpt>
      <trkpt lat="43.0721" lon="1.37469">
        <ele>393.8</ele>
        <time>2017-03-30T08:52:49Z</time>
      </trkpt>
      <trkpt lat="43.07208" lon="1.37473">
        <ele>393.8</ele>
        <time>2017-03-30T08:53:42Z</time>
      </trkpt>
      <trkpt lat="43.07207" lon="1.37476">
        <ele>393.8</ele>
        <time>2017-03-30T08:53:45Z</time>
      </trkpt>
      <trkpt lat="43.07205" lon="1.37478">
        <ele>393.8</ele>
        <time>2017-03-30T08:53:46Z</time>
      </trkpt>
      <trkpt lat="43.072" lon="1.37491">
        <ele>393.8</ele>
        <time>2017-03-30T08:53:54Z</time>
      </trkpt>
      <trkpt lat="43.07199" lon="1.37494">
        <ele>394.28</ele>
        <time>2017-03-30T08:53:57Z</time>
      </trkpt>
      <trkpt lat="43.07198" lon="1.37496">
        <ele>394.76</ele>
        <time>2017-03-30T08:53:58Z</time>
      </trkpt>
      <trkpt lat="43.07198" lon="1.37498">
        <ele>394.76</ele>
        <time>2017-03-30T08:53:59Z</time>
      </trkpt>
      <trkpt lat="43.07198" lon="1.375">
        <ele>394.76</ele>
        <time>2017-03-30T08:54:00Z</time>
      </trkpt>
      <trkpt lat="43.07194" lon="1.3751">
        <ele>395.24</ele>
        <time>2017-03-30T08:54:08Z</time>
      </trkpt>
      <trkpt lat="43.07194" lon="1.37512">
        <ele>395.24</ele>
        <time>2017-03-30T08:54:09Z</time>
      </trkpt>
      <trkpt lat="43.07193" lon="1.37513">
        <ele>396.2</ele>
        <time>2017-03-30T08:54:10Z</time>
      </trkpt>
      <trkpt lat="43.07192" lon="1.37515">
        <ele>396.2</ele>
        <time>2017-03-30T08:54:11Z</time>
      </trkpt>
      <trkpt lat="43.07191" lon="1.37517">
        <ele>396.2</ele>
        <time>2017-03-30T08:54:12Z</time>
      </trkpt>
      <trkpt lat="43.07191" lon="1.37519">
        <ele>396.68</ele>
        <time>2017-03-30T08:54:13Z</time>
      </trkpt>
      <trkpt lat="43.0719" lon="1.37521">
        <ele>396.68</ele>
        <time>2017-03-30T08:54:14Z</time>
      </trkpt>
      <trkpt lat="43.07191" lon="1.37523">
        <ele>396.68</ele>
        <time>2017-03-30T08:54:15Z</time>
      </trkpt>
      <trkpt lat="43.0719" lon="1.37524">
        <ele>396.68</ele>
        <time>2017-03-30T08:54:16Z</time>
      </trkpt>
      <trkpt lat="43.07189" lon="1.37526">
        <ele>396.68</ele>
        <time>2017-03-30T08:54:17Z</time>
      </trkpt>
      <trkpt lat="43.07188" lon="1.37528">
        <ele>396.68</ele>
        <time>2017-03-30T08:54:18Z</time>
      </trkpt>
      <trkpt lat="43.07182" lon="1.37541">
        <ele>397.16</ele>
        <time>2017-03-30T08:54:28Z</time>
      </trkpt>
      <trkpt lat="43.07172" lon="1.37556">
        <ele>397.16</ele>
        <time>2017-03-30T08:54:39Z</time>
      </trkpt>
      <trkpt lat="43.07165" lon="1.37567">
        <ele>397.64</ele>
        <time>2017-03-30T08:54:48Z</time>
      </trkpt>
      <trkpt lat="43.07159" lon="1.37576">
        <ele>397.64</ele>
        <time>2017-03-30T08:54:55Z</time>
      </trkpt>
      <trkpt lat="43.07158" lon="1.37578">
        <ele>397.64</ele>
        <time>2017-03-30T08:54:56Z</time>
      </trkpt>
      <trkpt lat="43.07157" lon="1.3758">
        <ele>397.64</ele>
        <time>2017-03-30T08:54:57Z</time>
      </trkpt>
      <trkpt lat="43.07156" lon="1.37582">
        <ele>398.12</ele>
        <time>2017-03-30T08:54:58Z</time>
      </trkpt>
      <trkpt lat="43.07155" lon="1.37583">
        <ele>398.12</ele>
        <time>2017-03-30T08:54:59Z</time>
      </trkpt>
      <trkpt lat="43.07148" lon="1.37596">
        <ele>398.6</ele>
        <time>2017-03-30T08:55:34Z</time>
      </trkpt>
      <trkpt lat="43.07142" lon="1.37609">
        <ele>398.6</ele>
        <time>2017-03-30T08:55:43Z</time>
      </trkpt>
      <trkpt lat="43.07141" lon="1.37611">
        <ele>398.6</ele>
        <time>2017-03-30T08:55:44Z</time>
      </trkpt>
      <trkpt lat="43.0714" lon="1.37613">
        <ele>398.6</ele>
        <time>2017-03-30T08:55:45Z</time>
      </trkpt>
      <trkpt lat="43.07139" lon="1.37615">
        <ele>398.6</ele>
        <time>2017-03-30T08:55:46Z</time>
      </trkpt>
      <trkpt lat="43.07138" lon="1.37617">
        <ele>398.6</ele>
        <time>2017-03-30T08:55:47Z</time>
      </trkpt>
      <trkpt lat="43.0713" lon="1.3763">
        <ele>398.6</ele>
        <time>2017-03-30T08:55:57Z</time>
      </trkpt>
      <trkpt lat="43.07119" lon="1.37642">
        <ele>398.12</ele>
        <time>2017-03-30T08:56:08Z</time>
      </trkpt>
      <trkpt lat="43.07115" lon="1.37646">
        <ele>398.6</ele>
        <time>2017-03-30T08:56:13Z</time>
      </trkpt>
      <trkpt lat="43.07113" lon="1.37647">
        <ele>398.6</ele>
        <time>2017-03-30T08:56:14Z</time>
      </trkpt>
      <trkpt lat="43.07107" lon="1.3765">
        <ele>398.6</ele>
        <time>2017-03-30T08:56:20Z</time>
      </trkpt>
      <trkpt lat="43.07105" lon="1.37651">
        <ele>398.6</ele>
        <time>2017-03-30T08:56:21Z</time>
      </trkpt>
      <trkpt lat="43.07103" lon="1.37652">
        <ele>398.6</ele>
        <time>2017-03-30T08:56:22Z</time>
      </trkpt>
      <trkpt lat="43.07089" lon="1.37657">
        <ele>400.05</ele>
        <time>2017-03-30T08:56:34Z</time>
      </trkpt>
      <trkpt lat="43.07077" lon="1.37662">
        <ele>401.49</ele>
        <time>2017-03-30T08:57:12Z</time>
      </trkpt>
      <trkpt lat="43.07064" lon="1.3767">
        <ele>402.45</ele>
        <time>2017-03-30T08:57:23Z</time>
      </trkpt>
      <trkpt lat="43.07061" lon="1.37672">
        <ele>401.97</ele>
        <time>2017-03-30T08:57:27Z</time>
      </trkpt>
      <trkpt lat="43.07059" lon="1.37673">
        <ele>402.45</ele>
        <time>2017-03-30T08:57:28Z</time>
      </trkpt>
      <trkpt lat="43.07053" lon="1.37677">
        <ele>402.45</ele>
        <time>2017-03-30T08:57:34Z</time>
      </trkpt>
      <trkpt lat="43.07052" lon="1.37678">
        <ele>402.45</ele>
        <time>2017-03-30T08:57:35Z</time>
      </trkpt>
      <trkpt lat="43.0705" lon="1.37679">
        <ele>402.45</ele>
        <time>2017-03-30T08:57:36Z</time>
      </trkpt>
      <trkpt lat="43.07043" lon="1.37682">
        <ele>402.45</ele>
        <time>2017-03-30T08:57:42Z</time>
      </trkpt>
      <trkpt lat="43.0704" lon="1.37683">
        <ele>402.45</ele>
        <time>2017-03-30T08:57:43Z</time>
      </trkpt>
      <trkpt lat="43.07039" lon="1.37684">
        <ele>402.45</ele>
        <time>2017-03-30T08:57:44Z</time>
      </trkpt>
      <trkpt lat="43.07037" lon="1.37684">
        <ele>402.45</ele>
        <time>2017-03-30T08:57:45Z</time>
      </trkpt>
      <trkpt lat="43.07036" lon="1.37685">
        <ele>402.45</ele>
        <time>2017-03-30T08:57:46Z</time>
      </trkpt>
      <trkpt lat="43.07015" lon="1.37695">
        <ele>401.49</ele>
        <time>2017-03-30T08:58:03Z</time>
      </trkpt>
      <trkpt lat="43.07004" lon="1.377">
        <ele>401.49</ele>
        <time>2017-03-30T08:58:12Z</time>
      </trkpt>
      <trkpt lat="43.07" lon="1.37703">
        <ele>401.49</ele>
        <time>2017-03-30T08:58:25Z</time>
      </trkpt>
      <trkpt lat="43.06997" lon="1.37704">
        <ele>401.49</ele>
        <time>2017-03-30T08:58:49Z</time>
      </trkpt>
      <trkpt lat="43.06992" lon="1.37703">
        <ele>401.49</ele>
        <time>2017-03-30T08:58:54Z</time>
      </trkpt>
      <trkpt lat="43.0699" lon="1.37704">
        <ele>401.01</ele>
        <time>2017-03-30T08:59:07Z</time>
      </trkpt>
      <trkpt lat="43.06983" lon="1.37706">
        <ele>402.45</ele>
        <time>2017-03-30T08:59:29Z</time>
      </trkpt>
      <trkpt lat="43.06971" lon="1.37706">
        <ele>402.45</ele>
        <time>2017-03-30T08:59:44Z</time>
      </trkpt>
      <trkpt lat="43.06956" lon="1.37706">
        <ele>403.89</ele>
        <time>2017-03-30T08:59:56Z</time>
      </trkpt>
      <trkpt lat="43.06942" lon="1.37705">
        <ele>404.85</ele>
        <time>2017-03-30T09:00:06Z</time>
      </trkpt>
      <trkpt lat="43.06938" lon="1.37706">
        <ele>405.81</ele>
        <time>2017-03-30T09:00:10Z</time>
      </trkpt>
      <trkpt lat="43.06936" lon="1.37706">
        <ele>405.81</ele>
        <time>2017-03-30T09:00:11Z</time>
      </trkpt>
      <trkpt lat="43.06924" lon="1.37708">
        <ele>406.29</ele>
        <time>2017-03-30T09:00:21Z</time>
      </trkpt>
      <trkpt lat="43.06906" lon="1.37717">
        <ele>407.26</ele>
        <time>2017-03-30T09:00:38Z</time>
      </trkpt>
      <trkpt lat="43.06905" lon="1.37717">
        <ele>407.26</ele>
        <time>2017-03-30T09:00:40Z</time>
      </trkpt>
      <trkpt lat="43.06901" lon="1.37719">
        <ele>406.29</ele>
        <time>2017-03-30T09:00:47Z</time>
      </trkpt>
      <trkpt lat="43.069" lon="1.3772">
        <ele>406.29</ele>
        <time>2017-03-30T09:00:48Z</time>
      </trkpt>
      <trkpt lat="43.06902" lon="1.37719">
        <ele>405.81</ele>
        <time>2017-03-30T09:00:58Z</time>
      </trkpt>
      <trkpt lat="43.06899" lon="1.3772">
        <ele>406.77</ele>
        <time>2017-03-30T09:01:23Z</time>
      </trkpt>
      <trkpt lat="43.06889" lon="1.37723">
        <ele>405.33</ele>
        <time>2017-03-30T09:01:31Z</time>
      </trkpt>
      <trkpt lat="43.06875" lon="1.37731">
        <ele>403.89</ele>
        <time>2017-03-30T09:01:44Z</time>
      </trkpt>
      <trkpt lat="43.06874" lon="1.37732">
        <ele>403.41</ele>
        <time>2017-03-30T09:01:45Z</time>
      </trkpt>
      <trkpt lat="43.06865" lon="1.37739">
        <ele>402.45</ele>
        <time>2017-03-30T09:02:56Z</time>
      </trkpt>
      <trkpt lat="43.06864" lon="1.37739">
        <ele>402.45</ele>
        <time>2017-03-30T09:02:57Z</time>
      </trkpt>
      <trkpt lat="43.06856" lon="1.37744">
        <ele>401.97</ele>
        <time>2017-03-30T09:03:13Z</time>
      </trkpt>
      <trkpt lat="43.06848" lon="1.37748">
        <ele>401.49</ele>
        <time>2017-03-30T09:03:21Z</time>
      </trkpt>
      <trkpt lat="43.06845" lon="1.37748">
        <ele>401.01</ele>
        <time>2017-03-30T09:03:23Z</time>
      </trkpt>
      <trkpt lat="43.06843" lon="1.37749">
        <ele>401.01</ele>
        <time>2017-03-30T09:03:25Z</time>
      </trkpt>
      <trkpt lat="43.06838" lon="1.37747">
        <ele>400.05</ele>
        <time>2017-03-30T09:03:53Z</time>
      </trkpt>
      <trkpt lat="43.06837" lon="1.37746">
        <ele>399.08</ele>
        <time>2017-03-30T09:04:03Z</time>
      </trkpt>
      <trkpt lat="43.06836" lon="1.37746">
        <ele>399.08</ele>
        <time>2017-03-30T09:04:12Z</time>
      </trkpt>
      <trkpt lat="43.06836" lon="1.37743">
        <ele>399.08</ele>
        <time>2017-03-30T09:04:41Z</time>
      </trkpt>
      <trkpt lat="43.06835" lon="1.37737">
        <ele>401.01</ele>
        <time>2017-03-30T09:04:53Z</time>
      </trkpt>
      <trkpt lat="43.06826" lon="1.37725">
        <ele>403.41</ele>
        <time>2017-03-30T09:05:06Z</time>
      </trkpt>
      <trkpt lat="43.0682" lon="1.37717">
        <ele>404.37</ele>
        <time>2017-03-30T09:05:15Z</time>
      </trkpt>
      <trkpt lat="43.06819" lon="1.37716">
        <ele>404.85</ele>
        <time>2017-03-30T09:05:16Z</time>
      </trkpt>
      <trkpt lat="43.06818" lon="1.37715">
        <ele>404.85</ele>
        <time>2017-03-30T09:05:17Z</time>
      </trkpt>
      <trkpt lat="43.06817" lon="1.37715">
        <ele>404.85</ele>
        <time>2017-03-30T09:05:18Z</time>
      </trkpt>
      <trkpt lat="43.06811" lon="1.37712">
        <ele>404.85</ele>
        <time>2017-03-30T09:05:33Z</time>
      </trkpt>
      <trkpt lat="43.06798" lon="1.37704">
        <ele>404.85</ele>
        <time>2017-03-30T09:05:45Z</time>
      </trkpt>
      <trkpt lat="43.0678" lon="1.37696">
        <ele>403.89</ele>
        <time>2017-03-30T09:06:00Z</time>
      </trkpt>
      <trkpt lat="43.06761" lon="1.37688">
        <ele>401.01</ele>
        <time>2017-03-30T09:06:15Z</time>
      </trkpt>
      <trkpt lat="43.0674" lon="1.37678">
        <ele>399.57</ele>
        <time>2017-03-30T09:06:32Z</time>
      </trkpt>
      <trkpt lat="43.06717" lon="1.37673">
        <ele>398.12</ele>
        <time>2017-03-30T09:06:49Z</time>
      </trkpt>
      <trkpt lat="43.06694" lon="1.37666">
        <ele>396.2</ele>
        <time>2017-03-30T09:07:06Z</time>
      </trkpt>
      <trkpt lat="43.06677" lon="1.3766">
        <ele>394.28</ele>
        <time>2017-03-30T09:07:23Z</time>
      </trkpt>
      <trkpt lat="43.06673" lon="1.3766">
        <ele>394.28</ele>
        <time>2017-03-30T09:07:32Z</time>
      </trkpt>
      <trkpt lat="43.0667" lon="1.37659">
        <ele>393.8</ele>
        <time>2017-03-30T09:07:34Z</time>
      </trkpt>
      <trkpt lat="43.06669" lon="1.37659">
        <ele>393.8</ele>
        <time>2017-03-30T09:07:35Z</time>
      </trkpt>
      <trkpt lat="43.06662" lon="1.37658">
        <ele>393.32</ele>
        <time>2017-03-30T09:07:50Z</time>
      </trkpt>
      <trkpt lat="43.06659" lon="1.37657">
        <ele>392.84</ele>
        <time>2017-03-30T09:08:05Z</time>
      </trkpt>
      <trkpt lat="43.06656" lon="1.37654">
        <ele>392.84</ele>
        <time>2017-03-30T09:08:44Z</time>
      </trkpt>
      <trkpt lat="43.06646" lon="1.3765">
        <ele>391.39</ele>
        <time>2017-03-30T09:09:06Z</time>
      </trkpt>
      <trkpt lat="43.06635" lon="1.3763">
        <ele>390.43</ele>
        <time>2017-03-30T09:09:21Z</time>
      </trkpt>
      <trkpt lat="43.06635" lon="1.37629">
        <ele>390.43</ele>
        <time>2017-03-30T09:09:22Z</time>
      </trkpt>
      <trkpt lat="43.06634" lon="1.37627">
        <ele>390.43</ele>
        <time>2017-03-30T09:09:23Z</time>
      </trkpt>
      <trkpt lat="43.06634" lon="1.37626">
        <ele>390.43</ele>
        <time>2017-03-30T09:09:24Z</time>
      </trkpt>
      <trkpt lat="43.06633" lon="1.37618">
        <ele>390.43</ele>
        <time>2017-03-30T09:09:29Z</time>
      </trkpt>
      <trkpt lat="43.06632" lon="1.37617">
        <ele>390.43</ele>
        <time>2017-03-30T09:09:30Z</time>
      </trkpt>
      <trkpt lat="43.06632" lon="1.37616">
        <ele>390.43</ele>
        <time>2017-03-30T09:09:31Z</time>
      </trkpt>
      <trkpt lat="43.06632" lon="1.37614">
        <ele>390.43</ele>
        <time>2017-03-30T09:09:32Z</time>
      </trkpt>
      <trkpt lat="43.06632" lon="1.37612">
        <ele>390.43</ele>
        <time>2017-03-30T09:09:33Z</time>
      </trkpt>
      <trkpt lat="43.06632" lon="1.3761">
        <ele>390.43</ele>
        <time>2017-03-30T09:09:34Z</time>
      </trkpt>
      <trkpt lat="43.0663" lon="1.37605">
        <ele>390.43</ele>
        <time>2017-03-30T09:09:45Z</time>
      </trkpt>
      <trkpt lat="43.06629" lon="1.376">
        <ele>390.43</ele>
        <time>2017-03-30T09:09:48Z</time>
      </trkpt>
      <trkpt lat="43.06628" lon="1.37597">
        <ele>391.87</ele>
        <time>2017-03-30T09:09:51Z</time>
      </trkpt>
      <trkpt lat="43.06627" lon="1.37595">
        <ele>391.87</ele>
        <time>2017-03-30T09:09:52Z</time>
      </trkpt>
      <trkpt lat="43.06616" lon="1.37572">
        <ele>393.8</ele>
        <time>2017-03-30T09:10:09Z</time>
      </trkpt>
      <trkpt lat="43.06608" lon="1.37543">
        <ele>394.76</ele>
        <time>2017-03-30T09:10:27Z</time>
      </trkpt>
      <trkpt lat="43.06613" lon="1.37535">
        <ele>395.24</ele>
        <time>2017-03-30T09:21:36Z</time>
      </trkpt>
      <trkpt lat="43.06616" lon="1.37534">
        <ele>396.68</ele>
        <time>2017-03-30T09:21:43Z</time>
      </trkpt>
      <trkpt lat="43.0662" lon="1.37529">
        <ele>398.6</ele>
        <time>2017-03-30T09:21:51Z</time>
      </trkpt>
      <trkpt lat="43.06625" lon="1.37524">
        <ele>400.53</ele>
        <time>2017-03-30T09:22:02Z</time>
      </trkpt>
      <trkpt lat="43.06626" lon="1.37523">
        <ele>401.01</ele>
        <time>2017-03-30T09:22:03Z</time>
      </trkpt>
      <trkpt lat="43.06633" lon="1.37514">
        <ele>402.93</ele>
        <time>2017-03-30T09:22:15Z</time>
      </trkpt>
      <trkpt lat="43.06638" lon="1.3751">
        <ele>404.85</ele>
        <time>2017-03-30T09:22:23Z</time>
      </trkpt>
      <trkpt lat="43.06644" lon="1.37505">
        <ele>406.29</ele>
        <time>2017-03-30T09:22:35Z</time>
      </trkpt>
      <trkpt lat="43.06652" lon="1.37498">
        <ele>408.7</ele>
        <time>2017-03-30T09:22:49Z</time>
      </trkpt>
      <trkpt lat="43.06659" lon="1.37491">
        <ele>411.1</ele>
        <time>2017-03-30T09:23:02Z</time>
      </trkpt>
      <trkpt lat="43.06664" lon="1.37488">
        <ele>413.02</ele>
        <time>2017-03-30T09:23:10Z</time>
      </trkpt>
      <trkpt lat="43.06665" lon="1.37486">
        <ele>414.47</ele>
        <time>2017-03-30T09:23:26Z</time>
      </trkpt>
      <trkpt lat="43.06668" lon="1.37483">
        <ele>413.98</ele>
        <time>2017-03-30T09:23:57Z</time>
      </trkpt>
      <trkpt lat="43.06673" lon="1.37477">
        <ele>414.95</ele>
        <time>2017-03-30T09:24:16Z</time>
      </trkpt>
      <trkpt lat="43.06676" lon="1.37477">
        <ele>416.39</ele>
        <time>2017-03-30T09:24:31Z</time>
      </trkpt>
      <trkpt lat="43.06682" lon="1.37473">
        <ele>418.31</ele>
        <time>2017-03-30T09:24:47Z</time>
      </trkpt>
      <trkpt lat="43.06687" lon="1.37466">
        <ele>421.19</ele>
        <time>2017-03-30T09:25:00Z</time>
      </trkpt>
      <trkpt lat="43.06692" lon="1.37464">
        <ele>424.56</ele>
        <time>2017-03-30T09:25:14Z</time>
      </trkpt>
      <trkpt lat="43.06697" lon="1.37457">
        <ele>427.44</ele>
        <time>2017-03-30T09:25:30Z</time>
      </trkpt>
      <trkpt lat="43.06703" lon="1.37454">
        <ele>429.85</ele>
        <time>2017-03-30T09:25:42Z</time>
      </trkpt>
      <trkpt lat="43.06705" lon="1.37449">
        <ele>433.21</ele>
        <time>2017-03-30T09:25:58Z</time>
      </trkpt>
      <trkpt lat="43.06705" lon="1.37445">
        <ele>434.17</ele>
        <time>2017-03-30T09:26:11Z</time>
      </trkpt>
      <trkpt lat="43.06708" lon="1.37443">
        <ele>436.58</ele>
        <time>2017-03-30T09:26:24Z</time>
      </trkpt>
      <trkpt lat="43.06712" lon="1.37437">
        <ele>438.98</ele>
        <time>2017-03-30T09:26:39Z</time>
      </trkpt>
      <trkpt lat="43.0671" lon="1.37439">
        <ele>439.46</ele>
        <time>2017-03-30T09:26:59Z</time>
      </trkpt>
      <trkpt lat="43.06708" lon="1.37434">
        <ele>439.46</ele>
        <time>2017-03-30T09:27:26Z</time>
      </trkpt>
      <trkpt lat="43.06714" lon="1.37432">
        <ele>441.86</ele>
        <time>2017-03-30T09:27:40Z</time>
      </trkpt>
      <trkpt lat="43.06717" lon="1.37424">
        <ele>444.75</ele>
        <time>2017-03-30T09:27:54Z</time>
      </trkpt>
      <trkpt lat="43.06721" lon="1.37423">
        <ele>448.11</ele>
        <time>2017-03-30T09:28:09Z</time>
      </trkpt>
      <trkpt lat="43.06723" lon="1.37418">
        <ele>450.52</ele>
        <time>2017-03-30T09:28:23Z</time>
      </trkpt>
      <trkpt lat="43.06724" lon="1.37407">
        <ele>453.88</ele>
        <time>2017-03-30T09:28:42Z</time>
      </trkpt>
      <trkpt lat="43.06725" lon="1.37399">
        <ele>456.28</ele>
        <time>2017-03-30T09:28:56Z</time>
      </trkpt>
      <trkpt lat="43.06729" lon="1.37395">
        <ele>457.72</ele>
        <time>2017-03-30T09:29:09Z</time>
      </trkpt>
      <trkpt lat="43.06732" lon="1.37394">
        <ele>459.65</ele>
        <time>2017-03-30T09:29:24Z</time>
      </trkpt>
      <trkpt lat="43.06736" lon="1.37396">
        <ele>462.05</ele>
        <time>2017-03-30T09:29:39Z</time>
      </trkpt>
      <trkpt lat="43.06741" lon="1.37393">
        <ele>464.45</ele>
        <time>2017-03-30T09:29:55Z</time>
      </trkpt>
      <trkpt lat="43.06742" lon="1.3739">
        <ele>467.34</ele>
        <time>2017-03-30T09:30:11Z</time>
      </trkpt>
      <trkpt lat="43.06743" lon="1.37383">
        <ele>469.26</ele>
        <time>2017-03-30T09:30:23Z</time>
      </trkpt>
      <trkpt lat="43.06751" lon="1.37385">
        <ele>470.22</ele>
        <time>2017-03-30T09:30:43Z</time>
      </trkpt>
      <trkpt lat="43.06764" lon="1.374">
        <ele>472.63</ele>
        <time>2017-03-30T09:31:01Z</time>
      </trkpt>
      <trkpt lat="43.06773" lon="1.3741">
        <ele>473.11</ele>
        <time>2017-03-30T09:31:17Z</time>
      </trkpt>
      <trkpt lat="43.06775" lon="1.37413">
        <ele>474.07</ele>
        <time>2017-03-30T09:31:27Z</time>
      </trkpt>
      <trkpt lat="43.06781" lon="1.37421">
        <ele>474.07</ele>
        <time>2017-03-30T09:31:40Z</time>
      </trkpt>
      <trkpt lat="43.06789" lon="1.37433">
        <ele>475.51</ele>
        <time>2017-03-30T09:31:56Z</time>
      </trkpt>
      <trkpt lat="43.06792" lon="1.37434">
        <ele>476.47</ele>
        <time>2017-03-30T09:32:10Z</time>
      </trkpt>
      <trkpt lat="43.06801" lon="1.37443">
        <ele>476.95</ele>
        <time>2017-03-30T09:32:25Z</time>
      </trkpt>
      <trkpt lat="43.06811" lon="1.37446">
        <ele>478.87</ele>
        <time>2017-03-30T09:32:39Z</time>
      </trkpt>
      <trkpt lat="43.06816" lon="1.37452">
        <ele>479.35</ele>
        <time>2017-03-30T09:32:46Z</time>
      </trkpt>
      <trkpt lat="43.06827" lon="1.37463">
        <ele>480.8</ele>
        <time>2017-03-30T09:33:00Z</time>
      </trkpt>
      <trkpt lat="43.06834" lon="1.37469">
        <ele>481.28</ele>
        <time>2017-03-30T09:33:07Z</time>
      </trkpt>
      <trkpt lat="43.06844" lon="1.37486">
        <ele>482.72</ele>
        <time>2017-03-30T09:33:22Z</time>
      </trkpt>
      <trkpt lat="43.06851" lon="1.37492">
        <ele>483.68</ele>
        <time>2017-03-30T09:33:33Z</time>
      </trkpt>
      <trkpt lat="43.06863" lon="1.375">
        <ele>485.12</ele>
        <time>2017-03-30T09:33:47Z</time>
      </trkpt>
      <trkpt lat="43.0687" lon="1.375">
        <ele>486.56</ele>
        <time>2017-03-30T09:34:00Z</time>
      </trkpt>
      <trkpt lat="43.06873" lon="1.37503">
        <ele>487.05</ele>
        <time>2017-03-30T09:34:04Z</time>
      </trkpt>
      <trkpt lat="43.06886" lon="1.37505">
        <ele>488.01</ele>
        <time>2017-03-30T09:34:18Z</time>
      </trkpt>
      <trkpt lat="43.06894" lon="1.37511">
        <ele>488.97</ele>
        <time>2017-03-30T09:34:30Z</time>
      </trkpt>
      <trkpt lat="43.06898" lon="1.37514">
        <ele>488.97</ele>
        <time>2017-03-30T09:34:44Z</time>
      </trkpt>
      <trkpt lat="43.06905" lon="1.37513">
        <ele>492.81</ele>
        <time>2017-03-30T09:38:14Z</time>
      </trkpt>
      <trkpt lat="43.06913" lon="1.37514">
        <ele>489.45</ele>
        <time>2017-03-30T09:40:08Z</time>
      </trkpt>
      <trkpt lat="43.06923" lon="1.3751">
        <ele>489.45</ele>
        <time>2017-03-30T09:40:21Z</time>
      </trkpt>
      <trkpt lat="43.06934" lon="1.37501">
        <ele>489.45</ele>
        <time>2017-03-30T09:40:36Z</time>
      </trkpt>
      <trkpt lat="43.0694" lon="1.37495">
        <ele>489.45</ele>
        <time>2017-03-30T09:40:43Z</time>
      </trkpt>
      <trkpt lat="43.06946" lon="1.37488">
        <ele>489.45</ele>
        <time>2017-03-30T09:40:51Z</time>
      </trkpt>
      <trkpt lat="43.06959" lon="1.37481">
        <ele>489.45</ele>
        <time>2017-03-30T09:41:05Z</time>
      </trkpt>
      <trkpt lat="43.06972" lon="1.37468">
        <ele>488.49</ele>
        <time>2017-03-30T09:41:21Z</time>
      </trkpt>
      <trkpt lat="43.06974" lon="1.37453">
        <ele>488.49</ele>
        <time>2017-03-30T09:41:33Z</time>
      </trkpt>
      <trkpt lat="43.06973" lon="1.37445">
        <ele>488.49</ele>
        <time>2017-03-30T09:41:38Z</time>
      </trkpt>
      <trkpt lat="43.06984" lon="1.37431">
        <ele>488.49</ele>
        <time>2017-03-30T09:41:53Z</time>
      </trkpt>
      <trkpt lat="43.06986" lon="1.37423">
        <ele>488.49</ele>
        <time>2017-03-30T09:41:59Z</time>
      </trkpt>
      <trkpt lat="43.06987" lon="1.37418">
        <ele>488.49</ele>
        <time>2017-03-30T09:42:03Z</time>
      </trkpt>
      <trkpt lat="43.0699" lon="1.37409">
        <ele>488.49</ele>
        <time>2017-03-30T09:42:18Z</time>
      </trkpt>
      <trkpt lat="43.06995" lon="1.37397">
        <ele>488.49</ele>
        <time>2017-03-30T09:42:30Z</time>
      </trkpt>
      <trkpt lat="43.06999" lon="1.37383">
        <ele>488.01</ele>
        <time>2017-03-30T09:42:42Z</time>
      </trkpt>
      <trkpt lat="43.07001" lon="1.37371">
        <ele>487.05</ele>
        <time>2017-03-30T09:42:54Z</time>
      </trkpt>
      <trkpt lat="43.0701" lon="1.37351">
        <ele>486.56</ele>
        <time>2017-03-30T09:43:08Z</time>
      </trkpt>
      <trkpt lat="43.07015" lon="1.37331">
        <ele>486.08</ele>
        <time>2017-03-30T09:43:22Z</time>
      </trkpt>
      <trkpt lat="43.07021" lon="1.37315">
        <ele>485.12</ele>
        <time>2017-03-30T09:43:34Z</time>
      </trkpt>
      <trkpt lat="43.07028" lon="1.373">
        <ele>484.64</ele>
        <time>2017-03-30T09:43:48Z</time>
      </trkpt>
      <trkpt lat="43.07034" lon="1.37285">
        <ele>484.16</ele>
        <time>2017-03-30T09:44:01Z</time>
      </trkpt>
      <trkpt lat="43.0704" lon="1.37275">
        <ele>484.16</ele>
        <time>2017-03-30T09:44:13Z</time>
      </trkpt>
      <trkpt lat="43.07042" lon="1.37272">
        <ele>484.16</ele>
        <time>2017-03-30T09:44:17Z</time>
      </trkpt>
      <trkpt lat="43.0705" lon="1.3726">
        <ele>483.68</ele>
        <time>2017-03-30T09:44:31Z</time>
      </trkpt>
      <trkpt lat="43.07055" lon="1.37245">
        <ele>484.16</ele>
        <time>2017-03-30T09:49:46Z</time>
      </trkpt>
      <trkpt lat="43.07058" lon="1.37228">
        <ele>482.24</ele>
        <time>2017-03-30T09:50:00Z</time>
      </trkpt>
      <trkpt lat="43.07062" lon="1.37211">
        <ele>481.76</ele>
        <time>2017-03-30T09:50:16Z</time>
      </trkpt>
      <trkpt lat="43.07063" lon="1.37196">
        <ele>481.28</ele>
        <time>2017-03-30T09:50:28Z</time>
      </trkpt>
      <trkpt lat="43.07067" lon="1.37186">
        <ele>480.8</ele>
        <time>2017-03-30T09:50:38Z</time>
      </trkpt>
      <trkpt lat="43.07074" lon="1.37174">
        <ele>480.8</ele>
        <time>2017-03-30T09:50:49Z</time>
      </trkpt>
      <trkpt lat="43.07085" lon="1.37164">
        <ele>480.8</ele>
        <time>2017-03-30T09:51:02Z</time>
      </trkpt>
      <trkpt lat="43.07088" lon="1.37155">
        <ele>480.8</ele>
        <time>2017-03-30T09:51:10Z</time>
      </trkpt>
      <trkpt lat="43.0709" lon="1.3715">
        <ele>480.8</ele>
        <time>2017-03-30T09:51:14Z</time>
      </trkpt>
      <trkpt lat="43.07091" lon="1.37131">
        <ele>480.32</ele>
        <time>2017-03-30T09:51:30Z</time>
      </trkpt>
      <trkpt lat="43.07098" lon="1.37119">
        <ele>479.84</ele>
        <time>2017-03-30T09:51:43Z</time>
      </trkpt>
      <trkpt lat="43.07103" lon="1.37106">
        <ele>479.84</ele>
        <time>2017-03-30T09:51:56Z</time>
      </trkpt>
      <trkpt lat="43.07109" lon="1.37087">
        <ele>479.35</ele>
        <time>2017-03-30T09:52:11Z</time>
      </trkpt>
      <trkpt lat="43.07118" lon="1.37072">
        <ele>478.87</ele>
        <time>2017-03-30T09:52:24Z</time>
      </trkpt>
      <trkpt lat="43.07124" lon="1.37052">
        <ele>478.87</ele>
        <time>2017-03-30T09:52:39Z</time>
      </trkpt>
      <trkpt lat="43.07124" lon="1.37051">
        <ele>478.87</ele>
        <time>2017-03-30T09:52:40Z</time>
      </trkpt>
      <trkpt lat="43.07131" lon="1.37033">
        <ele>478.87</ele>
        <time>2017-03-30T09:52:55Z</time>
      </trkpt>
      <trkpt lat="43.07136" lon="1.37019">
        <ele>478.87</ele>
        <time>2017-03-30T09:53:04Z</time>
      </trkpt>
      <trkpt lat="43.07137" lon="1.37016">
        <ele>478.87</ele>
        <time>2017-03-30T09:53:06Z</time>
      </trkpt>
      <trkpt lat="43.07142" lon="1.37005">
        <ele>478.87</ele>
        <time>2017-03-30T09:53:20Z</time>
      </trkpt>
      <trkpt lat="43.07143" lon="1.36991">
        <ele>477.91</ele>
        <time>2017-03-30T09:53:33Z</time>
      </trkpt>
      <trkpt lat="43.07147" lon="1.36975">
        <ele>477.43</ele>
        <time>2017-03-30T09:53:47Z</time>
      </trkpt>
      <trkpt lat="43.07146" lon="1.36954">
        <ele>476.47</ele>
        <time>2017-03-30T09:54:02Z</time>
      </trkpt>
      <trkpt lat="43.0715" lon="1.36938">
        <ele>475.99</ele>
        <time>2017-03-30T09:54:14Z</time>
      </trkpt>
      <trkpt lat="43.07155" lon="1.36923">
        <ele>475.51</ele>
        <time>2017-03-30T09:54:26Z</time>
      </trkpt>
      <trkpt lat="43.07154" lon="1.36915">
        <ele>474.55</ele>
        <time>2017-03-30T09:54:32Z</time>
      </trkpt>
      <trkpt lat="43.07159" lon="1.369">
        <ele>474.55</ele>
        <time>2017-03-30T09:54:46Z</time>
      </trkpt>
      <trkpt lat="43.0716" lon="1.36891">
        <ele>472.63</ele>
        <time>2017-03-30T09:54:57Z</time>
      </trkpt>
      <trkpt lat="43.07163" lon="1.36882">
        <ele>470.7</ele>
        <time>2017-03-30T09:55:09Z</time>
      </trkpt>
      <trkpt lat="43.07165" lon="1.36871">
        <ele>470.22</ele>
        <time>2017-03-30T09:55:18Z</time>
      </trkpt>
      <trkpt lat="43.07169" lon="1.36854">
        <ele>468.3</ele>
        <time>2017-03-30T09:55:31Z</time>
      </trkpt>
      <trkpt lat="43.07173" lon="1.36837">
        <ele>468.3</ele>
        <time>2017-03-30T09:55:44Z</time>
      </trkpt>
      <trkpt lat="43.07173" lon="1.36836">
        <ele>468.3</ele>
        <time>2017-03-30T09:55:45Z</time>
      </trkpt>
      <trkpt lat="43.07173" lon="1.36819">
        <ele>468.3</ele>
        <time>2017-03-30T09:56:00Z</time>
      </trkpt>
      <trkpt lat="43.07174" lon="1.36809">
        <ele>468.3</ele>
        <time>2017-03-30T09:56:07Z</time>
      </trkpt>
      <trkpt lat="43.07178" lon="1.36789">
        <ele>467.82</ele>
        <time>2017-03-30T09:56:21Z</time>
      </trkpt>
      <trkpt lat="43.07185" lon="1.36768">
        <ele>465.42</ele>
        <time>2017-03-30T09:56:37Z</time>
      </trkpt>
      <trkpt lat="43.07189" lon="1.36759">
        <ele>465.42</ele>
        <time>2017-03-30T09:56:47Z</time>
      </trkpt>
      <trkpt lat="43.07196" lon="1.36745">
        <ele>464.45</ele>
        <time>2017-03-30T09:56:58Z</time>
      </trkpt>
      <trkpt lat="43.072" lon="1.36722">
        <ele>463.49</ele>
        <time>2017-03-30T09:57:14Z</time>
      </trkpt>
      <trkpt lat="43.07203" lon="1.36703">
        <ele>463.01</ele>
        <time>2017-03-30T09:57:27Z</time>
      </trkpt>
      <trkpt lat="43.07205" lon="1.36697">
        <ele>463.01</ele>
        <time>2017-03-30T09:57:31Z</time>
      </trkpt>
      <trkpt lat="43.07206" lon="1.36692">
        <ele>463.01</ele>
        <time>2017-03-30T09:57:34Z</time>
      </trkpt>
      <trkpt lat="43.07209" lon="1.36677">
        <ele>464.45</ele>
        <time>2017-03-30T09:57:47Z</time>
      </trkpt>
      <trkpt lat="43.0721" lon="1.36676">
        <ele>464.45</ele>
        <time>2017-03-30T09:57:48Z</time>
      </trkpt>
      <trkpt lat="43.07212" lon="1.36673">
        <ele>464.93</ele>
        <time>2017-03-30T09:58:00Z</time>
      </trkpt>
      <trkpt lat="43.07214" lon="1.36661">
        <ele>463.49</ele>
        <time>2017-03-30T09:59:12Z</time>
      </trkpt>
      <trkpt lat="43.07215" lon="1.36649">
        <ele>461.57</ele>
        <time>2017-03-30T09:59:25Z</time>
      </trkpt>
      <trkpt lat="43.07216" lon="1.36634">
        <ele>458.69</ele>
        <time>2017-03-30T09:59:39Z</time>
      </trkpt>
      <trkpt lat="43.0722" lon="1.36621">
        <ele>457.24</ele>
        <time>2017-03-30T09:59:50Z</time>
      </trkpt>
      <trkpt lat="43.07221" lon="1.36612">
        <ele>455.8</ele>
        <time>2017-03-30T09:59:57Z</time>
      </trkpt>
      <trkpt lat="43.07223" lon="1.36601">
        <ele>455.32</ele>
        <time>2017-03-30T10:00:04Z</time>
      </trkpt>
      <trkpt lat="43.07221" lon="1.36579">
        <ele>454.36</ele>
        <time>2017-03-30T10:00:16Z</time>
      </trkpt>
      <trkpt lat="43.07226" lon="1.36547">
        <ele>451.96</ele>
        <time>2017-03-30T10:00:34Z</time>
      </trkpt>
      <trkpt lat="43.07226" lon="1.36544">
        <ele>451</ele>
        <time>2017-03-30T10:00:36Z</time>
      </trkpt>
      <trkpt lat="43.07227" lon="1.3652">
        <ele>449.07</ele>
        <time>2017-03-30T10:00:50Z</time>
      </trkpt>
      <trkpt lat="43.07229" lon="1.36513">
        <ele>448.11</ele>
        <time>2017-03-30T10:00:56Z</time>
      </trkpt>
      <trkpt lat="43.07228" lon="1.3649">
        <ele>444.27</ele>
        <time>2017-03-30T10:01:11Z</time>
      </trkpt>
      <trkpt lat="43.07228" lon="1.36487">
        <ele>444.27</ele>
        <time>2017-03-30T10:01:13Z</time>
      </trkpt>
      <trkpt lat="43.07231" lon="1.36465">
        <ele>441.86</ele>
        <time>2017-03-30T10:01:28Z</time>
      </trkpt>
      <trkpt lat="43.07231" lon="1.36455">
        <ele>440.42</ele>
        <time>2017-03-30T10:01:44Z</time>
      </trkpt>
      <trkpt lat="43.07231" lon="1.36451">
        <ele>439.46</ele>
        <time>2017-03-30T10:01:48Z</time>
      </trkpt>
      <trkpt lat="43.07225" lon="1.36441">
        <ele>436.1</ele>
        <time>2017-03-30T10:02:00Z</time>
      </trkpt>
      <trkpt lat="43.07223" lon="1.36437">
        <ele>434.65</ele>
        <time>2017-03-30T10:02:04Z</time>
      </trkpt>
      <trkpt lat="43.07223" lon="1.36433">
        <ele>434.17</ele>
        <time>2017-03-30T10:02:08Z</time>
      </trkpt>
      <trkpt lat="43.07225" lon="1.36411">
        <ele>430.33</ele>
        <time>2017-03-30T10:02:23Z</time>
      </trkpt>
      <trkpt lat="43.07225" lon="1.3641">
        <ele>430.33</ele>
        <time>2017-03-30T10:02:24Z</time>
      </trkpt>
      <trkpt lat="43.07224" lon="1.36406">
        <ele>429.37</ele>
        <time>2017-03-30T10:02:27Z</time>
      </trkpt>
      <trkpt lat="43.07223" lon="1.36387">
        <ele>426</ele>
        <time>2017-03-30T10:02:40Z</time>
      </trkpt>
      <trkpt lat="43.07222" lon="1.36372">
        <ele>424.56</ele>
        <time>2017-03-30T10:02:50Z</time>
      </trkpt>
      <trkpt lat="43.07219" lon="1.36358">
        <ele>422.16</ele>
        <time>2017-03-30T10:03:00Z</time>
      </trkpt>
      <trkpt lat="43.07221" lon="1.36347">
        <ele>421.19</ele>
        <time>2017-03-30T10:03:07Z</time>
      </trkpt>
      <trkpt lat="43.07223" lon="1.36331">
        <ele>419.27</ele>
        <time>2017-03-30T10:03:22Z</time>
      </trkpt>
      <trkpt lat="43.07222" lon="1.36323">
        <ele>417.83</ele>
        <time>2017-03-30T10:03:39Z</time>
      </trkpt>
      <trkpt lat="43.07219" lon="1.36318">
        <ele>417.35</ele>
        <time>2017-03-30T10:03:44Z</time>
      </trkpt>
      <trkpt lat="43.07217" lon="1.36314">
        <ele>416.39</ele>
        <time>2017-03-30T10:03:46Z</time>
      </trkpt>
      <trkpt lat="43.07213" lon="1.363">
        <ele>414.95</ele>
        <time>2017-03-30T10:03:56Z</time>
      </trkpt>
      <trkpt lat="43.07212" lon="1.36294">
        <ele>413.5</ele>
        <time>2017-03-30T10:04:01Z</time>
      </trkpt>
      <trkpt lat="43.07212" lon="1.36291">
        <ele>413.02</ele>
        <time>2017-03-30T10:04:02Z</time>
      </trkpt>
      <trkpt lat="43.07211" lon="1.3629">
        <ele>413.02</ele>
        <time>2017-03-30T10:04:03Z</time>
      </trkpt>
      <trkpt lat="43.0721" lon="1.36284">
        <ele>411.1</ele>
        <time>2017-03-30T10:04:09Z</time>
      </trkpt>
      <trkpt lat="43.07211" lon="1.36281">
        <ele>410.62</ele>
        <time>2017-03-30T10:04:11Z</time>
      </trkpt>
      <trkpt lat="43.07211" lon="1.3628">
        <ele>410.14</ele>
        <time>2017-03-30T10:04:12Z</time>
      </trkpt>
      <trkpt lat="43.07211" lon="1.36278">
        <ele>409.66</ele>
        <time>2017-03-30T10:04:13Z</time>
      </trkpt>
      <trkpt lat="43.07215" lon="1.36263">
        <ele>407.74</ele>
        <time>2017-03-30T10:04:22Z</time>
      </trkpt>
      <trkpt lat="43.07217" lon="1.36246">
        <ele>405.81</ele>
        <time>2017-03-30T10:04:33Z</time>
      </trkpt>
      <trkpt lat="43.07217" lon="1.36241">
        <ele>404.85</ele>
        <time>2017-03-30T10:04:37Z</time>
      </trkpt>
      <trkpt lat="43.07223" lon="1.36232">
        <ele>402.45</ele>
        <time>2017-03-30T10:04:48Z</time>
      </trkpt>
      <trkpt lat="43.07225" lon="1.36225">
        <ele>400.53</ele>
        <time>2017-03-30T10:04:56Z</time>
      </trkpt>
      <trkpt lat="43.07226" lon="1.36217">
        <ele>398.6</ele>
        <time>2017-03-30T10:05:03Z</time>
      </trkpt>
      <trkpt lat="43.07226" lon="1.36211">
        <ele>397.16</ele>
        <time>2017-03-30T10:05:09Z</time>
      </trkpt>
      <trkpt lat="43.07226" lon="1.36201">
        <ele>394.76</ele>
        <time>2017-03-30T10:05:19Z</time>
      </trkpt>
      <trkpt lat="43.07227" lon="1.3619">
        <ele>392.36</ele>
        <time>2017-03-30T10:05:29Z</time>
      </trkpt>
      <trkpt lat="43.07227" lon="1.36188">
        <ele>391.87</ele>
        <time>2017-03-30T10:05:30Z</time>
      </trkpt>
      <trkpt lat="43.07227" lon="1.36186">
        <ele>391.87</ele>
        <time>2017-03-30T10:05:31Z</time>
      </trkpt>
      <trkpt lat="43.07227" lon="1.36184">
        <ele>391.39</ele>
        <time>2017-03-30T10:05:32Z</time>
      </trkpt>
      <trkpt lat="43.07227" lon="1.36171">
        <ele>388.51</ele>
        <time>2017-03-30T10:05:43Z</time>
      </trkpt>
      <trkpt lat="43.07228" lon="1.36169">
        <ele>388.51</ele>
        <time>2017-03-30T10:05:44Z</time>
      </trkpt>
      <trkpt lat="43.07228" lon="1.36167">
        <ele>387.55</ele>
        <time>2017-03-30T10:05:45Z</time>
      </trkpt>
      <trkpt lat="43.07227" lon="1.36157">
        <ele>385.15</ele>
        <time>2017-03-30T10:05:56Z</time>
      </trkpt>
      <trkpt lat="43.0723" lon="1.36139">
        <ele>382.26</ele>
        <time>2017-03-30T10:06:08Z</time>
      </trkpt>
      <trkpt lat="43.0723" lon="1.36125">
        <ele>379.86</ele>
        <time>2017-03-30T10:06:21Z</time>
      </trkpt>
      <trkpt lat="43.07233" lon="1.36114">
        <ele>376.97</ele>
        <time>2017-03-30T10:06:32Z</time>
      </trkpt>
      <trkpt lat="43.07239" lon="1.36101">
        <ele>374.09</ele>
        <time>2017-03-30T10:06:44Z</time>
      </trkpt>
      <trkpt lat="43.07242" lon="1.36082">
        <ele>371.21</ele>
        <time>2017-03-30T10:06:57Z</time>
      </trkpt>
      <trkpt lat="43.07242" lon="1.36081">
        <ele>370.73</ele>
        <time>2017-03-30T10:06:58Z</time>
      </trkpt>
      <trkpt lat="43.07247" lon="1.36062">
        <ele>368.32</ele>
        <time>2017-03-30T10:07:12Z</time>
      </trkpt>
      <trkpt lat="43.0725" lon="1.36042">
        <ele>365.44</ele>
        <time>2017-03-30T10:07:26Z</time>
      </trkpt>
      <trkpt lat="43.07251" lon="1.36028">
        <ele>364.48</ele>
        <time>2017-03-30T10:07:35Z</time>
      </trkpt>
      <trkpt lat="43.07249" lon="1.36012">
        <ele>361.11</ele>
        <time>2017-03-30T10:07:47Z</time>
      </trkpt>
      <trkpt lat="43.0725" lon="1.35999">
        <ele>358.71</ele>
        <time>2017-03-30T10:07:59Z</time>
      </trkpt>
      <trkpt lat="43.07251" lon="1.35985">
        <ele>356.31</ele>
        <time>2017-03-30T10:08:12Z</time>
      </trkpt>
      <trkpt lat="43.07252" lon="1.35967">
        <ele>353.9</ele>
        <time>2017-03-30T10:08:25Z</time>
      </trkpt>
      <trkpt lat="43.07254" lon="1.35963">
        <ele>353.42</ele>
        <time>2017-03-30T10:08:40Z</time>
      </trkpt>
      <trkpt lat="43.07254" lon="1.35951">
        <ele>351.98</ele>
        <time>2017-03-30T10:08:53Z</time>
      </trkpt>
      <trkpt lat="43.07255" lon="1.35929">
        <ele>350.54</ele>
        <time>2017-03-30T10:09:06Z</time>
      </trkpt>
      <trkpt lat="43.07255" lon="1.35904">
        <ele>348.13</ele>
        <time>2017-03-30T10:09:20Z</time>
      </trkpt>
      <trkpt lat="43.07257" lon="1.3589">
        <ele>345.25</ele>
        <time>2017-03-30T10:09:29Z</time>
      </trkpt>
      <trkpt lat="43.07258" lon="1.35866">
        <ele>341.41</ele>
        <time>2017-03-30T10:09:45Z</time>
      </trkpt>
      <trkpt lat="43.07259" lon="1.3585">
        <ele>338.04</ele>
        <time>2017-03-30T10:09:58Z</time>
      </trkpt>
      <trkpt lat="43.07259" lon="1.3584">
        <ele>336.12</ele>
        <time>2017-03-30T10:10:11Z</time>
      </trkpt>
      <trkpt lat="43.07258" lon="1.35832">
        <ele>334.68</ele>
        <time>2017-03-30T10:10:29Z</time>
      </trkpt>
      <trkpt lat="43.07261" lon="1.35835">
        <ele>334.68</ele>
        <time>2017-03-30T10:10:45Z</time>
      </trkpt>
      <trkpt lat="43.07262" lon="1.35833">
        <ele>334.68</ele>
        <time>2017-03-30T10:10:49Z</time>
      </trkpt>
      <trkpt lat="43.07264" lon="1.35831">
        <ele>334.68</ele>
        <time>2017-03-30T10:10:50Z</time>
      </trkpt>
      <trkpt lat="43.07264" lon="1.3583">
        <ele>334.68</ele>
        <time>2017-03-30T10:10:51Z</time>
      </trkpt>
      <trkpt lat="43.07271" lon="1.35824">
        <ele>333.71</ele>
        <time>2017-03-30T10:10:58Z</time>
      </trkpt>
      <trkpt lat="43.07272" lon="1.35823">
        <ele>333.71</ele>
        <time>2017-03-30T10:10:59Z</time>
      </trkpt>
      <trkpt lat="43.07284" lon="1.35805">
        <ele>331.31</ele>
        <time>2017-03-30T10:11:15Z</time>
      </trkpt>
      <trkpt lat="43.07285" lon="1.35798">
        <ele>329.87</ele>
        <time>2017-03-30T10:11:19Z</time>
      </trkpt>
      <trkpt lat="43.07285" lon="1.35797">
        <ele>329.87</ele>
        <time>2017-03-30T10:11:20Z</time>
      </trkpt>
      <trkpt lat="43.07284" lon="1.35795">
        <ele>329.39</ele>
        <time>2017-03-30T10:11:21Z</time>
      </trkpt>
      <trkpt lat="43.07283" lon="1.35794">
        <ele>329.39</ele>
        <time>2017-03-30T10:11:22Z</time>
      </trkpt>
      <trkpt lat="43.07283" lon="1.35792">
        <ele>328.91</ele>
        <time>2017-03-30T10:11:23Z</time>
      </trkpt>
      <trkpt lat="43.07282" lon="1.35791">
        <ele>328.91</ele>
        <time>2017-03-30T10:11:24Z</time>
      </trkpt>
      <trkpt lat="43.07281" lon="1.3579">
        <ele>328.91</ele>
        <time>2017-03-30T10:11:25Z</time>
      </trkpt>
      <trkpt lat="43.0728" lon="1.35789">
        <ele>328.43</ele>
        <time>2017-03-30T10:11:26Z</time>
      </trkpt>
      <trkpt lat="43.07279" lon="1.35787">
        <ele>328.43</ele>
        <time>2017-03-30T10:11:27Z</time>
      </trkpt>
      <trkpt lat="43.07259" lon="1.35772">
        <ele>325.06</ele>
        <time>2017-03-30T10:11:44Z</time>
      </trkpt>
      <trkpt lat="43.0724" lon="1.3576">
        <ele>323.62</ele>
        <time>2017-03-30T10:12:01Z</time>
      </trkpt>
      <trkpt lat="43.07226" lon="1.35752">
        <ele>321.7</ele>
        <time>2017-03-30T10:12:17Z</time>
      </trkpt>
      <trkpt lat="43.07224" lon="1.35752">
        <ele>321.22</ele>
        <time>2017-03-30T10:12:35Z</time>
      </trkpt>
      <trkpt lat="43.07212" lon="1.35742">
        <ele>319.78</ele>
        <time>2017-03-30T10:13:03Z</time>
      </trkpt>
      <trkpt lat="43.07199" lon="1.35731">
        <ele>317.85</ele>
        <time>2017-03-30T10:13:17Z</time>
      </trkpt>
      <trkpt lat="43.0719" lon="1.3572">
        <ele>316.41</ele>
        <time>2017-03-30T10:13:32Z</time>
      </trkpt>
      <trkpt lat="43.07188" lon="1.35717">
        <ele>315.93</ele>
        <time>2017-03-30T10:13:37Z</time>
      </trkpt>
      <trkpt lat="43.07181" lon="1.35708">
        <ele>314.49</ele>
        <time>2017-03-30T10:13:46Z</time>
      </trkpt>
      <trkpt lat="43.07179" lon="1.35705">
        <ele>314.01</ele>
        <time>2017-03-30T10:13:48Z</time>
      </trkpt>
      <trkpt lat="43.07179" lon="1.35703">
        <ele>314.01</ele>
        <time>2017-03-30T10:13:49Z</time>
      </trkpt>
      <trkpt lat="43.07176" lon="1.35691">
        <ele>313.05</ele>
        <time>2017-03-30T10:14:03Z</time>
      </trkpt>
      <trkpt lat="43.07171" lon="1.35683">
        <ele>312.09</ele>
        <time>2017-03-30T10:14:16Z</time>
      </trkpt>
      <trkpt lat="43.07168" lon="1.35668">
        <ele>311.6</ele>
        <time>2017-03-30T10:14:53Z</time>
      </trkpt>
      <trkpt lat="43.0718" lon="1.35679">
        <ele>311.12</ele>
        <time>2017-03-30T10:15:00Z</time>
      </trkpt>
      <trkpt lat="43.07185" lon="1.35683">
        <ele>311.12</ele>
        <time>2017-03-30T10:15:04Z</time>
      </trkpt>
      <trkpt lat="43.07186" lon="1.35682">
        <ele>311.12</ele>
        <time>2017-03-30T10:15:05Z</time>
      </trkpt>
      <trkpt lat="43.07188" lon="1.35682">
        <ele>311.12</ele>
        <time>2017-03-30T10:15:06Z</time>
      </trkpt>
      <trkpt lat="43.07189" lon="1.35681">
        <ele>311.12</ele>
        <time>2017-03-30T10:15:07Z</time>
      </trkpt>
      <trkpt lat="43.0719" lon="1.35681">
        <ele>311.12</ele>
        <time>2017-03-30T10:15:08Z</time>
      </trkpt>
      <trkpt lat="43.07211" lon="1.35675">
        <ele>309.2</ele>
        <time>2017-03-30T10:15:25Z</time>
      </trkpt>
      <trkpt lat="43.07228" lon="1.35677">
        <ele>308.24</ele>
        <time>2017-03-30T10:15:37Z</time>
      </trkpt>
      <trkpt lat="43.07247" lon="1.35686">
        <ele>305.84</ele>
        <time>2017-03-30T10:15:52Z</time>
      </trkpt>
      <trkpt lat="43.07268" lon="1.35682">
        <ele>302.47</ele>
        <time>2017-03-30T10:16:07Z</time>
      </trkpt>
      <trkpt lat="43.07279" lon="1.35682">
        <ele>300.55</ele>
        <time>2017-03-30T10:16:14Z</time>
      </trkpt>
      <trkpt lat="43.0728" lon="1.35681">
        <ele>300.55</ele>
        <time>2017-03-30T10:16:15Z</time>
      </trkpt>
      <trkpt lat="43.07282" lon="1.35681">
        <ele>300.07</ele>
        <time>2017-03-30T10:16:16Z</time>
      </trkpt>
      <trkpt lat="43.07288" lon="1.35679">
        <ele>298.63</ele>
        <time>2017-03-30T10:16:25Z</time>
      </trkpt>
      <trkpt lat="43.07297" lon="1.35684">
        <ele>298.63</ele>
        <time>2017-03-30T10:16:32Z</time>
      </trkpt>
      <trkpt lat="43.07298" lon="1.35683">
        <ele>298.63</ele>
        <time>2017-03-30T10:16:33Z</time>
      </trkpt>
      <trkpt lat="43.073" lon="1.35683">
        <ele>298.63</ele>
        <time>2017-03-30T10:16:34Z</time>
      </trkpt>
      <trkpt lat="43.0732" lon="1.35697">
        <ele>298.15</ele>
        <time>2017-03-30T10:16:50Z</time>
      </trkpt>
      <trkpt lat="43.07325" lon="1.357">
        <ele>298.15</ele>
        <time>2017-03-30T10:17:05Z</time>
      </trkpt>
      <trkpt lat="43.0733" lon="1.3571">
        <ele>297.18</ele>
        <time>2017-03-30T10:17:16Z</time>
      </trkpt>
      <trkpt lat="43.07343" lon="1.35727">
        <ele>296.7</ele>
        <time>2017-03-30T10:17:32Z</time>
      </trkpt>
      <trkpt lat="43.07353" lon="1.35738">
        <ele>296.22</ele>
        <time>2017-03-30T10:17:45Z</time>
      </trkpt>
      <trkpt lat="43.07354" lon="1.35739">
        <ele>296.22</ele>
        <time>2017-03-30T10:17:46Z</time>
      </trkpt>
      <trkpt lat="43.07354" lon="1.3574">
        <ele>296.22</ele>
        <time>2017-03-30T10:17:47Z</time>
      </trkpt>
      <trkpt lat="43.07355" lon="1.35741">
        <ele>296.22</ele>
        <time>2017-03-30T10:17:48Z</time>
      </trkpt>
      <trkpt lat="43.07356" lon="1.35742">
        <ele>296.22</ele>
        <time>2017-03-30T10:17:49Z</time>
      </trkpt>
      <trkpt lat="43.07357" lon="1.35742">
        <ele>296.22</ele>
        <time>2017-03-30T10:17:50Z</time>
      </trkpt>
      <trkpt lat="43.07364" lon="1.35747">
        <ele>296.22</ele>
        <time>2017-03-30T10:17:58Z</time>
      </trkpt>
      <trkpt lat="43.07365" lon="1.35748">
        <ele>296.22</ele>
        <time>2017-03-30T10:17:59Z</time>
      </trkpt>
      <trkpt lat="43.07366" lon="1.35748">
        <ele>296.22</ele>
        <time>2017-03-30T10:18:00Z</time>
      </trkpt>
      <trkpt lat="43.07379" lon="1.35762">
        <ele>294.78</ele>
        <time>2017-03-30T10:18:29Z</time>
      </trkpt>
      <trkpt lat="43.07389" lon="1.35771">
        <ele>294.78</ele>
        <time>2017-03-30T10:18:42Z</time>
      </trkpt>
      <trkpt lat="43.07402" lon="1.35779">
        <ele>294.3</ele>
        <time>2017-03-30T10:18:56Z</time>
      </trkpt>
      <trkpt lat="43.07416" lon="1.35791">
        <ele>293.34</ele>
        <time>2017-03-30T10:19:10Z</time>
      </trkpt>
      <trkpt lat="43.07432" lon="1.35803">
        <ele>293.34</ele>
        <time>2017-03-30T10:19:25Z</time>
      </trkpt>
      <trkpt lat="43.07449" lon="1.35817">
        <ele>293.34</ele>
        <time>2017-03-30T10:19:42Z</time>
      </trkpt>
      <trkpt lat="43.07465" lon="1.35828">
        <ele>292.86</ele>
        <time>2017-03-30T10:19:58Z</time>
      </trkpt>
      <trkpt lat="43.0748" lon="1.35838">
        <ele>293.82</ele>
        <time>2017-03-30T10:20:13Z</time>
      </trkpt>
      <trkpt lat="43.07497" lon="1.35852">
        <ele>293.82</ele>
        <time>2017-03-30T10:20:29Z</time>
      </trkpt>
      <trkpt lat="43.07515" lon="1.35864">
        <ele>294.3</ele>
        <time>2017-03-30T10:20:43Z</time>
      </trkpt>
      <trkpt lat="43.07521" lon="1.35871">
        <ele>294.3</ele>
        <time>2017-03-30T10:20:50Z</time>
      </trkpt>
      <trkpt lat="43.07534" lon="1.3589">
        <ele>293.82</ele>
        <time>2017-03-30T10:21:05Z</time>
      </trkpt>
      <trkpt lat="43.07545" lon="1.35904">
        <ele>293.82</ele>
        <time>2017-03-30T10:21:20Z</time>
      </trkpt>
      <trkpt lat="43.07554" lon="1.35916">
        <ele>293.82</ele>
        <time>2017-03-30T10:21:33Z</time>
      </trkpt>
      <trkpt lat="43.07562" lon="1.35926">
        <ele>293.82</ele>
        <time>2017-03-30T10:21:42Z</time>
      </trkpt>
      <trkpt lat="43.07564" lon="1.35928">
        <ele>293.82</ele>
        <time>2017-03-30T10:21:44Z</time>
      </trkpt>
      <trkpt lat="43.07565" lon="1.3593">
        <ele>293.82</ele>
        <time>2017-03-30T10:21:45Z</time>
      </trkpt>
      <trkpt lat="43.07566" lon="1.35931">
        <ele>293.82</ele>
        <time>2017-03-30T10:21:46Z</time>
      </trkpt>
      <trkpt lat="43.07581" lon="1.35944">
        <ele>293.34</ele>
        <time>2017-03-30T10:22:00Z</time>
      </trkpt>
      <trkpt lat="43.07587" lon="1.35947">
        <ele>292.38</ele>
        <time>2017-03-30T10:22:05Z</time>
      </trkpt>
      <trkpt lat="43.07588" lon="1.35947">
        <ele>292.38</ele>
        <time>2017-03-30T10:22:06Z</time>
      </trkpt>
      <trkpt lat="43.07589" lon="1.35947">
        <ele>292.38</ele>
        <time>2017-03-30T10:22:07Z</time>
      </trkpt>
      <trkpt lat="43.07598" lon="1.35949">
        <ele>291.9</ele>
        <time>2017-03-30T10:22:14Z</time>
      </trkpt>
      <trkpt lat="43.07599" lon="1.35948">
        <ele>291.9</ele>
        <time>2017-03-30T10:22:15Z</time>
      </trkpt>
      <trkpt lat="43.07601" lon="1.35948">
        <ele>291.42</ele>
        <time>2017-03-30T10:22:16Z</time>
      </trkpt>
      <trkpt lat="43.07602" lon="1.35948">
        <ele>291.42</ele>
        <time>2017-03-30T10:22:17Z</time>
      </trkpt>
      <trkpt lat="43.07603" lon="1.35949">
        <ele>291.42</ele>
        <time>2017-03-30T10:22:18Z</time>
      </trkpt>
      <trkpt lat="43.07622" lon="1.35952">
        <ele>290.46</ele>
        <time>2017-03-30T10:22:35Z</time>
      </trkpt>
      <trkpt lat="43.07623" lon="1.35953">
        <ele>290.46</ele>
        <time>2017-03-30T10:22:36Z</time>
      </trkpt>
      <trkpt lat="43.07624" lon="1.35953">
        <ele>290.46</ele>
        <time>2017-03-30T10:22:37Z</time>
      </trkpt>
      <trkpt lat="43.07626" lon="1.35954">
        <ele>289.97</ele>
        <time>2017-03-30T10:22:39Z</time>
      </trkpt>
      <trkpt lat="43.07628" lon="1.35954">
        <ele>289.97</ele>
        <time>2017-03-30T10:22:40Z</time>
      </trkpt>
      <trkpt lat="43.07633" lon="1.35957">
        <ele>289.49</ele>
        <time>2017-03-30T10:22:45Z</time>
      </trkpt>
      <trkpt lat="43.07635" lon="1.35958">
        <ele>289.49</ele>
        <time>2017-03-30T10:22:46Z</time>
      </trkpt>
      <trkpt lat="43.07636" lon="1.35958">
        <ele>289.49</ele>
        <time>2017-03-30T10:22:47Z</time>
      </trkpt>
      <trkpt lat="43.07646" lon="1.35961">
        <ele>288.53</ele>
        <time>2017-03-30T10:22:58Z</time>
      </trkpt>
      <trkpt lat="43.07648" lon="1.3596">
        <ele>288.53</ele>
        <time>2017-03-30T10:22:59Z</time>
      </trkpt>
      <trkpt lat="43.07649" lon="1.35959">
        <ele>288.05</ele>
        <time>2017-03-30T10:23:00Z</time>
      </trkpt>
      <trkpt lat="43.07664" lon="1.35966">
        <ele>287.09</ele>
        <time>2017-03-30T10:23:14Z</time>
      </trkpt>
      <trkpt lat="43.07672" lon="1.35972">
        <ele>286.61</ele>
        <time>2017-03-30T10:23:30Z</time>
      </trkpt>
      <trkpt lat="43.07679" lon="1.35975">
        <ele>286.13</ele>
        <time>2017-03-30T10:23:36Z</time>
      </trkpt>
      <trkpt lat="43.07683" lon="1.35977">
        <ele>286.13</ele>
        <time>2017-03-30T10:23:40Z</time>
      </trkpt>
      <trkpt lat="43.07698" lon="1.3598">
        <ele>285.17</ele>
        <time>2017-03-30T10:23:54Z</time>
      </trkpt>
      <trkpt lat="43.07702" lon="1.35982">
        <ele>284.69</ele>
        <time>2017-03-30T10:23:57Z</time>
      </trkpt>
      <trkpt lat="43.07703" lon="1.35982">
        <ele>284.69</ele>
        <time>2017-03-30T10:23:58Z</time>
      </trkpt>
      <trkpt lat="43.07704" lon="1.35983">
        <ele>284.69</ele>
        <time>2017-03-30T10:23:59Z</time>
      </trkpt>
      <trkpt lat="43.07705" lon="1.35983">
        <ele>284.69</ele>
        <time>2017-03-30T10:24:00Z</time>
      </trkpt>
      <trkpt lat="43.07715" lon="1.35983">
        <ele>284.21</ele>
        <time>2017-03-30T10:24:08Z</time>
      </trkpt>
      <trkpt lat="43.07716" lon="1.35983">
        <ele>283.73</ele>
        <time>2017-03-30T10:24:09Z</time>
      </trkpt>
      <trkpt lat="43.07719" lon="1.35985">
        <ele>283.73</ele>
        <time>2017-03-30T10:24:12Z</time>
      </trkpt>
      <trkpt lat="43.07721" lon="1.35985">
        <ele>283.73</ele>
        <time>2017-03-30T10:24:13Z</time>
      </trkpt>
      <trkpt lat="43.07738" lon="1.35991">
        <ele>282.77</ele>
        <time>2017-03-30T10:24:27Z</time>
      </trkpt>
      <trkpt lat="43.07756" lon="1.35992">
        <ele>282.28</ele>
        <time>2017-03-30T10:24:42Z</time>
      </trkpt>
      <trkpt lat="43.07762" lon="1.35991">
        <ele>281.8</ele>
        <time>2017-03-30T10:25:03Z</time>
      </trkpt>
      <trkpt lat="43.07773" lon="1.35993">
        <ele>280.84</ele>
        <time>2017-03-30T10:25:20Z</time>
      </trkpt>
      <trkpt lat="43.0779" lon="1.36">
        <ele>280.36</ele>
        <time>2017-03-30T10:25:38Z</time>
      </trkpt>
      <trkpt lat="43.07795" lon="1.36001">
        <ele>279.88</ele>
        <time>2017-03-30T10:25:43Z</time>
      </trkpt>
      <trkpt lat="43.07796" lon="1.36001">
        <ele>279.88</ele>
        <time>2017-03-30T10:25:44Z</time>
      </trkpt>
      <trkpt lat="43.07797" lon="1.36001">
        <ele>279.88</ele>
        <time>2017-03-30T10:25:45Z</time>
      </trkpt>
      <trkpt lat="43.07804" lon="1.36003">
        <ele>279.88</ele>
        <time>2017-03-30T10:25:51Z</time>
      </trkpt>
      <trkpt lat="43.07806" lon="1.36005">
        <ele>279.88</ele>
        <time>2017-03-30T10:25:54Z</time>
      </trkpt>
      <trkpt lat="43.07808" lon="1.36005">
        <ele>279.88</ele>
        <time>2017-03-30T10:25:55Z</time>
      </trkpt>
      <trkpt lat="43.07813" lon="1.36007">
        <ele>279.88</ele>
        <time>2017-03-30T10:26:00Z</time>
      </trkpt>
      <trkpt lat="43.07828" lon="1.36008">
        <ele>279.88</ele>
        <time>2017-03-30T10:26:14Z</time>
      </trkpt>
      <trkpt lat="43.07828" lon="1.36005">
        <ele>279.4</ele>
        <time>2017-03-30T10:26:29Z</time>
      </trkpt>
      <trkpt lat="43.07831" lon="1.35997">
        <ele>279.4</ele>
        <time>2017-03-30T10:26:38Z</time>
      </trkpt>
      <trkpt lat="43.07835" lon="1.35989">
        <ele>279.4</ele>
        <time>2017-03-30T10:26:45Z</time>
      </trkpt>
      <trkpt lat="43.07834" lon="1.35987">
        <ele>279.4</ele>
        <time>2017-03-30T10:26:46Z</time>
      </trkpt>
      <trkpt lat="43.07832" lon="1.35973">
        <ele>279.4</ele>
        <time>2017-03-30T10:26:59Z</time>
      </trkpt>
      <trkpt lat="43.07831" lon="1.35967">
        <ele>279.4</ele>
        <time>2017-03-30T10:27:08Z</time>
      </trkpt>
      <trkpt lat="43.07833" lon="1.35969">
        <ele>279.4</ele>
        <time>2017-03-30T10:27:12Z</time>
      </trkpt>
      <trkpt lat="43.07838" lon="1.35974">
        <ele>279.4</ele>
        <time>2017-03-30T10:27:19Z</time>
      </trkpt>
      <trkpt lat="43.07842" lon="1.35977">
        <ele>279.4</ele>
        <time>2017-03-30T10:27:23Z</time>
      </trkpt>
      <trkpt lat="43.07855" lon="1.35979">
        <ele>279.4</ele>
        <time>2017-03-30T10:27:36Z</time>
      </trkpt>
      <trkpt lat="43.0787" lon="1.35983">
        <ele>278.92</ele>
        <time>2017-03-30T10:27:50Z</time>
      </trkpt>
      <trkpt lat="43.07884" lon="1.35987">
        <ele>278.92</ele>
        <time>2017-03-30T10:28:03Z</time>
      </trkpt>
      <trkpt lat="43.07894" lon="1.35991">
        <ele>278.92</ele>
        <time>2017-03-30T10:28:27Z</time>
      </trkpt>
      <trkpt lat="43.07897" lon="1.35991">
        <ele>278.92</ele>
        <time>2017-03-30T10:28:30Z</time>
      </trkpt>
      <trkpt lat="43.07899" lon="1.35992">
        <ele>278.92</ele>
        <time>2017-03-30T10:28:31Z</time>
      </trkpt>
      <trkpt lat="43.079" lon="1.35992">
        <ele>278.92</ele>
        <time>2017-03-30T10:28:32Z</time>
      </trkpt>
      <trkpt lat="43.07924" lon="1.35996">
        <ele>278.44</ele>
        <time>2017-03-30T10:28:50Z</time>
      </trkpt>
      <trkpt lat="43.07938" lon="1.36001">
        <ele>278.44</ele>
        <time>2017-03-30T10:29:04Z</time>
      </trkpt>
      <trkpt lat="43.07939" lon="1.36001">
        <ele>278.44</ele>
        <time>2017-03-30T10:29:05Z</time>
      </trkpt>
      <trkpt lat="43.07959" lon="1.36005">
        <ele>278.44</ele>
        <time>2017-03-30T10:29:22Z</time>
      </trkpt>
      <trkpt lat="43.07975" lon="1.36006">
        <ele>278.44</ele>
        <time>2017-03-30T10:29:35Z</time>
      </trkpt>
      <trkpt lat="43.07986" lon="1.36007">
        <ele>277.96</ele>
        <time>2017-03-30T10:29:51Z</time>
      </trkpt>
      <trkpt lat="43.07991" lon="1.36013">
        <ele>277.96</ele>
        <time>2017-03-30T10:30:12Z</time>
      </trkpt>
      <trkpt lat="43.07992" lon="1.36014">
        <ele>277.96</ele>
        <time>2017-03-30T10:30:13Z</time>
      </trkpt>
      <trkpt lat="43.07992" lon="1.36014">
        <ele>277.48</ele>
        <time>2017-03-30T10:30:14Z</time>
      </trkpt>
      <trkpt lat="43.08003" lon="1.36018">
        <ele>278.44</ele>
        <time>2017-03-30T10:30:29Z</time>
      </trkpt>
      <trkpt lat="43.08008" lon="1.36018">
        <ele>278.44</ele>
        <time>2017-03-30T10:30:44Z</time>
      </trkpt>
      <trkpt lat="43.08011" lon="1.36016">
        <ele>278.44</ele>
        <time>2017-03-30T10:31:07Z</time>
      </trkpt>
      <trkpt lat="43.08014" lon="1.36015">
        <ele>278.92</ele>
        <time>2017-03-30T10:31:24Z</time>
      </trkpt>
    </trkseg>
  </trk>
  <trk>
    <name><![CDATA[Le Mas d' Azil dolmens]]></name>
    <trkseg>
      <trkpt lat="43.08021" lon="1.35087">
        <ele>427.92</ele>
        <time>2017-03-30T11:28:42Z</time>
      </trkpt>
      <trkpt lat="43.0802" lon="1.35093">
        <ele>427.92</ele>
        <time>2017-03-30T11:28:59Z</time>
      </trkpt>
      <trkpt lat="43.08026" lon="1.35099">
        <ele>428.4</ele>
        <time>2017-03-30T11:31:05Z</time>
      </trkpt>
      <trkpt lat="43.08039" lon="1.35086">
        <ele>428.4</ele>
        <time>2017-03-30T11:31:21Z</time>
      </trkpt>
      <trkpt lat="43.08052" lon="1.35077">
        <ele>427.92</ele>
        <time>2017-03-30T11:31:37Z</time>
      </trkpt>
      <trkpt lat="43.0807" lon="1.35069">
        <ele>427.92</ele>
        <time>2017-03-30T11:31:54Z</time>
      </trkpt>
      <trkpt lat="43.08073" lon="1.35069">
        <ele>427.92</ele>
        <time>2017-03-30T11:31:56Z</time>
      </trkpt>
      <trkpt lat="43.08083" lon="1.35068">
        <ele>428.4</ele>
        <time>2017-03-30T11:32:04Z</time>
      </trkpt>
      <trkpt lat="43.08105" lon="1.35069">
        <ele>428.89</ele>
        <time>2017-03-30T11:32:21Z</time>
      </trkpt>
      <trkpt lat="43.08122" lon="1.35072">
        <ele>429.85</ele>
        <time>2017-03-30T11:32:35Z</time>
      </trkpt>
      <trkpt lat="43.08143" lon="1.35076">
        <ele>431.77</ele>
        <time>2017-03-30T11:32:54Z</time>
      </trkpt>
      <trkpt lat="43.08148" lon="1.35079">
        <ele>431.77</ele>
        <time>2017-03-30T11:32:58Z</time>
      </trkpt>
      <trkpt lat="43.08164" lon="1.35081">
        <ele>431.29</ele>
        <time>2017-03-30T11:33:11Z</time>
      </trkpt>
      <trkpt lat="43.0817" lon="1.35082">
        <ele>431.77</ele>
        <time>2017-03-30T11:33:20Z</time>
      </trkpt>
      <trkpt lat="43.08184" lon="1.35083">
        <ele>431.77</ele>
        <time>2017-03-30T11:33:34Z</time>
      </trkpt>
      <trkpt lat="43.08199" lon="1.35082">
        <ele>432.25</ele>
        <time>2017-03-30T11:33:48Z</time>
      </trkpt>
      <trkpt lat="43.08219" lon="1.35084">
        <ele>432.25</ele>
        <time>2017-03-30T11:34:05Z</time>
      </trkpt>
      <trkpt lat="43.08241" lon="1.35086">
        <ele>432.73</ele>
        <time>2017-03-30T11:34:24Z</time>
      </trkpt>
      <trkpt lat="43.08254" lon="1.35085">
        <ele>432.73</ele>
        <time>2017-03-30T11:34:37Z</time>
      </trkpt>
      <trkpt lat="43.08261" lon="1.35086">
        <ele>432.73</ele>
        <time>2017-03-30T11:34:44Z</time>
      </trkpt>
      <trkpt lat="43.08284" lon="1.35092">
        <ele>433.21</ele>
        <time>2017-03-30T11:35:01Z</time>
      </trkpt>
      <trkpt lat="43.08292" lon="1.35095">
        <ele>432.73</ele>
        <time>2017-03-30T11:35:09Z</time>
      </trkpt>
      <trkpt lat="43.08293" lon="1.35095">
        <ele>434.17</ele>
        <time>2017-03-30T11:35:10Z</time>
      </trkpt>
      <trkpt lat="43.08303" lon="1.35098">
        <ele>434.17</ele>
        <time>2017-03-30T11:35:19Z</time>
      </trkpt>
      <trkpt lat="43.0832" lon="1.35105">
        <ele>434.65</ele>
        <time>2017-03-30T11:35:36Z</time>
      </trkpt>
      <trkpt lat="43.08341" lon="1.35108">
        <ele>434.17</ele>
        <time>2017-03-30T11:35:52Z</time>
      </trkpt>
      <trkpt lat="43.08356" lon="1.35112">
        <ele>434.65</ele>
        <time>2017-03-30T11:36:06Z</time>
      </trkpt>
      <trkpt lat="43.08379" lon="1.35117">
        <ele>435.13</ele>
        <time>2017-03-30T11:36:24Z</time>
      </trkpt>
      <trkpt lat="43.08398" lon="1.35117">
        <ele>434.65</ele>
        <time>2017-03-30T11:36:43Z</time>
      </trkpt>
      <trkpt lat="43.08418" lon="1.35118">
        <ele>434.65</ele>
        <time>2017-03-30T11:36:59Z</time>
      </trkpt>
      <trkpt lat="43.08439" lon="1.35114">
        <ele>435.13</ele>
        <time>2017-03-30T11:37:16Z</time>
      </trkpt>
      <trkpt lat="43.08459" lon="1.35112">
        <ele>435.13</ele>
        <time>2017-03-30T11:37:33Z</time>
      </trkpt>
      <trkpt lat="43.08477" lon="1.35111">
        <ele>435.61</ele>
        <time>2017-03-30T11:37:50Z</time>
      </trkpt>
      <trkpt lat="43.08496" lon="1.35113">
        <ele>435.61</ele>
        <time>2017-03-30T11:38:06Z</time>
      </trkpt>
      <trkpt lat="43.08519" lon="1.35119">
        <ele>435.13</ele>
        <time>2017-03-30T11:38:24Z</time>
      </trkpt>
      <trkpt lat="43.08544" lon="1.3512">
        <ele>433.69</ele>
        <time>2017-03-30T11:38:41Z</time>
      </trkpt>
      <trkpt lat="43.08561" lon="1.35116">
        <ele>433.21</ele>
        <time>2017-03-30T11:38:56Z</time>
      </trkpt>
      <trkpt lat="43.08582" lon="1.35103">
        <ele>432.73</ele>
        <time>2017-03-30T11:39:15Z</time>
      </trkpt>
      <trkpt lat="43.08594" lon="1.35097">
        <ele>432.25</ele>
        <time>2017-03-30T11:39:25Z</time>
      </trkpt>
      <trkpt lat="43.08615" lon="1.35079">
        <ele>432.25</ele>
        <time>2017-03-30T11:39:47Z</time>
      </trkpt>
      <trkpt lat="43.08631" lon="1.35064">
        <ele>432.25</ele>
        <time>2017-03-30T11:40:03Z</time>
      </trkpt>
      <trkpt lat="43.08636" lon="1.35061">
        <ele>433.69</ele>
        <time>2017-03-30T11:40:08Z</time>
      </trkpt>
      <trkpt lat="43.08641" lon="1.35058">
        <ele>434.17</ele>
        <time>2017-03-30T11:40:13Z</time>
      </trkpt>
      <trkpt lat="43.08653" lon="1.35051">
        <ele>434.65</ele>
        <time>2017-03-30T11:40:24Z</time>
      </trkpt>
      <trkpt lat="43.08656" lon="1.3505">
        <ele>434.65</ele>
        <time>2017-03-30T11:40:28Z</time>
      </trkpt>
      <trkpt lat="43.08672" lon="1.35043">
        <ele>435.61</ele>
        <time>2017-03-30T11:40:41Z</time>
      </trkpt>
      <trkpt lat="43.0868" lon="1.35042">
        <ele>436.58</ele>
        <time>2017-03-30T11:40:50Z</time>
      </trkpt>
      <trkpt lat="43.08689" lon="1.35045">
        <ele>438.02</ele>
        <time>2017-03-30T11:40:58Z</time>
      </trkpt>
      <trkpt lat="43.08698" lon="1.35057">
        <ele>438.98</ele>
        <time>2017-03-30T11:41:11Z</time>
      </trkpt>
      <trkpt lat="43.08699" lon="1.35058">
        <ele>438.98</ele>
        <time>2017-03-30T11:41:33Z</time>
      </trkpt>
      <trkpt lat="43.08707" lon="1.35063">
        <ele>439.94</ele>
        <time>2017-03-30T11:41:58Z</time>
      </trkpt>
      <trkpt lat="43.08723" lon="1.35061">
        <ele>441.86</ele>
        <time>2017-03-30T11:42:14Z</time>
      </trkpt>
      <trkpt lat="43.08725" lon="1.35062">
        <ele>441.86</ele>
        <time>2017-03-30T11:42:16Z</time>
      </trkpt>
      <trkpt lat="43.08739" lon="1.35061">
        <ele>443.79</ele>
        <time>2017-03-30T11:42:31Z</time>
      </trkpt>
      <trkpt lat="43.08747" lon="1.35059">
        <ele>445.71</ele>
        <time>2017-03-30T11:42:42Z</time>
      </trkpt>
      <trkpt lat="43.08747" lon="1.35047">
        <ele>446.67</ele>
        <time>2017-03-30T11:42:54Z</time>
      </trkpt>
      <trkpt lat="43.08746" lon="1.35043">
        <ele>446.67</ele>
        <time>2017-03-30T11:42:57Z</time>
      </trkpt>
      <trkpt lat="43.08746" lon="1.35036">
        <ele>447.15</ele>
        <time>2017-03-30T11:43:12Z</time>
      </trkpt>
      <trkpt lat="43.08746" lon="1.35034">
        <ele>447.63</ele>
        <time>2017-03-30T11:43:23Z</time>
      </trkpt>
      <trkpt lat="43.08748" lon="1.35027">
        <ele>447.63</ele>
        <time>2017-03-30T11:43:27Z</time>
      </trkpt>
      <trkpt lat="43.08758" lon="1.35002">
        <ele>449.55</ele>
        <time>2017-03-30T11:43:44Z</time>
      </trkpt>
      <trkpt lat="43.08763" lon="1.34989">
        <ele>450.52</ele>
        <time>2017-03-30T11:43:54Z</time>
      </trkpt>
      <trkpt lat="43.08773" lon="1.3497">
        <ele>451.96</ele>
        <time>2017-03-30T11:44:09Z</time>
      </trkpt>
      <trkpt lat="43.08782" lon="1.34948">
        <ele>453.88</ele>
        <time>2017-03-30T11:44:25Z</time>
      </trkpt>
      <trkpt lat="43.08789" lon="1.34926">
        <ele>455.32</ele>
        <time>2017-03-30T11:44:39Z</time>
      </trkpt>
      <trkpt lat="43.08792" lon="1.34906">
        <ele>456.76</ele>
        <time>2017-03-30T11:44:52Z</time>
      </trkpt>
      <trkpt lat="43.08794" lon="1.34907">
        <ele>457.72</ele>
        <time>2017-03-30T11:45:07Z</time>
      </trkpt>
      <trkpt lat="43.08795" lon="1.34905">
        <ele>457.72</ele>
        <time>2017-03-30T11:45:17Z</time>
      </trkpt>
      <trkpt lat="43.088" lon="1.34881">
        <ele>458.69</ele>
        <time>2017-03-30T11:45:33Z</time>
      </trkpt>
      <trkpt lat="43.08803" lon="1.34873">
        <ele>459.17</ele>
        <time>2017-03-30T11:45:39Z</time>
      </trkpt>
      <trkpt lat="43.08813" lon="1.3485">
        <ele>461.57</ele>
        <time>2017-03-30T11:45:57Z</time>
      </trkpt>
      <trkpt lat="43.08816" lon="1.34836">
        <ele>462.53</ele>
        <time>2017-03-30T11:46:08Z</time>
      </trkpt>
      <trkpt lat="43.08818" lon="1.34814">
        <ele>464.45</ele>
        <time>2017-03-30T11:46:24Z</time>
      </trkpt>
      <trkpt lat="43.0882" lon="1.34805">
        <ele>465.42</ele>
        <time>2017-03-30T11:46:31Z</time>
      </trkpt>
      <trkpt lat="43.0883" lon="1.34793">
        <ele>466.86</ele>
        <time>2017-03-30T11:46:45Z</time>
      </trkpt>
      <trkpt lat="43.08837" lon="1.34787">
        <ele>470.22</ele>
        <time>2017-03-30T11:46:59Z</time>
      </trkpt>
      <trkpt lat="43.08847" lon="1.34787">
        <ele>472.63</ele>
        <time>2017-03-30T11:47:12Z</time>
      </trkpt>
      <trkpt lat="43.08856" lon="1.34782">
        <ele>474.55</ele>
        <time>2017-03-30T11:47:25Z</time>
      </trkpt>
      <trkpt lat="43.08867" lon="1.34773">
        <ele>477.43</ele>
        <time>2017-03-30T11:47:39Z</time>
      </trkpt>
      <trkpt lat="43.08875" lon="1.34762">
        <ele>480.32</ele>
        <time>2017-03-30T11:47:54Z</time>
      </trkpt>
      <trkpt lat="43.08882" lon="1.34749">
        <ele>483.68</ele>
        <time>2017-03-30T11:48:09Z</time>
      </trkpt>
      <trkpt lat="43.08888" lon="1.3474">
        <ele>487.05</ele>
        <time>2017-03-30T11:48:23Z</time>
      </trkpt>
      <trkpt lat="43.08895" lon="1.34731">
        <ele>489.93</ele>
        <time>2017-03-30T11:48:37Z</time>
      </trkpt>
      <trkpt lat="43.08901" lon="1.34724">
        <ele>492.81</ele>
        <time>2017-03-30T11:48:54Z</time>
      </trkpt>
      <trkpt lat="43.08904" lon="1.3472">
        <ele>494.26</ele>
        <time>2017-03-30T11:49:14Z</time>
      </trkpt>
      <trkpt lat="43.08909" lon="1.3471">
        <ele>497.62</ele>
        <time>2017-03-30T11:49:28Z</time>
      </trkpt>
      <trkpt lat="43.08914" lon="1.34701">
        <ele>500.98</ele>
        <time>2017-03-30T11:49:44Z</time>
      </trkpt>
      <trkpt lat="43.0892" lon="1.3469">
        <ele>503.87</ele>
        <time>2017-03-30T11:49:59Z</time>
      </trkpt>
      <trkpt lat="43.08925" lon="1.3468">
        <ele>507.23</ele>
        <time>2017-03-30T11:50:13Z</time>
      </trkpt>
      <trkpt lat="43.08931" lon="1.34669">
        <ele>510.12</ele>
        <time>2017-03-30T11:50:27Z</time>
      </trkpt>
      <trkpt lat="43.08937" lon="1.34661">
        <ele>513</ele>
        <time>2017-03-30T11:50:40Z</time>
      </trkpt>
      <trkpt lat="43.08941" lon="1.34652">
        <ele>514.92</ele>
        <time>2017-03-30T11:50:50Z</time>
      </trkpt>
      <trkpt lat="43.08943" lon="1.34648">
        <ele>515.4</ele>
        <time>2017-03-30T11:50:54Z</time>
      </trkpt>
      <trkpt lat="43.08949" lon="1.34631">
        <ele>517.81</ele>
        <time>2017-03-30T11:51:09Z</time>
      </trkpt>
      <trkpt lat="43.08949" lon="1.3463">
        <ele>517.81</ele>
        <time>2017-03-30T11:51:10Z</time>
      </trkpt>
      <trkpt lat="43.08954" lon="1.34613">
        <ele>519.73</ele>
        <time>2017-03-30T11:51:24Z</time>
      </trkpt>
      <trkpt lat="43.08958" lon="1.34607">
        <ele>521.65</ele>
        <time>2017-03-30T11:51:39Z</time>
      </trkpt>
      <trkpt lat="43.08965" lon="1.34585">
        <ele>523.58</ele>
        <time>2017-03-30T11:52:51Z</time>
      </trkpt>
      <trkpt lat="43.08971" lon="1.34571">
        <ele>525.98</ele>
        <time>2017-03-30T11:53:03Z</time>
      </trkpt>
      <trkpt lat="43.08976" lon="1.34556">
        <ele>527.42</ele>
        <time>2017-03-30T11:53:14Z</time>
      </trkpt>
      <trkpt lat="43.08981" lon="1.34544">
        <ele>528.86</ele>
        <time>2017-03-30T11:53:24Z</time>
      </trkpt>
      <trkpt lat="43.08987" lon="1.34519">
        <ele>529.82</ele>
        <time>2017-03-30T11:53:39Z</time>
      </trkpt>
      <trkpt lat="43.08992" lon="1.34497">
        <ele>531.75</ele>
        <time>2017-03-30T11:53:54Z</time>
      </trkpt>
      <trkpt lat="43.08998" lon="1.34473">
        <ele>531.75</ele>
        <time>2017-03-30T11:54:10Z</time>
      </trkpt>
      <trkpt lat="43.09002" lon="1.34449">
        <ele>531.75</ele>
        <time>2017-03-30T11:54:26Z</time>
      </trkpt>
      <trkpt lat="43.09008" lon="1.34432">
        <ele>532.71</ele>
        <time>2017-03-30T11:54:39Z</time>
      </trkpt>
      <trkpt lat="43.0901" lon="1.34427">
        <ele>532.71</ele>
        <time>2017-03-30T11:54:42Z</time>
      </trkpt>
      <trkpt lat="43.09013" lon="1.34406">
        <ele>531.27</ele>
        <time>2017-03-30T11:54:58Z</time>
      </trkpt>
      <trkpt lat="43.09016" lon="1.34394">
        <ele>531.27</ele>
        <time>2017-03-30T11:55:06Z</time>
      </trkpt>
      <trkpt lat="43.09021" lon="1.34381">
        <ele>530.79</ele>
        <time>2017-03-30T11:55:15Z</time>
      </trkpt>
      <trkpt lat="43.09026" lon="1.34358">
        <ele>529.82</ele>
        <time>2017-03-30T11:55:30Z</time>
      </trkpt>
      <trkpt lat="43.09029" lon="1.34334">
        <ele>528.38</ele>
        <time>2017-03-30T11:55:45Z</time>
      </trkpt>
      <trkpt lat="43.0903" lon="1.34322">
        <ele>527.42</ele>
        <time>2017-03-30T11:56:00Z</time>
      </trkpt>
      <trkpt lat="43.09019" lon="1.34326">
        <ele>525.98</ele>
        <time>2017-03-30T11:58:58Z</time>
      </trkpt>
      <trkpt lat="43.09" lon="1.34328">
        <ele>525.98</ele>
        <time>2017-03-30T11:59:13Z</time>
      </trkpt>
      <trkpt lat="43.08986" lon="1.34334">
        <ele>527.9</ele>
        <time>2017-03-30T11:59:28Z</time>
      </trkpt>
      <trkpt lat="43.0897" lon="1.34334">
        <ele>525.98</ele>
        <time>2017-03-30T11:59:41Z</time>
      </trkpt>
      <trkpt lat="43.08959" lon="1.34329">
        <ele>525.5</ele>
        <time>2017-03-30T11:59:52Z</time>
      </trkpt>
      <trkpt lat="43.08949" lon="1.34328">
        <ele>525.02</ele>
        <time>2017-03-30T12:00:01Z</time>
      </trkpt>
      <trkpt lat="43.08932" lon="1.34332">
        <ele>526.46</ele>
        <time>2017-03-30T12:00:14Z</time>
      </trkpt>
      <trkpt lat="43.08914" lon="1.34331">
        <ele>526.94</ele>
        <time>2017-03-30T12:00:30Z</time>
      </trkpt>
      <trkpt lat="43.08901" lon="1.34329">
        <ele>527.9</ele>
        <time>2017-03-30T12:00:43Z</time>
      </trkpt>
      <trkpt lat="43.08892" lon="1.3433">
        <ele>526.46</ele>
        <time>2017-03-30T12:00:53Z</time>
      </trkpt>
      <trkpt lat="43.08885" lon="1.34328">
        <ele>528.38</ele>
        <time>2017-03-30T12:01:04Z</time>
      </trkpt>
      <trkpt lat="43.08876" lon="1.34321">
        <ele>529.34</ele>
        <time>2017-03-30T12:01:16Z</time>
      </trkpt>
      <trkpt lat="43.08877" lon="1.3431">
        <ele>532.23</ele>
        <time>2017-03-30T12:01:29Z</time>
      </trkpt>
      <trkpt lat="43.0888" lon="1.34299">
        <ele>534.15</ele>
        <time>2017-03-30T12:01:42Z</time>
      </trkpt>
      <trkpt lat="43.08884" lon="1.34284">
        <ele>536.55</ele>
        <time>2017-03-30T12:01:57Z</time>
      </trkpt>
      <trkpt lat="43.08889" lon="1.34276">
        <ele>539.44</ele>
        <time>2017-03-30T12:02:09Z</time>
      </trkpt>
      <trkpt lat="43.08894" lon="1.34266">
        <ele>541.36</ele>
        <time>2017-03-30T12:02:23Z</time>
      </trkpt>
      <trkpt lat="43.089" lon="1.34252">
        <ele>543.76</ele>
        <time>2017-03-30T12:02:36Z</time>
      </trkpt>
      <trkpt lat="43.08905" lon="1.34238">
        <ele>546.65</ele>
        <time>2017-03-30T12:02:50Z</time>
      </trkpt>
      <trkpt lat="43.08908" lon="1.34226">
        <ele>549.53</ele>
        <time>2017-03-30T12:03:04Z</time>
      </trkpt>
      <trkpt lat="43.08914" lon="1.34214">
        <ele>551.93</ele>
        <time>2017-03-30T12:03:19Z</time>
      </trkpt>
      <trkpt lat="43.08917" lon="1.34198">
        <ele>554.82</ele>
        <time>2017-03-30T12:03:35Z</time>
      </trkpt>
      <trkpt lat="43.08922" lon="1.34178">
        <ele>556.26</ele>
        <time>2017-03-30T12:03:50Z</time>
      </trkpt>
      <trkpt lat="43.08926" lon="1.34165">
        <ele>557.22</ele>
        <time>2017-03-30T12:04:02Z</time>
      </trkpt>
      <trkpt lat="43.08929" lon="1.34154">
        <ele>558.18</ele>
        <time>2017-03-30T12:04:11Z</time>
      </trkpt>
      <trkpt lat="43.08928" lon="1.34134">
        <ele>559.62</ele>
        <time>2017-03-30T12:04:24Z</time>
      </trkpt>
      <trkpt lat="43.08933" lon="1.34114">
        <ele>560.11</ele>
        <time>2017-03-30T12:04:40Z</time>
      </trkpt>
      <trkpt lat="43.08936" lon="1.34095">
        <ele>561.07</ele>
        <time>2017-03-30T12:04:54Z</time>
      </trkpt>
      <trkpt lat="43.08939" lon="1.34076">
        <ele>561.55</ele>
        <time>2017-03-30T12:05:08Z</time>
      </trkpt>
      <trkpt lat="43.08942" lon="1.34052">
        <ele>561.55</ele>
        <time>2017-03-30T12:05:23Z</time>
      </trkpt>
      <trkpt lat="43.08945" lon="1.34038">
        <ele>560.11</ele>
        <time>2017-03-30T12:05:31Z</time>
      </trkpt>
      <trkpt lat="43.08949" lon="1.34018">
        <ele>559.62</ele>
        <time>2017-03-30T12:05:44Z</time>
      </trkpt>
      <trkpt lat="43.08951" lon="1.34011">
        <ele>559.14</ele>
        <time>2017-03-30T12:05:49Z</time>
      </trkpt>
      <trkpt lat="43.08953" lon="1.34003">
        <ele>558.66</ele>
        <time>2017-03-30T12:05:54Z</time>
      </trkpt>
      <trkpt lat="43.08955" lon="1.33997">
        <ele>558.66</ele>
        <time>2017-03-30T12:05:58Z</time>
      </trkpt>
      <trkpt lat="43.08958" lon="1.33968">
        <ele>557.22</ele>
        <time>2017-03-30T12:06:17Z</time>
      </trkpt>
      <trkpt lat="43.08958" lon="1.3395">
        <ele>557.22</ele>
        <time>2017-03-30T12:06:29Z</time>
      </trkpt>
      <trkpt lat="43.0896" lon="1.33928">
        <ele>557.22</ele>
        <time>2017-03-30T12:06:41Z</time>
      </trkpt>
      <trkpt lat="43.08962" lon="1.33907">
        <ele>557.22</ele>
        <time>2017-03-30T12:06:55Z</time>
      </trkpt>
      <trkpt lat="43.08962" lon="1.33883">
        <ele>557.22</ele>
        <time>2017-03-30T12:07:10Z</time>
      </trkpt>
      <trkpt lat="43.08963" lon="1.33869">
        <ele>557.22</ele>
        <time>2017-03-30T12:07:18Z</time>
      </trkpt>
      <trkpt lat="43.08963" lon="1.33848">
        <ele>557.22</ele>
        <time>2017-03-30T12:07:32Z</time>
      </trkpt>
      <trkpt lat="43.08961" lon="1.33846">
        <ele>558.66</ele>
        <time>2017-03-30T12:07:34Z</time>
      </trkpt>
      <trkpt lat="43.08959" lon="1.33838">
        <ele>560.59</ele>
        <time>2017-03-30T12:07:47Z</time>
      </trkpt>
      <trkpt lat="43.0896" lon="1.33829">
        <ele>560.59</ele>
        <time>2017-03-30T12:08:04Z</time>
      </trkpt>
      <trkpt lat="43.08963" lon="1.3381">
        <ele>561.07</ele>
        <time>2017-03-30T12:08:18Z</time>
      </trkpt>
      <trkpt lat="43.08965" lon="1.33792">
        <ele>561.07</ele>
        <time>2017-03-30T12:08:32Z</time>
      </trkpt>
      <trkpt lat="43.08967" lon="1.33775">
        <ele>562.03</ele>
        <time>2017-03-30T12:08:45Z</time>
      </trkpt>
      <trkpt lat="43.08969" lon="1.33756">
        <ele>562.99</ele>
        <time>2017-03-30T12:08:57Z</time>
      </trkpt>
      <trkpt lat="43.08972" lon="1.33743">
        <ele>563.47</ele>
        <time>2017-03-30T12:09:07Z</time>
      </trkpt>
      <trkpt lat="43.08975" lon="1.33715">
        <ele>564.43</ele>
        <time>2017-03-30T12:09:24Z</time>
      </trkpt>
      <trkpt lat="43.08976" lon="1.33711">
        <ele>564.43</ele>
        <time>2017-03-30T12:09:27Z</time>
      </trkpt>
      <trkpt lat="43.08976" lon="1.33706">
        <ele>564.91</ele>
        <time>2017-03-30T12:09:31Z</time>
      </trkpt>
      <trkpt lat="43.08977" lon="1.33703">
        <ele>565.39</ele>
        <time>2017-03-30T12:09:33Z</time>
      </trkpt>
      <trkpt lat="43.08979" lon="1.33682">
        <ele>565.87</ele>
        <time>2017-03-30T12:09:47Z</time>
      </trkpt>
      <trkpt lat="43.08982" lon="1.33657">
        <ele>567.32</ele>
        <time>2017-03-30T12:10:03Z</time>
      </trkpt>
      <trkpt lat="43.08985" lon="1.33638">
        <ele>568.28</ele>
        <time>2017-03-30T12:10:17Z</time>
      </trkpt>
      <trkpt lat="43.08984" lon="1.33632">
        <ele>568.28</ele>
        <time>2017-03-30T12:10:21Z</time>
      </trkpt>
      <trkpt lat="43.08986" lon="1.33622">
        <ele>568.28</ele>
        <time>2017-03-30T12:10:28Z</time>
      </trkpt>
      <trkpt lat="43.08987" lon="1.33604">
        <ele>568.76</ele>
        <time>2017-03-30T12:10:40Z</time>
      </trkpt>
      <trkpt lat="43.08989" lon="1.33598">
        <ele>568.76</ele>
        <time>2017-03-30T12:10:54Z</time>
      </trkpt>
      <trkpt lat="43.08989" lon="1.33591">
        <ele>569.24</ele>
        <time>2017-03-30T12:11:14Z</time>
      </trkpt>
      <trkpt lat="43.08991" lon="1.33584">
        <ele>569.24</ele>
        <time>2017-03-30T12:11:20Z</time>
      </trkpt>
      <trkpt lat="43.08993" lon="1.33561">
        <ele>569.24</ele>
        <time>2017-03-30T12:11:36Z</time>
      </trkpt>
      <trkpt lat="43.08992" lon="1.33545">
        <ele>569.24</ele>
        <time>2017-03-30T12:11:52Z</time>
      </trkpt>
      <trkpt lat="43.08991" lon="1.33531">
        <ele>567.8</ele>
        <time>2017-03-30T12:12:03Z</time>
      </trkpt>
      <trkpt lat="43.08991" lon="1.3353">
        <ele>567.8</ele>
        <time>2017-03-30T12:12:04Z</time>
      </trkpt>
      <trkpt lat="43.08992" lon="1.33518">
        <ele>567.8</ele>
        <time>2017-03-30T12:12:13Z</time>
      </trkpt>
      <trkpt lat="43.08993" lon="1.33498">
        <ele>566.83</ele>
        <time>2017-03-30T12:12:26Z</time>
      </trkpt>
      <trkpt lat="43.08993" lon="1.33474">
        <ele>565.87</ele>
        <time>2017-03-30T12:12:41Z</time>
      </trkpt>
      <trkpt lat="43.08994" lon="1.33451">
        <ele>565.39</ele>
        <time>2017-03-30T12:12:56Z</time>
      </trkpt>
      <trkpt lat="43.08994" lon="1.33445">
        <ele>564.91</ele>
        <time>2017-03-30T12:13:00Z</time>
      </trkpt>
      <trkpt lat="43.08994" lon="1.33427">
        <ele>564.43</ele>
        <time>2017-03-30T12:13:11Z</time>
      </trkpt>
      <trkpt lat="43.08995" lon="1.3342">
        <ele>564.43</ele>
        <time>2017-03-30T12:13:16Z</time>
      </trkpt>
      <trkpt lat="43.08995" lon="1.33417">
        <ele>564.43</ele>
        <time>2017-03-30T12:13:18Z</time>
      </trkpt>
      <trkpt lat="43.08996" lon="1.33399">
        <ele>563.95</ele>
        <time>2017-03-30T12:13:29Z</time>
      </trkpt>
      <trkpt lat="43.08998" lon="1.33381">
        <ele>563.95</ele>
        <time>2017-03-30T12:13:42Z</time>
      </trkpt>
      <trkpt lat="43.08999" lon="1.3336">
        <ele>563.95</ele>
        <time>2017-03-30T12:13:56Z</time>
      </trkpt>
      <trkpt lat="43.09" lon="1.33348">
        <ele>563.95</ele>
        <time>2017-03-30T12:14:03Z</time>
      </trkpt>
      <trkpt lat="43.09001" lon="1.33328">
        <ele>563.95</ele>
        <time>2017-03-30T12:14:16Z</time>
      </trkpt>
      <trkpt lat="43.09001" lon="1.33321">
        <ele>563.95</ele>
        <time>2017-03-30T12:14:21Z</time>
      </trkpt>
      <trkpt lat="43.08996" lon="1.33312">
        <ele>563.95</ele>
        <time>2017-03-30T12:14:41Z</time>
      </trkpt>
      <trkpt lat="43.08997" lon="1.33301">
        <ele>563.95</ele>
        <time>2017-03-30T12:14:55Z</time>
      </trkpt>
      <trkpt lat="43.08999" lon="1.33292">
        <ele>564.91</ele>
        <time>2017-03-30T12:15:09Z</time>
      </trkpt>
      <trkpt lat="43.09" lon="1.33288">
        <ele>564.91</ele>
        <time>2017-03-30T12:15:20Z</time>
      </trkpt>
      <trkpt lat="43.08997" lon="1.33288">
        <ele>564.91</ele>
        <time>2017-03-30T12:15:35Z</time>
      </trkpt>
      <trkpt lat="43.08993" lon="1.33287">
        <ele>564.91</ele>
        <time>2017-03-30T12:15:47Z</time>
      </trkpt>
      <trkpt lat="43.08995" lon="1.33279">
        <ele>563.95</ele>
        <time>2017-03-30T12:16:26Z</time>
      </trkpt>
      <trkpt lat="43.09" lon="1.33268">
        <ele>563.95</ele>
        <time>2017-03-30T12:16:42Z</time>
      </trkpt>
      <trkpt lat="43.09008" lon="1.33263">
        <ele>562.99</ele>
        <time>2017-03-30T12:16:57Z</time>
      </trkpt>
      <trkpt lat="43.09013" lon="1.33251">
        <ele>562.51</ele>
        <time>2017-03-30T12:17:10Z</time>
      </trkpt>
      <trkpt lat="43.09013" lon="1.33241">
        <ele>562.99</ele>
        <time>2017-03-30T12:17:17Z</time>
      </trkpt>
      <trkpt lat="43.09015" lon="1.33219">
        <ele>561.55</ele>
        <time>2017-03-30T12:17:33Z</time>
      </trkpt>
      <trkpt lat="43.09018" lon="1.33201">
        <ele>561.07</ele>
        <time>2017-03-30T12:17:46Z</time>
      </trkpt>
      <trkpt lat="43.09018" lon="1.33198">
        <ele>561.07</ele>
        <time>2017-03-30T12:17:48Z</time>
      </trkpt>
      <trkpt lat="43.09019" lon="1.33184">
        <ele>560.59</ele>
        <time>2017-03-30T12:17:56Z</time>
      </trkpt>
      <trkpt lat="43.09021" lon="1.33157">
        <ele>560.11</ele>
        <time>2017-03-30T12:18:12Z</time>
      </trkpt>
      <trkpt lat="43.09021" lon="1.33131">
        <ele>559.14</ele>
        <time>2017-03-30T12:18:28Z</time>
      </trkpt>
      <trkpt lat="43.09021" lon="1.33117">
        <ele>558.66</ele>
        <time>2017-03-30T12:18:41Z</time>
      </trkpt>
      <trkpt lat="43.09023" lon="1.33099">
        <ele>558.18</ele>
        <time>2017-03-30T12:18:54Z</time>
      </trkpt>
      <trkpt lat="43.09024" lon="1.33091">
        <ele>558.18</ele>
        <time>2017-03-30T12:19:00Z</time>
      </trkpt>
      <trkpt lat="43.09025" lon="1.33088">
        <ele>558.18</ele>
        <time>2017-03-30T12:19:02Z</time>
      </trkpt>
      <trkpt lat="43.09027" lon="1.3307">
        <ele>558.18</ele>
        <time>2017-03-30T12:19:13Z</time>
      </trkpt>
      <trkpt lat="43.09024" lon="1.33049">
        <ele>558.18</ele>
        <time>2017-03-30T12:19:26Z</time>
      </trkpt>
      <trkpt lat="43.09026" lon="1.33024">
        <ele>559.14</ele>
        <time>2017-03-30T12:19:43Z</time>
      </trkpt>
      <trkpt lat="43.09027" lon="1.33">
        <ele>559.14</ele>
        <time>2017-03-30T12:19:58Z</time>
      </trkpt>
      <trkpt lat="43.09028" lon="1.32971">
        <ele>559.14</ele>
        <time>2017-03-30T12:20:13Z</time>
      </trkpt>
      <trkpt lat="43.09029" lon="1.3295">
        <ele>557.7</ele>
        <time>2017-03-30T12:20:25Z</time>
      </trkpt>
      <trkpt lat="43.0903" lon="1.32938">
        <ele>557.7</ele>
        <time>2017-03-30T12:20:33Z</time>
      </trkpt>
      <trkpt lat="43.0903" lon="1.32935">
        <ele>557.7</ele>
        <time>2017-03-30T12:20:35Z</time>
      </trkpt>
      <trkpt lat="43.09032" lon="1.32911">
        <ele>557.7</ele>
        <time>2017-03-30T12:20:49Z</time>
      </trkpt>
      <trkpt lat="43.09032" lon="1.32899">
        <ele>557.7</ele>
        <time>2017-03-30T12:20:57Z</time>
      </trkpt>
      <trkpt lat="43.09032" lon="1.32876">
        <ele>558.66</ele>
        <time>2017-03-30T12:21:11Z</time>
      </trkpt>
      <trkpt lat="43.09033" lon="1.3286">
        <ele>559.14</ele>
        <time>2017-03-30T12:21:22Z</time>
      </trkpt>
      <trkpt lat="43.09034" lon="1.32844">
        <ele>560.11</ele>
        <time>2017-03-30T12:21:32Z</time>
      </trkpt>
      <trkpt lat="43.09035" lon="1.32835">
        <ele>560.59</ele>
        <time>2017-03-30T12:21:38Z</time>
      </trkpt>
      <trkpt lat="43.09036" lon="1.32825">
        <ele>560.59</ele>
        <time>2017-03-30T12:21:45Z</time>
      </trkpt>
      <trkpt lat="43.09037" lon="1.32803">
        <ele>561.55</ele>
        <time>2017-03-30T12:21:57Z</time>
      </trkpt>
      <trkpt lat="43.09038" lon="1.32786">
        <ele>562.51</ele>
        <time>2017-03-30T12:22:08Z</time>
      </trkpt>
      <trkpt lat="43.09039" lon="1.3277">
        <ele>563.47</ele>
        <time>2017-03-30T12:22:19Z</time>
      </trkpt>
      <trkpt lat="43.0904" lon="1.3275">
        <ele>564.43</ele>
        <time>2017-03-30T12:22:31Z</time>
      </trkpt>
      <trkpt lat="43.0904" lon="1.32742">
        <ele>564.91</ele>
        <time>2017-03-30T12:22:43Z</time>
      </trkpt>
      <trkpt lat="43.0904" lon="1.32743">
        <ele>565.39</ele>
        <time>2017-03-30T12:23:10Z</time>
      </trkpt>
      <trkpt lat="43.09038" lon="1.32733">
        <ele>565.87</ele>
        <time>2017-03-30T12:23:44Z</time>
      </trkpt>
      <trkpt lat="43.0904" lon="1.32715">
        <ele>566.35</ele>
        <time>2017-03-30T12:23:57Z</time>
      </trkpt>
      <trkpt lat="43.09041" lon="1.32697">
        <ele>566.35</ele>
        <time>2017-03-30T12:24:09Z</time>
      </trkpt>
      <trkpt lat="43.09042" lon="1.32673">
        <ele>566.35</ele>
        <time>2017-03-30T12:24:24Z</time>
      </trkpt>
      <trkpt lat="43.09043" lon="1.32654">
        <ele>564.91</ele>
        <time>2017-03-30T12:24:37Z</time>
      </trkpt>
      <trkpt lat="43.09044" lon="1.32634">
        <ele>563.47</ele>
        <time>2017-03-30T12:24:51Z</time>
      </trkpt>
      <trkpt lat="43.09045" lon="1.32612">
        <ele>562.51</ele>
        <time>2017-03-30T12:25:04Z</time>
      </trkpt>
      <trkpt lat="43.09045" lon="1.32606">
        <ele>562.03</ele>
        <time>2017-03-30T12:25:07Z</time>
      </trkpt>
      <trkpt lat="43.09045" lon="1.32584">
        <ele>562.03</ele>
        <time>2017-03-30T12:25:22Z</time>
      </trkpt>
      <trkpt lat="43.09044" lon="1.32564">
        <ele>562.03</ele>
        <time>2017-03-30T12:25:35Z</time>
      </trkpt>
      <trkpt lat="43.09043" lon="1.32541">
        <ele>561.55</ele>
        <time>2017-03-30T12:25:50Z</time>
      </trkpt>
      <trkpt lat="43.09043" lon="1.32534">
        <ele>560.59</ele>
        <time>2017-03-30T12:25:55Z</time>
      </trkpt>
      <trkpt lat="43.09046" lon="1.32513">
        <ele>559.62</ele>
        <time>2017-03-30T12:26:07Z</time>
      </trkpt>
      <trkpt lat="43.09051" lon="1.32502">
        <ele>559.62</ele>
        <time>2017-03-30T12:26:15Z</time>
      </trkpt>
      <trkpt lat="43.09063" lon="1.32487">
        <ele>560.59</ele>
        <time>2017-03-30T12:26:31Z</time>
      </trkpt>
      <trkpt lat="43.09078" lon="1.32477">
        <ele>561.55</ele>
        <time>2017-03-30T12:26:45Z</time>
      </trkpt>
      <trkpt lat="43.09085" lon="1.32475">
        <ele>562.03</ele>
        <time>2017-03-30T12:26:52Z</time>
      </trkpt>
      <trkpt lat="43.091" lon="1.32474">
        <ele>564.43</ele>
        <time>2017-03-30T12:27:08Z</time>
      </trkpt>
      <trkpt lat="43.09113" lon="1.32476">
        <ele>567.32</ele>
        <time>2017-03-30T12:27:21Z</time>
      </trkpt>
      <trkpt lat="43.09124" lon="1.3247">
        <ele>568.28</ele>
        <time>2017-03-30T12:27:34Z</time>
      </trkpt>
      <trkpt lat="43.09131" lon="1.32468">
        <ele>570.68</ele>
        <time>2017-03-30T12:27:47Z</time>
      </trkpt>
      <trkpt lat="43.09133" lon="1.32465">
        <ele>571.16</ele>
        <time>2017-03-30T12:27:50Z</time>
      </trkpt>
      <trkpt lat="43.09135" lon="1.32459">
        <ele>571.16</ele>
        <time>2017-03-30T12:27:55Z</time>
      </trkpt>
      <trkpt lat="43.09135" lon="1.32435">
        <ele>571.16</ele>
        <time>2017-03-30T12:28:11Z</time>
      </trkpt>
      <trkpt lat="43.09135" lon="1.32433">
        <ele>571.16</ele>
        <time>2017-03-30T12:28:12Z</time>
      </trkpt>
      <trkpt lat="43.09135" lon="1.3243">
        <ele>571.16</ele>
        <time>2017-03-30T12:28:14Z</time>
      </trkpt>
      <trkpt lat="43.09136" lon="1.32405">
        <ele>569.24</ele>
        <time>2017-03-30T12:28:30Z</time>
      </trkpt>
      <trkpt lat="43.09136" lon="1.32373">
        <ele>566.83</ele>
        <time>2017-03-30T12:28:49Z</time>
      </trkpt>
      <trkpt lat="43.09136" lon="1.3237">
        <ele>566.83</ele>
        <time>2017-03-30T12:28:51Z</time>
      </trkpt>
      <trkpt lat="43.09137" lon="1.32361">
        <ele>565.87</ele>
        <time>2017-03-30T12:28:56Z</time>
      </trkpt>
      <trkpt lat="43.09137" lon="1.32341">
        <ele>564.91</ele>
        <time>2017-03-30T12:29:09Z</time>
      </trkpt>
      <trkpt lat="43.09137" lon="1.32316">
        <ele>563.47</ele>
        <time>2017-03-30T12:29:24Z</time>
      </trkpt>
      <trkpt lat="43.09137" lon="1.32293">
        <ele>562.51</ele>
        <time>2017-03-30T12:29:38Z</time>
      </trkpt>
      <trkpt lat="43.09137" lon="1.32266">
        <ele>561.07</ele>
        <time>2017-03-30T12:29:54Z</time>
      </trkpt>
      <trkpt lat="43.09139" lon="1.32246">
        <ele>560.59</ele>
        <time>2017-03-30T12:30:06Z</time>
      </trkpt>
      <trkpt lat="43.09144" lon="1.32223">
        <ele>559.62</ele>
        <time>2017-03-30T12:30:20Z</time>
      </trkpt>
      <trkpt lat="43.09145" lon="1.32208">
        <ele>560.11</ele>
        <time>2017-03-30T12:30:29Z</time>
      </trkpt>
      <trkpt lat="43.09148" lon="1.32186">
        <ele>559.62</ele>
        <time>2017-03-30T12:30:43Z</time>
      </trkpt>
      <trkpt lat="43.0915" lon="1.32167">
        <ele>559.14</ele>
        <time>2017-03-30T12:30:55Z</time>
      </trkpt>
      <trkpt lat="43.09152" lon="1.32149">
        <ele>558.66</ele>
        <time>2017-03-30T12:31:08Z</time>
      </trkpt>
      <trkpt lat="43.09153" lon="1.32126">
        <ele>558.18</ele>
        <time>2017-03-30T12:31:22Z</time>
      </trkpt>
      <trkpt lat="43.09153" lon="1.32104">
        <ele>557.7</ele>
        <time>2017-03-30T12:31:36Z</time>
      </trkpt>
      <trkpt lat="43.09154" lon="1.32079">
        <ele>556.74</ele>
        <time>2017-03-30T12:31:51Z</time>
      </trkpt>
      <trkpt lat="43.09153" lon="1.32051">
        <ele>555.78</ele>
        <time>2017-03-30T12:32:07Z</time>
      </trkpt>
      <trkpt lat="43.09152" lon="1.32033">
        <ele>555.3</ele>
        <time>2017-03-30T12:32:18Z</time>
      </trkpt>
      <trkpt lat="43.09152" lon="1.3203">
        <ele>555.3</ele>
        <time>2017-03-30T12:32:20Z</time>
      </trkpt>
      <trkpt lat="43.09151" lon="1.32004">
        <ele>554.34</ele>
        <time>2017-03-30T12:32:35Z</time>
      </trkpt>
      <trkpt lat="43.09151" lon="1.32">
        <ele>554.34</ele>
        <time>2017-03-30T12:32:38Z</time>
      </trkpt>
      <trkpt lat="43.0915" lon="1.31976">
        <ele>552.9</ele>
        <time>2017-03-30T12:32:52Z</time>
      </trkpt>
      <trkpt lat="43.09146" lon="1.31966">
        <ele>552.41</ele>
        <time>2017-03-30T12:33:02Z</time>
      </trkpt>
      <trkpt lat="43.09145" lon="1.31959">
        <ele>551.93</ele>
        <time>2017-03-30T12:33:08Z</time>
      </trkpt>
      <trkpt lat="43.09144" lon="1.31955">
        <ele>550.97</ele>
        <time>2017-03-30T12:33:11Z</time>
      </trkpt>
      <trkpt lat="43.09143" lon="1.31929">
        <ele>550.97</ele>
        <time>2017-03-30T12:33:25Z</time>
      </trkpt>
      <trkpt lat="43.09144" lon="1.31908">
        <ele>549.53</ele>
        <time>2017-03-30T12:33:39Z</time>
      </trkpt>
      <trkpt lat="43.09144" lon="1.31903">
        <ele>549.53</ele>
        <time>2017-03-30T12:33:42Z</time>
      </trkpt>
      <trkpt lat="43.09142" lon="1.31876">
        <ele>549.05</ele>
        <time>2017-03-30T12:33:58Z</time>
      </trkpt>
      <trkpt lat="43.09142" lon="1.31858">
        <ele>548.57</ele>
        <time>2017-03-30T12:34:09Z</time>
      </trkpt>
      <trkpt lat="43.09143" lon="1.31846">
        <ele>548.09</ele>
        <time>2017-03-30T12:34:16Z</time>
      </trkpt>
      <trkpt lat="43.09143" lon="1.31839">
        <ele>548.09</ele>
        <time>2017-03-30T12:34:20Z</time>
      </trkpt>
      <trkpt lat="43.09143" lon="1.3183">
        <ele>548.09</ele>
        <time>2017-03-30T12:34:25Z</time>
      </trkpt>
      <trkpt lat="43.09144" lon="1.31805">
        <ele>548.09</ele>
        <time>2017-03-30T12:34:39Z</time>
      </trkpt>
      <trkpt lat="43.09143" lon="1.31778">
        <ele>548.09</ele>
        <time>2017-03-30T12:34:53Z</time>
      </trkpt>
      <trkpt lat="43.09144" lon="1.31752">
        <ele>548.09</ele>
        <time>2017-03-30T12:35:08Z</time>
      </trkpt>
      <trkpt lat="43.09144" lon="1.31744">
        <ele>548.09</ele>
        <time>2017-03-30T12:35:13Z</time>
      </trkpt>
      <trkpt lat="43.09144" lon="1.31716">
        <ele>548.09</ele>
        <time>2017-03-30T12:35:30Z</time>
      </trkpt>
      <trkpt lat="43.09144" lon="1.31704">
        <ele>548.09</ele>
        <time>2017-03-30T12:35:37Z</time>
      </trkpt>
      <trkpt lat="43.09132" lon="1.31696">
        <ele>546.65</ele>
        <time>2017-03-30T12:35:51Z</time>
      </trkpt>
      <trkpt lat="43.09128" lon="1.31693">
        <ele>546.17</ele>
        <time>2017-03-30T12:35:56Z</time>
      </trkpt>
      <trkpt lat="43.09129" lon="1.31669">
        <ele>545.2</ele>
        <time>2017-03-30T12:36:12Z</time>
      </trkpt>
      <trkpt lat="43.09129" lon="1.31657">
        <ele>545.2</ele>
        <time>2017-03-30T12:36:26Z</time>
      </trkpt>
      <trkpt lat="43.0913" lon="1.31639">
        <ele>545.2</ele>
        <time>2017-03-30T12:36:41Z</time>
      </trkpt>
      <trkpt lat="43.09131" lon="1.31622">
        <ele>545.2</ele>
        <time>2017-03-30T12:36:52Z</time>
      </trkpt>
      <trkpt lat="43.09131" lon="1.31598">
        <ele>544.72</ele>
        <time>2017-03-30T12:37:06Z</time>
      </trkpt>
      <trkpt lat="43.0913" lon="1.31576">
        <ele>544.24</ele>
        <time>2017-03-30T12:37:20Z</time>
      </trkpt>
      <trkpt lat="43.09129" lon="1.31569">
        <ele>543.76</ele>
        <time>2017-03-30T12:37:24Z</time>
      </trkpt>
      <trkpt lat="43.0913" lon="1.31563">
        <ele>544.24</ele>
        <time>2017-03-30T12:37:28Z</time>
      </trkpt>
      <trkpt lat="43.09128" lon="1.31534">
        <ele>543.76</ele>
        <time>2017-03-30T12:37:45Z</time>
      </trkpt>
      <trkpt lat="43.09127" lon="1.31505">
        <ele>543.76</ele>
        <time>2017-03-30T12:38:02Z</time>
      </trkpt>
      <trkpt lat="43.09128" lon="1.31486">
        <ele>543.76</ele>
        <time>2017-03-30T12:38:14Z</time>
      </trkpt>
      <trkpt lat="43.09128" lon="1.31482">
        <ele>543.76</ele>
        <time>2017-03-30T12:38:16Z</time>
      </trkpt>
      <trkpt lat="43.09129" lon="1.31477">
        <ele>543.76</ele>
        <time>2017-03-30T12:38:19Z</time>
      </trkpt>
      <trkpt lat="43.09134" lon="1.31465">
        <ele>545.2</ele>
        <time>2017-03-30T12:38:28Z</time>
      </trkpt>
      <trkpt lat="43.09134" lon="1.31446">
        <ele>545.69</ele>
        <time>2017-03-30T12:38:39Z</time>
      </trkpt>
      <trkpt lat="43.09135" lon="1.31435">
        <ele>545.69</ele>
        <time>2017-03-30T12:38:45Z</time>
      </trkpt>
      <trkpt lat="43.09135" lon="1.31417">
        <ele>545.69</ele>
        <time>2017-03-30T12:38:57Z</time>
      </trkpt>
      <trkpt lat="43.09134" lon="1.31414">
        <ele>545.69</ele>
        <time>2017-03-30T12:38:59Z</time>
      </trkpt>
      <trkpt lat="43.09135" lon="1.31381">
        <ele>546.17</ele>
        <time>2017-03-30T12:39:17Z</time>
      </trkpt>
      <trkpt lat="43.09134" lon="1.31354">
        <ele>546.17</ele>
        <time>2017-03-30T12:39:33Z</time>
      </trkpt>
      <trkpt lat="43.09134" lon="1.31344">
        <ele>546.17</ele>
        <time>2017-03-30T12:39:39Z</time>
      </trkpt>
      <trkpt lat="43.09134" lon="1.31324">
        <ele>546.17</ele>
        <time>2017-03-30T12:39:51Z</time>
      </trkpt>
      <trkpt lat="43.09133" lon="1.31313">
        <ele>546.17</ele>
        <time>2017-03-30T12:39:58Z</time>
      </trkpt>
      <trkpt lat="43.09132" lon="1.31287">
        <ele>544.72</ele>
        <time>2017-03-30T12:40:14Z</time>
      </trkpt>
      <trkpt lat="43.09133" lon="1.31269">
        <ele>544.24</ele>
        <time>2017-03-30T12:40:25Z</time>
      </trkpt>
      <trkpt lat="43.09134" lon="1.3124">
        <ele>544.24</ele>
        <time>2017-03-30T12:40:42Z</time>
      </trkpt>
      <trkpt lat="43.09134" lon="1.3121">
        <ele>543.76</ele>
        <time>2017-03-30T12:41:00Z</time>
      </trkpt>
      <trkpt lat="43.09135" lon="1.31204">
        <ele>543.76</ele>
        <time>2017-03-30T12:41:05Z</time>
      </trkpt>
      <trkpt lat="43.09134" lon="1.31169">
        <ele>543.76</ele>
        <time>2017-03-30T12:41:23Z</time>
      </trkpt>
      <trkpt lat="43.09134" lon="1.31136">
        <ele>543.76</ele>
        <time>2017-03-30T12:41:41Z</time>
      </trkpt>
      <trkpt lat="43.09135" lon="1.31105">
        <ele>543.76</ele>
        <time>2017-03-30T12:41:59Z</time>
      </trkpt>
      <trkpt lat="43.09136" lon="1.31087">
        <ele>543.76</ele>
        <time>2017-03-30T12:42:09Z</time>
      </trkpt>
      <trkpt lat="43.09137" lon="1.31063">
        <ele>545.2</ele>
        <time>2017-03-30T12:42:24Z</time>
      </trkpt>
      <trkpt lat="43.09137" lon="1.31056">
        <ele>545.2</ele>
        <time>2017-03-30T12:42:28Z</time>
      </trkpt>
      <trkpt lat="43.09134" lon="1.31027">
        <ele>546.17</ele>
        <time>2017-03-30T12:42:46Z</time>
      </trkpt>
      <trkpt lat="43.09136" lon="1.31002">
        <ele>547.13</ele>
        <time>2017-03-30T12:43:02Z</time>
      </trkpt>
      <trkpt lat="43.09136" lon="1.30973">
        <ele>548.57</ele>
        <time>2017-03-30T12:43:20Z</time>
      </trkpt>
      <trkpt lat="43.09138" lon="1.30949">
        <ele>549.53</ele>
        <time>2017-03-30T12:43:36Z</time>
      </trkpt>
      <trkpt lat="43.09139" lon="1.30934">
        <ele>550.97</ele>
        <time>2017-03-30T12:43:45Z</time>
      </trkpt>
      <trkpt lat="43.09139" lon="1.30931">
        <ele>550.97</ele>
        <time>2017-03-30T12:43:47Z</time>
      </trkpt>
      <trkpt lat="43.09139" lon="1.30925">
        <ele>550.49</ele>
        <time>2017-03-30T12:43:51Z</time>
      </trkpt>
      <trkpt lat="43.09142" lon="1.309">
        <ele>552.41</ele>
        <time>2017-03-30T12:44:07Z</time>
      </trkpt>
      <trkpt lat="43.0915" lon="1.30891">
        <ele>554.82</ele>
        <time>2017-03-30T12:44:18Z</time>
      </trkpt>
      <trkpt lat="43.09159" lon="1.30898">
        <ele>557.22</ele>
        <time>2017-03-30T12:44:32Z</time>
      </trkpt>
      <trkpt lat="43.09164" lon="1.30907">
        <ele>558.66</ele>
        <time>2017-03-30T12:44:46Z</time>
      </trkpt>
      <trkpt lat="43.09167" lon="1.30907">
        <ele>558.66</ele>
        <time>2017-03-30T12:44:51Z</time>
      </trkpt>
      <trkpt lat="43.0917" lon="1.30906">
        <ele>557.7</ele>
        <time>2017-03-30T12:44:53Z</time>
      </trkpt>
      <trkpt lat="43.09184" lon="1.30907">
        <ele>556.26</ele>
        <time>2017-03-30T12:45:06Z</time>
      </trkpt>
      <trkpt lat="43.09199" lon="1.30898">
        <ele>555.78</ele>
        <time>2017-03-30T12:45:22Z</time>
      </trkpt>
      <trkpt lat="43.092" lon="1.30886">
        <ele>557.22</ele>
        <time>2017-03-30T12:45:31Z</time>
      </trkpt>
      <trkpt lat="43.09201" lon="1.30865">
        <ele>559.14</ele>
        <time>2017-03-30T12:45:46Z</time>
      </trkpt>
      <trkpt lat="43.09202" lon="1.30843">
        <ele>560.11</ele>
        <time>2017-03-30T12:46:01Z</time>
      </trkpt>
      <trkpt lat="43.092" lon="1.3083">
        <ele>560.11</ele>
        <time>2017-03-30T12:46:09Z</time>
      </trkpt>
      <trkpt lat="43.09201" lon="1.30823">
        <ele>560.11</ele>
        <time>2017-03-30T12:46:13Z</time>
      </trkpt>
      <trkpt lat="43.09206" lon="1.30797">
        <ele>561.07</ele>
        <time>2017-03-30T12:46:28Z</time>
      </trkpt>
      <trkpt lat="43.09211" lon="1.30783">
        <ele>562.03</ele>
        <time>2017-03-30T12:46:39Z</time>
      </trkpt>
      <trkpt lat="43.09212" lon="1.30779">
        <ele>562.03</ele>
        <time>2017-03-30T12:46:41Z</time>
      </trkpt>
      <trkpt lat="43.09213" lon="1.30759">
        <ele>562.51</ele>
        <time>2017-03-30T12:46:55Z</time>
      </trkpt>
      <trkpt lat="43.09211" lon="1.30754">
        <ele>562.99</ele>
        <time>2017-03-30T12:47:17Z</time>
      </trkpt>
      <trkpt lat="43.0921" lon="1.30744">
        <ele>563.47</ele>
        <time>2017-03-30T12:47:41Z</time>
      </trkpt>
      <trkpt lat="43.09207" lon="1.30728">
        <ele>564.43</ele>
        <time>2017-03-30T12:47:54Z</time>
      </trkpt>
      <trkpt lat="43.09205" lon="1.30702">
        <ele>562.51</ele>
        <time>2017-03-30T12:48:25Z</time>
      </trkpt>
      <trkpt lat="43.09205" lon="1.30692">
        <ele>566.35</ele>
        <time>2017-03-30T12:54:36Z</time>
      </trkpt>
      <trkpt lat="43.09206" lon="1.30675">
        <ele>568.76</ele>
        <time>2017-03-30T12:54:50Z</time>
      </trkpt>
      <trkpt lat="43.09212" lon="1.30662">
        <ele>570.68</ele>
        <time>2017-03-30T12:55:01Z</time>
      </trkpt>
      <trkpt lat="43.09217" lon="1.30643">
        <ele>570.68</ele>
        <time>2017-03-30T12:55:16Z</time>
      </trkpt>
      <trkpt lat="43.09218" lon="1.30624">
        <ele>570.68</ele>
        <time>2017-03-30T12:55:29Z</time>
      </trkpt>
      <trkpt lat="43.09219" lon="1.3061">
        <ele>570.68</ele>
        <time>2017-03-30T12:55:39Z</time>
      </trkpt>
      <trkpt lat="43.09219" lon="1.30594">
        <ele>570.68</ele>
        <time>2017-03-30T12:55:50Z</time>
      </trkpt>
      <trkpt lat="43.0922" lon="1.30585">
        <ele>570.68</ele>
        <time>2017-03-30T12:55:57Z</time>
      </trkpt>
      <trkpt lat="43.09221" lon="1.30564">
        <ele>570.68</ele>
        <time>2017-03-30T12:56:11Z</time>
      </trkpt>
      <trkpt lat="43.09225" lon="1.30551">
        <ele>570.68</ele>
        <time>2017-03-30T12:56:28Z</time>
      </trkpt>
      <trkpt lat="43.09222" lon="1.30539">
        <ele>570.68</ele>
        <time>2017-03-30T12:56:42Z</time>
      </trkpt>
      <trkpt lat="43.09225" lon="1.30509">
        <ele>570.68</ele>
        <time>2017-03-30T12:57:03Z</time>
      </trkpt>
      <trkpt lat="43.09225" lon="1.30486">
        <ele>571.64</ele>
        <time>2017-03-30T12:57:18Z</time>
      </trkpt>
      <trkpt lat="43.09225" lon="1.3048">
        <ele>572.12</ele>
        <time>2017-03-30T12:57:22Z</time>
      </trkpt>
      <trkpt lat="43.09226" lon="1.30471">
        <ele>572.6</ele>
        <time>2017-03-30T12:57:28Z</time>
      </trkpt>
      <trkpt lat="43.09228" lon="1.30441">
        <ele>574.04</ele>
        <time>2017-03-30T12:57:46Z</time>
      </trkpt>
      <trkpt lat="43.0923" lon="1.30433">
        <ele>574.04</ele>
        <time>2017-03-30T12:58:01Z</time>
      </trkpt>
      <trkpt lat="43.09229" lon="1.30425">
        <ele>574.04</ele>
        <time>2017-03-30T12:58:18Z</time>
      </trkpt>
      <trkpt lat="43.0923" lon="1.30403">
        <ele>574.04</ele>
        <time>2017-03-30T12:58:33Z</time>
      </trkpt>
      <trkpt lat="43.09231" lon="1.30397">
        <ele>574.04</ele>
        <time>2017-03-30T12:58:36Z</time>
      </trkpt>
      <trkpt lat="43.09231" lon="1.30391">
        <ele>575.01</ele>
        <time>2017-03-30T12:58:40Z</time>
      </trkpt>
      <trkpt lat="43.09231" lon="1.30362">
        <ele>575.97</ele>
        <time>2017-03-30T12:58:57Z</time>
      </trkpt>
      <trkpt lat="43.09231" lon="1.30344">
        <ele>576.45</ele>
        <time>2017-03-30T12:59:08Z</time>
      </trkpt>
      <trkpt lat="43.09231" lon="1.30341">
        <ele>576.45</ele>
        <time>2017-03-30T12:59:10Z</time>
      </trkpt>
      <trkpt lat="43.09231" lon="1.30312">
        <ele>577.89</ele>
        <time>2017-03-30T12:59:28Z</time>
      </trkpt>
      <trkpt lat="43.0923" lon="1.30309">
        <ele>578.37</ele>
        <time>2017-03-30T12:59:30Z</time>
      </trkpt>
      <trkpt lat="43.09233" lon="1.30293">
        <ele>578.37</ele>
        <time>2017-03-30T12:59:40Z</time>
      </trkpt>
      <trkpt lat="43.09233" lon="1.30274">
        <ele>579.33</ele>
        <time>2017-03-30T12:59:51Z</time>
      </trkpt>
      <trkpt lat="43.09235" lon="1.30246">
        <ele>579.81</ele>
        <time>2017-03-30T13:00:08Z</time>
      </trkpt>
      <trkpt lat="43.09236" lon="1.30217">
        <ele>577.89</ele>
        <time>2017-03-30T13:00:25Z</time>
      </trkpt>
      <trkpt lat="43.09239" lon="1.30195">
        <ele>577.41</ele>
        <time>2017-03-30T13:00:39Z</time>
      </trkpt>
      <trkpt lat="43.09241" lon="1.30173">
        <ele>575.49</ele>
        <time>2017-03-30T13:00:53Z</time>
      </trkpt>
      <trkpt lat="43.09236" lon="1.3015">
        <ele>573.56</ele>
        <time>2017-03-30T13:01:08Z</time>
      </trkpt>
      <trkpt lat="43.09235" lon="1.30137">
        <ele>573.56</ele>
        <time>2017-03-30T13:01:16Z</time>
      </trkpt>
      <trkpt lat="43.09238" lon="1.30111">
        <ele>573.56</ele>
        <time>2017-03-30T13:01:32Z</time>
      </trkpt>
      <trkpt lat="43.09239" lon="1.3008">
        <ele>573.56</ele>
        <time>2017-03-30T13:01:50Z</time>
      </trkpt>
      <trkpt lat="43.09239" lon="1.30063">
        <ele>575.97</ele>
        <time>2017-03-30T13:02:01Z</time>
      </trkpt>
      <trkpt lat="43.09234" lon="1.30053">
        <ele>577.89</ele>
        <time>2017-03-30T13:02:14Z</time>
      </trkpt>
      <trkpt lat="43.09232" lon="1.30049">
        <ele>577.89</ele>
        <time>2017-03-30T13:02:17Z</time>
      </trkpt>
      <trkpt lat="43.09231" lon="1.30023">
        <ele>577.89</ele>
        <time>2017-03-30T13:02:33Z</time>
      </trkpt>
      <trkpt lat="43.09233" lon="1.30007">
        <ele>578.37</ele>
        <time>2017-03-30T13:02:43Z</time>
      </trkpt>
      <trkpt lat="43.09233" lon="1.29997">
        <ele>578.37</ele>
        <time>2017-03-30T13:02:49Z</time>
      </trkpt>
      <trkpt lat="43.09233" lon="1.29964">
        <ele>578.37</ele>
        <time>2017-03-30T13:03:08Z</time>
      </trkpt>
      <trkpt lat="43.09235" lon="1.2994">
        <ele>578.37</ele>
        <time>2017-03-30T13:03:23Z</time>
      </trkpt>
      <trkpt lat="43.09236" lon="1.29911">
        <ele>578.37</ele>
        <time>2017-03-30T13:03:40Z</time>
      </trkpt>
      <trkpt lat="43.09237" lon="1.29881">
        <ele>577.89</ele>
        <time>2017-03-30T13:03:58Z</time>
      </trkpt>
      <trkpt lat="43.09237" lon="1.29854">
        <ele>576.93</ele>
        <time>2017-03-30T13:04:14Z</time>
      </trkpt>
      <trkpt lat="43.09238" lon="1.29825">
        <ele>575.49</ele>
        <time>2017-03-30T13:04:32Z</time>
      </trkpt>
      <trkpt lat="43.09239" lon="1.29801">
        <ele>574.53</ele>
        <time>2017-03-30T13:04:47Z</time>
      </trkpt>
      <trkpt lat="43.09239" lon="1.29774">
        <ele>574.53</ele>
        <time>2017-03-30T13:05:03Z</time>
      </trkpt>
      <trkpt lat="43.09242" lon="1.29763">
        <ele>574.53</ele>
        <time>2017-03-30T13:05:20Z</time>
      </trkpt>
      <trkpt lat="43.09245" lon="1.29761">
        <ele>574.04</ele>
        <time>2017-03-30T13:05:35Z</time>
      </trkpt>
      <trkpt lat="43.09245" lon="1.29762">
        <ele>574.04</ele>
        <time>2017-03-30T13:05:59Z</time>
      </trkpt>
      <trkpt lat="43.09246" lon="1.29766">
        <ele>573.56</ele>
        <time>2017-03-30T13:06:39Z</time>
      </trkpt>
      <trkpt lat="43.09248" lon="1.2976">
        <ele>573.56</ele>
        <time>2017-03-30T13:07:06Z</time>
      </trkpt>
      <trkpt lat="43.09239" lon="1.29747">
        <ele>573.08</ele>
        <time>2017-03-30T13:07:21Z</time>
      </trkpt>
      <trkpt lat="43.09236" lon="1.29723">
        <ele>573.08</ele>
        <time>2017-03-30T13:07:36Z</time>
      </trkpt>
      <trkpt lat="43.09233" lon="1.29697">
        <ele>573.08</ele>
        <time>2017-03-30T13:07:52Z</time>
      </trkpt>
      <trkpt lat="43.09234" lon="1.29677">
        <ele>573.08</ele>
        <time>2017-03-30T13:08:07Z</time>
      </trkpt>
      <trkpt lat="43.09239" lon="1.29652">
        <ele>573.08</ele>
        <time>2017-03-30T13:08:21Z</time>
      </trkpt>
      <trkpt lat="43.09237" lon="1.29636">
        <ele>574.53</ele>
        <time>2017-03-30T13:08:32Z</time>
      </trkpt>
      <trkpt lat="43.09239" lon="1.29619">
        <ele>575.97</ele>
        <time>2017-03-30T13:08:43Z</time>
      </trkpt>
      <trkpt lat="43.0924" lon="1.29613">
        <ele>575.97</ele>
        <time>2017-03-30T13:08:47Z</time>
      </trkpt>
      <trkpt lat="43.09238" lon="1.29591">
        <ele>577.41</ele>
        <time>2017-03-30T13:09:02Z</time>
      </trkpt>
      <trkpt lat="43.09238" lon="1.29566">
        <ele>577.89</ele>
        <time>2017-03-30T13:09:17Z</time>
      </trkpt>
      <trkpt lat="43.09238" lon="1.29547">
        <ele>577.89</ele>
        <time>2017-03-30T13:09:30Z</time>
      </trkpt>
      <trkpt lat="43.0924" lon="1.29523">
        <ele>578.85</ele>
        <time>2017-03-30T13:09:43Z</time>
      </trkpt>
      <trkpt lat="43.09235" lon="1.29496">
        <ele>578.85</ele>
        <time>2017-03-30T13:10:01Z</time>
      </trkpt>
      <trkpt lat="43.09238" lon="1.29472">
        <ele>578.85</ele>
        <time>2017-03-30T13:10:15Z</time>
      </trkpt>
      <trkpt lat="43.09239" lon="1.29448">
        <ele>576.93</ele>
        <time>2017-03-30T13:10:29Z</time>
      </trkpt>
      <trkpt lat="43.09237" lon="1.2942">
        <ele>575.49</ele>
        <time>2017-03-30T13:10:45Z</time>
      </trkpt>
      <trkpt lat="43.09238" lon="1.29401">
        <ele>574.53</ele>
        <time>2017-03-30T13:10:57Z</time>
      </trkpt>
      <trkpt lat="43.0924" lon="1.29376">
        <ele>573.08</ele>
        <time>2017-03-30T13:11:12Z</time>
      </trkpt>
      <trkpt lat="43.09237" lon="1.29357">
        <ele>570.68</ele>
        <time>2017-03-30T13:11:26Z</time>
      </trkpt>
      <trkpt lat="43.09236" lon="1.29338">
        <ele>568.76</ele>
        <time>2017-03-30T13:11:39Z</time>
      </trkpt>
      <trkpt lat="43.09235" lon="1.29316">
        <ele>566.35</ele>
        <time>2017-03-30T13:11:52Z</time>
      </trkpt>
      <trkpt lat="43.09233" lon="1.29297">
        <ele>566.35</ele>
        <time>2017-03-30T13:12:06Z</time>
      </trkpt>
      <trkpt lat="43.09232" lon="1.2928">
        <ele>565.87</ele>
        <time>2017-03-30T13:12:21Z</time>
      </trkpt>
      <trkpt lat="43.09232" lon="1.29271">
        <ele>564.91</ele>
        <time>2017-03-30T13:12:40Z</time>
      </trkpt>
      <trkpt lat="43.0923" lon="1.29254">
        <ele>563.95</ele>
        <time>2017-03-30T13:12:53Z</time>
      </trkpt>
      <trkpt lat="43.09231" lon="1.29233">
        <ele>562.03</ele>
        <time>2017-03-30T13:13:08Z</time>
      </trkpt>
      <trkpt lat="43.0923" lon="1.29219">
        <ele>561.07</ele>
        <time>2017-03-30T13:13:23Z</time>
      </trkpt>
      <trkpt lat="43.0923" lon="1.29196">
        <ele>560.11</ele>
        <time>2017-03-30T13:13:37Z</time>
      </trkpt>
      <trkpt lat="43.0923" lon="1.29169">
        <ele>560.11</ele>
        <time>2017-03-30T13:13:53Z</time>
      </trkpt>
      <trkpt lat="43.09229" lon="1.29147">
        <ele>560.11</ele>
        <time>2017-03-30T13:14:07Z</time>
      </trkpt>
      <trkpt lat="43.09232" lon="1.29128">
        <ele>559.62</ele>
        <time>2017-03-30T13:14:19Z</time>
      </trkpt>
      <trkpt lat="43.09233" lon="1.29107">
        <ele>559.14</ele>
        <time>2017-03-30T13:14:34Z</time>
      </trkpt>
      <trkpt lat="43.09237" lon="1.29087">
        <ele>559.14</ele>
        <time>2017-03-30T13:14:44Z</time>
      </trkpt>
      <trkpt lat="43.09241" lon="1.29071">
        <ele>558.18</ele>
        <time>2017-03-30T13:14:57Z</time>
      </trkpt>
      <trkpt lat="43.09247" lon="1.29047">
        <ele>557.22</ele>
        <time>2017-03-30T13:15:11Z</time>
      </trkpt>
      <trkpt lat="43.09248" lon="1.29044">
        <ele>557.22</ele>
        <time>2017-03-30T13:15:13Z</time>
      </trkpt>
      <trkpt lat="43.09252" lon="1.29034">
        <ele>557.22</ele>
        <time>2017-03-30T13:15:25Z</time>
      </trkpt>
      <trkpt lat="43.09257" lon="1.29008">
        <ele>556.26</ele>
        <time>2017-03-30T13:15:39Z</time>
      </trkpt>
      <trkpt lat="43.09257" lon="1.28999">
        <ele>555.78</ele>
        <time>2017-03-30T13:15:53Z</time>
      </trkpt>
      <trkpt lat="43.09259" lon="1.28981">
        <ele>555.3</ele>
        <time>2017-03-30T13:16:05Z</time>
      </trkpt>
      <trkpt lat="43.09262" lon="1.28968">
        <ele>554.34</ele>
        <time>2017-03-30T13:16:17Z</time>
      </trkpt>
      <trkpt lat="43.09262" lon="1.28965">
        <ele>554.34</ele>
        <time>2017-03-30T13:16:20Z</time>
      </trkpt>
      <trkpt lat="43.09267" lon="1.28941">
        <ele>552.9</ele>
        <time>2017-03-30T13:16:34Z</time>
      </trkpt>
      <trkpt lat="43.09268" lon="1.28921">
        <ele>551.93</ele>
        <time>2017-03-30T13:16:48Z</time>
      </trkpt>
      <trkpt lat="43.09272" lon="1.28903">
        <ele>551.45</ele>
        <time>2017-03-30T13:17:00Z</time>
      </trkpt>
      <trkpt lat="43.09273" lon="1.28897">
        <ele>550.97</ele>
        <time>2017-03-30T13:17:04Z</time>
      </trkpt>
      <trkpt lat="43.09273" lon="1.28873">
        <ele>550.01</ele>
        <time>2017-03-30T13:17:18Z</time>
      </trkpt>
      <trkpt lat="43.09275" lon="1.28858">
        <ele>549.53</ele>
        <time>2017-03-30T13:17:29Z</time>
      </trkpt>
      <trkpt lat="43.09277" lon="1.28841">
        <ele>549.53</ele>
        <time>2017-03-30T13:17:41Z</time>
      </trkpt>
      <trkpt lat="43.09276" lon="1.28816">
        <ele>548.57</ele>
        <time>2017-03-30T13:17:55Z</time>
      </trkpt>
      <trkpt lat="43.09275" lon="1.288">
        <ele>548.09</ele>
        <time>2017-03-30T13:18:09Z</time>
      </trkpt>
      <trkpt lat="43.09276" lon="1.28796">
        <ele>548.09</ele>
        <time>2017-03-30T13:18:25Z</time>
      </trkpt>
      <trkpt lat="43.09268" lon="1.28794">
        <ele>551.45</ele>
        <time>2017-03-30T13:18:38Z</time>
      </trkpt>
      <trkpt lat="43.09259" lon="1.28797">
        <ele>553.86</ele>
        <time>2017-03-30T13:18:53Z</time>
      </trkpt>
      <trkpt lat="43.09251" lon="1.28805">
        <ele>557.22</ele>
        <time>2017-03-30T13:19:09Z</time>
      </trkpt>
      <trkpt lat="43.09243" lon="1.28811">
        <ele>560.11</ele>
        <time>2017-03-30T13:19:22Z</time>
      </trkpt>
      <trkpt lat="43.09239" lon="1.28818">
        <ele>560.11</ele>
        <time>2017-03-30T13:19:34Z</time>
      </trkpt>
      <trkpt lat="43.09227" lon="1.2882">
        <ele>562.03</ele>
        <time>2017-03-30T13:19:50Z</time>
      </trkpt>
      <trkpt lat="43.09224" lon="1.28819">
        <ele>562.51</ele>
        <time>2017-03-30T13:20:11Z</time>
      </trkpt>
      <trkpt lat="43.09212" lon="1.28821">
        <ele>562.99</ele>
        <time>2017-03-30T13:20:25Z</time>
      </trkpt>
      <trkpt lat="43.09199" lon="1.28825">
        <ele>565.39</ele>
        <time>2017-03-30T13:20:39Z</time>
      </trkpt>
      <trkpt lat="43.09182" lon="1.28836">
        <ele>568.28</ele>
        <time>2017-03-30T13:20:54Z</time>
      </trkpt>
      <trkpt lat="43.09178" lon="1.28839">
        <ele>569.24</ele>
        <time>2017-03-30T13:20:59Z</time>
      </trkpt>
      <trkpt lat="43.09171" lon="1.28844">
        <ele>570.2</ele>
        <time>2017-03-30T13:21:13Z</time>
      </trkpt>
      <trkpt lat="43.09157" lon="1.28857">
        <ele>569.24</ele>
        <time>2017-03-30T13:21:28Z</time>
      </trkpt>
      <trkpt lat="43.09156" lon="1.28858">
        <ele>569.24</ele>
        <time>2017-03-30T13:21:29Z</time>
      </trkpt>
      <trkpt lat="43.09143" lon="1.28865">
        <ele>568.28</ele>
        <time>2017-03-30T13:21:41Z</time>
      </trkpt>
      <trkpt lat="43.09135" lon="1.28863">
        <ele>567.32</ele>
        <time>2017-03-30T13:21:57Z</time>
      </trkpt>
      <trkpt lat="43.09124" lon="1.28864">
        <ele>566.83</ele>
        <time>2017-03-30T13:22:17Z</time>
      </trkpt>
      <trkpt lat="43.0911" lon="1.28861">
        <ele>565.39</ele>
        <time>2017-03-30T13:22:32Z</time>
      </trkpt>
      <trkpt lat="43.09109" lon="1.28862">
        <ele>565.39</ele>
        <time>2017-03-30T13:22:34Z</time>
      </trkpt>
      <trkpt lat="43.09107" lon="1.28863">
        <ele>564.43</ele>
        <time>2017-03-30T13:22:36Z</time>
      </trkpt>
      <trkpt lat="43.09098" lon="1.28874">
        <ele>562.99</ele>
        <time>2017-03-30T13:22:51Z</time>
      </trkpt>
      <trkpt lat="43.09091" lon="1.28883">
        <ele>560.59</ele>
        <time>2017-03-30T13:23:03Z</time>
      </trkpt>
      <trkpt lat="43.09087" lon="1.28887">
        <ele>560.11</ele>
        <time>2017-03-30T13:23:15Z</time>
      </trkpt>
      <trkpt lat="43.0908" lon="1.28893">
        <ele>559.14</ele>
        <time>2017-03-30T13:23:31Z</time>
      </trkpt>
      <trkpt lat="43.09072" lon="1.28901">
        <ele>557.7</ele>
        <time>2017-03-30T13:23:45Z</time>
      </trkpt>
      <trkpt lat="43.0907" lon="1.28903">
        <ele>557.7</ele>
        <time>2017-03-30T13:23:57Z</time>
      </trkpt>
      <trkpt lat="43.0907" lon="1.28903">
        <ele>557.7</ele>
        <time>2017-03-30T13:24:00Z</time>
      </trkpt>
      <trkpt lat="43.09065" lon="1.28906">
        <ele>557.22</ele>
        <time>2017-03-30T13:24:05Z</time>
      </trkpt>
      <trkpt lat="43.09053" lon="1.289">
        <ele>555.78</ele>
        <time>2017-03-30T13:24:17Z</time>
      </trkpt>
      <trkpt lat="43.09044" lon="1.28895">
        <ele>553.38</ele>
        <time>2017-03-30T13:24:28Z</time>
      </trkpt>
      <trkpt lat="43.09034" lon="1.28897">
        <ele>550.97</ele>
        <time>2017-03-30T13:24:39Z</time>
      </trkpt>
      <trkpt lat="43.09022" lon="1.28903">
        <ele>547.61</ele>
        <time>2017-03-30T13:24:52Z</time>
      </trkpt>
      <trkpt lat="43.09012" lon="1.28895">
        <ele>544.24</ele>
        <time>2017-03-30T13:25:07Z</time>
      </trkpt>
      <trkpt lat="43.09008" lon="1.28885">
        <ele>541.84</ele>
        <time>2017-03-30T13:25:15Z</time>
      </trkpt>
      <trkpt lat="43.08999" lon="1.28863">
        <ele>538.96</ele>
        <time>2017-03-30T13:25:31Z</time>
      </trkpt>
      <trkpt lat="43.08994" lon="1.28844">
        <ele>535.59</ele>
        <time>2017-03-30T13:25:45Z</time>
      </trkpt>
      <trkpt lat="43.08991" lon="1.28824">
        <ele>533.19</ele>
        <time>2017-03-30T13:25:59Z</time>
      </trkpt>
      <trkpt lat="43.08987" lon="1.28807">
        <ele>529.82</ele>
        <time>2017-03-30T13:26:13Z</time>
      </trkpt>
      <trkpt lat="43.0898" lon="1.28786">
        <ele>526.46</ele>
        <time>2017-03-30T13:26:28Z</time>
      </trkpt>
      <trkpt lat="43.08977" lon="1.28773">
        <ele>523.58</ele>
        <time>2017-03-30T13:26:40Z</time>
      </trkpt>
      <trkpt lat="43.08973" lon="1.28758">
        <ele>519.73</ele>
        <time>2017-03-30T13:26:54Z</time>
      </trkpt>
      <trkpt lat="43.08967" lon="1.28745">
        <ele>516.85</ele>
        <time>2017-03-30T13:27:07Z</time>
      </trkpt>
      <trkpt lat="43.08962" lon="1.2874">
        <ele>514.92</ele>
        <time>2017-03-30T13:27:14Z</time>
      </trkpt>
      <trkpt lat="43.08952" lon="1.28726">
        <ele>512.04</ele>
        <time>2017-03-30T13:27:29Z</time>
      </trkpt>
      <trkpt lat="43.08949" lon="1.28722">
        <ele>511.08</ele>
        <time>2017-03-30T13:27:33Z</time>
      </trkpt>
      <trkpt lat="43.08947" lon="1.28718">
        <ele>509.64</ele>
        <time>2017-03-30T13:27:56Z</time>
      </trkpt>
      <trkpt lat="43.08947" lon="1.28709">
        <ele>510.6</ele>
        <time>2017-03-30T13:28:02Z</time>
      </trkpt>
      <trkpt lat="43.08945" lon="1.28702">
        <ele>511.08</ele>
        <time>2017-03-30T13:28:15Z</time>
      </trkpt>
      <trkpt lat="43.08945" lon="1.28686">
        <ele>511.56</ele>
        <time>2017-03-30T13:29:11Z</time>
      </trkpt>
      <trkpt lat="43.08946" lon="1.28668">
        <ele>512.52</ele>
        <time>2017-03-30T13:29:24Z</time>
      </trkpt>
      <trkpt lat="43.08946" lon="1.28658">
        <ele>513</ele>
        <time>2017-03-30T13:29:31Z</time>
      </trkpt>
      <trkpt lat="43.08946" lon="1.28643">
        <ele>513.48</ele>
        <time>2017-03-30T13:29:41Z</time>
      </trkpt>
      <trkpt lat="43.08943" lon="1.28626">
        <ele>514.44</ele>
        <time>2017-03-30T13:29:52Z</time>
      </trkpt>
      <trkpt lat="43.08936" lon="1.28619">
        <ele>513</ele>
        <time>2017-03-30T13:30:06Z</time>
      </trkpt>
      <trkpt lat="43.08935" lon="1.28609">
        <ele>512.04</ele>
        <time>2017-03-30T13:30:21Z</time>
      </trkpt>
      <trkpt lat="43.08927" lon="1.28591">
        <ele>509.64</ele>
        <time>2017-03-30T13:30:37Z</time>
      </trkpt>
      <trkpt lat="43.0892" lon="1.28585">
        <ele>507.71</ele>
        <time>2017-03-30T13:30:46Z</time>
      </trkpt>
      <trkpt lat="43.0891" lon="1.28587">
        <ele>504.35</ele>
        <time>2017-03-30T13:31:01Z</time>
      </trkpt>
      <trkpt lat="43.08903" lon="1.28587">
        <ele>503.39</ele>
        <time>2017-03-30T13:31:29Z</time>
      </trkpt>
      <trkpt lat="43.08889" lon="1.28589">
        <ele>500.5</ele>
        <time>2017-03-30T13:31:44Z</time>
      </trkpt>
      <trkpt lat="43.0887" lon="1.2859">
        <ele>499.06</ele>
        <time>2017-03-30T13:32:00Z</time>
      </trkpt>
      <trkpt lat="43.08851" lon="1.28593">
        <ele>498.58</ele>
        <time>2017-03-30T13:32:16Z</time>
      </trkpt>
      <trkpt lat="43.08842" lon="1.28593">
        <ele>497.62</ele>
        <time>2017-03-30T13:32:25Z</time>
      </trkpt>
      <trkpt lat="43.08826" lon="1.28591">
        <ele>497.62</ele>
        <time>2017-03-30T13:32:39Z</time>
      </trkpt>
      <trkpt lat="43.08823" lon="1.28593">
        <ele>499.06</ele>
        <time>2017-03-30T13:32:44Z</time>
      </trkpt>
      <trkpt lat="43.08821" lon="1.28594">
        <ele>499.06</ele>
        <time>2017-03-30T13:32:55Z</time>
      </trkpt>
      <trkpt lat="43.08816" lon="1.28595">
        <ele>499.06</ele>
        <time>2017-03-30T13:33:15Z</time>
      </trkpt>
      <trkpt lat="43.08805" lon="1.2859">
        <ele>497.62</ele>
        <time>2017-03-30T13:33:28Z</time>
      </trkpt>
      <trkpt lat="43.08789" lon="1.28583">
        <ele>497.14</ele>
        <time>2017-03-30T13:33:43Z</time>
      </trkpt>
      <trkpt lat="43.08785" lon="1.2858">
        <ele>496.66</ele>
        <time>2017-03-30T13:33:48Z</time>
      </trkpt>
      <trkpt lat="43.08777" lon="1.28576">
        <ele>495.22</ele>
        <time>2017-03-30T13:34:04Z</time>
      </trkpt>
      <trkpt lat="43.08774" lon="1.2858">
        <ele>494.26</ele>
        <time>2017-03-30T13:34:24Z</time>
      </trkpt>
      <trkpt lat="43.08773" lon="1.28581">
        <ele>494.26</ele>
        <time>2017-03-30T13:34:30Z</time>
      </trkpt>
      <trkpt lat="43.08755" lon="1.28583">
        <ele>492.81</ele>
        <time>2017-03-30T13:34:46Z</time>
      </trkpt>
      <trkpt lat="43.08744" lon="1.28591">
        <ele>491.37</ele>
        <time>2017-03-30T13:34:59Z</time>
      </trkpt>
      <trkpt lat="43.08744" lon="1.28592">
        <ele>491.37</ele>
        <time>2017-03-30T13:35:00Z</time>
      </trkpt>
      <trkpt lat="43.08734" lon="1.28599">
        <ele>488.49</ele>
        <time>2017-03-30T13:35:12Z</time>
      </trkpt>
      <trkpt lat="43.08726" lon="1.28603">
        <ele>486.56</ele>
        <time>2017-03-30T13:35:23Z</time>
      </trkpt>
      <trkpt lat="43.08713" lon="1.28608">
        <ele>483.2</ele>
        <time>2017-03-30T13:35:37Z</time>
      </trkpt>
      <trkpt lat="43.08705" lon="1.2861">
        <ele>481.28</ele>
        <time>2017-03-30T13:35:45Z</time>
      </trkpt>
      <trkpt lat="43.08687" lon="1.28614">
        <ele>479.35</ele>
        <time>2017-03-30T13:36:01Z</time>
      </trkpt>
      <trkpt lat="43.08686" lon="1.28617">
        <ele>478.87</ele>
        <time>2017-03-30T13:36:04Z</time>
      </trkpt>
      <trkpt lat="43.08688" lon="1.28639">
        <ele>477.91</ele>
        <time>2017-03-30T13:36:17Z</time>
      </trkpt>
      <trkpt lat="43.08689" lon="1.28645">
        <ele>477.43</ele>
        <time>2017-03-30T13:36:21Z</time>
      </trkpt>
      <trkpt lat="43.0869" lon="1.28651">
        <ele>476.95</ele>
        <time>2017-03-30T13:36:25Z</time>
      </trkpt>
      <trkpt lat="43.08691" lon="1.28679">
        <ele>475.03</ele>
        <time>2017-03-30T13:36:42Z</time>
      </trkpt>
      <trkpt lat="43.08696" lon="1.28696">
        <ele>474.07</ele>
        <time>2017-03-30T13:36:52Z</time>
      </trkpt>
      <trkpt lat="43.08699" lon="1.28709">
        <ele>474.07</ele>
        <time>2017-03-30T13:37:00Z</time>
      </trkpt>
      <trkpt lat="43.0871" lon="1.28739">
        <ele>473.59</ele>
        <time>2017-03-30T13:37:19Z</time>
      </trkpt>
      <trkpt lat="43.08718" lon="1.28767">
        <ele>473.59</ele>
        <time>2017-03-30T13:37:37Z</time>
      </trkpt>
      <trkpt lat="43.08724" lon="1.28795">
        <ele>473.59</ele>
        <time>2017-03-30T13:37:55Z</time>
      </trkpt>
      <trkpt lat="43.08729" lon="1.28816">
        <ele>474.55</ele>
        <time>2017-03-30T13:38:09Z</time>
      </trkpt>
      <trkpt lat="43.08735" lon="1.28843">
        <ele>475.03</ele>
        <time>2017-03-30T13:38:26Z</time>
      </trkpt>
      <trkpt lat="43.08738" lon="1.28854">
        <ele>475.03</ele>
        <time>2017-03-30T13:38:34Z</time>
      </trkpt>
      <trkpt lat="43.08736" lon="1.28864">
        <ele>474.07</ele>
        <time>2017-03-30T13:38:41Z</time>
      </trkpt>
      <trkpt lat="43.08735" lon="1.28866">
        <ele>473.59</ele>
        <time>2017-03-30T13:38:42Z</time>
      </trkpt>
      <trkpt lat="43.08733" lon="1.28881">
        <ele>470.22</ele>
        <time>2017-03-30T13:38:56Z</time>
      </trkpt>
      <trkpt lat="43.08733" lon="1.28881">
        <ele>469.74</ele>
        <time>2017-03-30T13:38:58Z</time>
      </trkpt>
      <trkpt lat="43.08731" lon="1.28887">
        <ele>470.7</ele>
        <time>2017-03-30T13:39:40Z</time>
      </trkpt>
      <trkpt lat="43.08724" lon="1.28916">
        <ele>468.3</ele>
        <time>2017-03-30T13:39:59Z</time>
      </trkpt>
      <trkpt lat="43.08717" lon="1.28942">
        <ele>466.38</ele>
        <time>2017-03-30T13:40:15Z</time>
      </trkpt>
      <trkpt lat="43.08709" lon="1.28964">
        <ele>466.38</ele>
        <time>2017-03-30T13:40:30Z</time>
      </trkpt>
      <trkpt lat="43.08702" lon="1.28984">
        <ele>465.9</ele>
        <time>2017-03-30T13:40:44Z</time>
      </trkpt>
      <trkpt lat="43.08695" lon="1.29004">
        <ele>467.34</ele>
        <time>2017-03-30T13:40:59Z</time>
      </trkpt>
      <trkpt lat="43.0869" lon="1.29027">
        <ele>467.82</ele>
        <time>2017-03-30T13:41:15Z</time>
      </trkpt>
      <trkpt lat="43.0869" lon="1.29033">
        <ele>468.3</ele>
        <time>2017-03-30T13:41:24Z</time>
      </trkpt>
      <trkpt lat="43.08689" lon="1.29037">
        <ele>468.3</ele>
        <time>2017-03-30T13:41:29Z</time>
      </trkpt>
      <trkpt lat="43.08683" lon="1.29064">
        <ele>468.3</ele>
        <time>2017-03-30T13:41:45Z</time>
      </trkpt>
      <trkpt lat="43.08679" lon="1.29091">
        <ele>466.86</ele>
        <time>2017-03-30T13:42:02Z</time>
      </trkpt>
      <trkpt lat="43.08673" lon="1.29117">
        <ele>465.9</ele>
        <time>2017-03-30T13:42:18Z</time>
      </trkpt>
      <trkpt lat="43.08671" lon="1.29126">
        <ele>464.93</ele>
        <time>2017-03-30T13:42:24Z</time>
      </trkpt>
      <trkpt lat="43.08666" lon="1.29149">
        <ele>462.53</ele>
        <time>2017-03-30T13:42:41Z</time>
      </trkpt>
      <trkpt lat="43.0866" lon="1.29171">
        <ele>461.57</ele>
        <time>2017-03-30T13:42:56Z</time>
      </trkpt>
      <trkpt lat="43.08659" lon="1.29171">
        <ele>461.09</ele>
        <time>2017-03-30T13:43:23Z</time>
      </trkpt>
      <trkpt lat="43.08658" lon="1.29177">
        <ele>461.09</ele>
        <time>2017-03-30T13:43:35Z</time>
      </trkpt>
      <trkpt lat="43.08656" lon="1.29182">
        <ele>460.61</ele>
        <time>2017-03-30T13:43:39Z</time>
      </trkpt>
      <trkpt lat="43.08648" lon="1.29202">
        <ele>457.24</ele>
        <time>2017-03-30T13:43:55Z</time>
      </trkpt>
      <trkpt lat="43.08641" lon="1.2922">
        <ele>454.84</ele>
        <time>2017-03-30T13:44:10Z</time>
      </trkpt>
      <trkpt lat="43.08638" lon="1.29229">
        <ele>454.36</ele>
        <time>2017-03-30T13:44:37Z</time>
      </trkpt>
      <trkpt lat="43.08624" lon="1.29254">
        <ele>451.96</ele>
        <time>2017-03-30T13:44:52Z</time>
      </trkpt>
      <trkpt lat="43.08613" lon="1.29273">
        <ele>449.55</ele>
        <time>2017-03-30T13:45:08Z</time>
      </trkpt>
      <trkpt lat="43.08607" lon="1.2928">
        <ele>448.11</ele>
        <time>2017-03-30T13:45:17Z</time>
      </trkpt>
      <trkpt lat="43.08593" lon="1.29298">
        <ele>445.71</ele>
        <time>2017-03-30T13:45:33Z</time>
      </trkpt>
      <trkpt lat="43.08587" lon="1.2931">
        <ele>443.31</ele>
        <time>2017-03-30T13:45:41Z</time>
      </trkpt>
      <trkpt lat="43.08583" lon="1.29318">
        <ele>442.34</ele>
        <time>2017-03-30T13:45:46Z</time>
      </trkpt>
      <trkpt lat="43.08573" lon="1.29329">
        <ele>441.38</ele>
        <time>2017-03-30T13:46:00Z</time>
      </trkpt>
      <trkpt lat="43.08571" lon="1.29333">
        <ele>439.46</ele>
        <time>2017-03-30T13:47:43Z</time>
      </trkpt>
      <trkpt lat="43.08572" lon="1.29346">
        <ele>441.38</ele>
        <time>2017-03-30T13:47:58Z</time>
      </trkpt>
      <trkpt lat="43.08572" lon="1.29362">
        <ele>442.82</ele>
        <time>2017-03-30T13:48:10Z</time>
      </trkpt>
      <trkpt lat="43.08562" lon="1.29384">
        <ele>444.27</ele>
        <time>2017-03-30T13:48:25Z</time>
      </trkpt>
      <trkpt lat="43.08554" lon="1.29398">
        <ele>445.23</ele>
        <time>2017-03-30T13:48:40Z</time>
      </trkpt>
      <trkpt lat="43.08545" lon="1.29419">
        <ele>446.19</ele>
        <time>2017-03-30T13:48:53Z</time>
      </trkpt>
      <trkpt lat="43.08533" lon="1.29448">
        <ele>446.19</ele>
        <time>2017-03-30T13:49:11Z</time>
      </trkpt>
      <trkpt lat="43.08524" lon="1.29465">
        <ele>446.19</ele>
        <time>2017-03-30T13:49:23Z</time>
      </trkpt>
      <trkpt lat="43.08516" lon="1.29479">
        <ele>446.19</ele>
        <time>2017-03-30T13:49:34Z</time>
      </trkpt>
      <trkpt lat="43.08514" lon="1.29486">
        <ele>444.75</ele>
        <time>2017-03-30T13:49:38Z</time>
      </trkpt>
      <trkpt lat="43.08513" lon="1.29491">
        <ele>444.27</ele>
        <time>2017-03-30T13:49:50Z</time>
      </trkpt>
      <trkpt lat="43.08502" lon="1.29515">
        <ele>442.82</ele>
        <time>2017-03-30T13:50:06Z</time>
      </trkpt>
      <trkpt lat="43.08494" lon="1.29539">
        <ele>441.86</ele>
        <time>2017-03-30T13:50:20Z</time>
      </trkpt>
      <trkpt lat="43.08486" lon="1.29558">
        <ele>440.9</ele>
        <time>2017-03-30T13:50:34Z</time>
      </trkpt>
      <trkpt lat="43.08476" lon="1.2958">
        <ele>438.5</ele>
        <time>2017-03-30T13:50:49Z</time>
      </trkpt>
      <trkpt lat="43.08471" lon="1.29592">
        <ele>437.06</ele>
        <time>2017-03-30T13:50:56Z</time>
      </trkpt>
      <trkpt lat="43.08463" lon="1.29612">
        <ele>436.1</ele>
        <time>2017-03-30T13:51:10Z</time>
      </trkpt>
      <trkpt lat="43.08458" lon="1.29625">
        <ele>435.13</ele>
        <time>2017-03-30T13:51:42Z</time>
      </trkpt>
      <trkpt lat="43.08455" lon="1.29632">
        <ele>434.65</ele>
        <time>2017-03-30T13:51:46Z</time>
      </trkpt>
      <trkpt lat="43.08449" lon="1.2965">
        <ele>434.17</ele>
        <time>2017-03-30T13:52:02Z</time>
      </trkpt>
      <trkpt lat="43.08444" lon="1.29657">
        <ele>432.73</ele>
        <time>2017-03-30T13:52:18Z</time>
      </trkpt>
      <trkpt lat="43.08433" lon="1.29685">
        <ele>432.73</ele>
        <time>2017-03-30T13:52:35Z</time>
      </trkpt>
      <trkpt lat="43.08422" lon="1.29711">
        <ele>432.25</ele>
        <time>2017-03-30T13:52:52Z</time>
      </trkpt>
      <trkpt lat="43.08412" lon="1.29733">
        <ele>433.21</ele>
        <time>2017-03-30T13:53:07Z</time>
      </trkpt>
      <trkpt lat="43.08402" lon="1.29756">
        <ele>433.21</ele>
        <time>2017-03-30T13:53:22Z</time>
      </trkpt>
      <trkpt lat="43.08397" lon="1.29772">
        <ele>431.77</ele>
        <time>2017-03-30T13:53:32Z</time>
      </trkpt>
      <trkpt lat="43.08387" lon="1.29789">
        <ele>431.77</ele>
        <time>2017-03-30T13:53:45Z</time>
      </trkpt>
      <trkpt lat="43.08377" lon="1.29812">
        <ele>431.77</ele>
        <time>2017-03-30T13:54:01Z</time>
      </trkpt>
      <trkpt lat="43.08376" lon="1.29815">
        <ele>433.21</ele>
        <time>2017-03-30T13:54:03Z</time>
      </trkpt>
      <trkpt lat="43.08365" lon="1.29838">
        <ele>433.21</ele>
        <time>2017-03-30T13:54:19Z</time>
      </trkpt>
      <trkpt lat="43.08355" lon="1.2986">
        <ele>434.17</ele>
        <time>2017-03-30T13:54:36Z</time>
      </trkpt>
      <trkpt lat="43.08348" lon="1.29877">
        <ele>435.13</ele>
        <time>2017-03-30T13:54:48Z</time>
      </trkpt>
      <trkpt lat="43.08343" lon="1.29882">
        <ele>435.61</ele>
        <time>2017-03-30T13:55:03Z</time>
      </trkpt>
      <trkpt lat="43.08336" lon="1.29899">
        <ele>435.61</ele>
        <time>2017-03-30T13:55:15Z</time>
      </trkpt>
      <trkpt lat="43.08333" lon="1.2991">
        <ele>434.17</ele>
        <time>2017-03-30T13:55:22Z</time>
      </trkpt>
      <trkpt lat="43.08322" lon="1.29931">
        <ele>433.69</ele>
        <time>2017-03-30T13:55:37Z</time>
      </trkpt>
      <trkpt lat="43.08312" lon="1.29958">
        <ele>433.21</ele>
        <time>2017-03-30T13:55:54Z</time>
      </trkpt>
      <trkpt lat="43.08301" lon="1.29985">
        <ele>433.21</ele>
        <time>2017-03-30T13:56:12Z</time>
      </trkpt>
      <trkpt lat="43.08288" lon="1.30013">
        <ele>433.21</ele>
        <time>2017-03-30T13:56:31Z</time>
      </trkpt>
      <trkpt lat="43.08278" lon="1.30036">
        <ele>432.73</ele>
        <time>2017-03-30T13:56:46Z</time>
      </trkpt>
      <trkpt lat="43.08273" lon="1.30051">
        <ele>432.25</ele>
        <time>2017-03-30T13:56:55Z</time>
      </trkpt>
      <trkpt lat="43.08263" lon="1.30077">
        <ele>432.25</ele>
        <time>2017-03-30T13:57:13Z</time>
      </trkpt>
      <trkpt lat="43.08255" lon="1.30102">
        <ele>430.81</ele>
        <time>2017-03-30T13:57:29Z</time>
      </trkpt>
      <trkpt lat="43.08249" lon="1.30127">
        <ele>430.33</ele>
        <time>2017-03-30T13:57:45Z</time>
      </trkpt>
      <trkpt lat="43.08244" lon="1.30149">
        <ele>428.4</ele>
        <time>2017-03-30T13:57:59Z</time>
      </trkpt>
      <trkpt lat="43.08239" lon="1.30183">
        <ele>426.96</ele>
        <time>2017-03-30T13:58:19Z</time>
      </trkpt>
      <trkpt lat="43.08235" lon="1.30209">
        <ele>425.52</ele>
        <time>2017-03-30T13:58:36Z</time>
      </trkpt>
      <trkpt lat="43.08228" lon="1.30229">
        <ele>423.6</ele>
        <time>2017-03-30T13:58:50Z</time>
      </trkpt>
      <trkpt lat="43.08219" lon="1.30252">
        <ele>421.19</ele>
        <time>2017-03-30T13:59:05Z</time>
      </trkpt>
      <trkpt lat="43.08212" lon="1.30278">
        <ele>419.75</ele>
        <time>2017-03-30T13:59:22Z</time>
      </trkpt>
      <trkpt lat="43.08204" lon="1.30308">
        <ele>418.79</ele>
        <time>2017-03-30T13:59:40Z</time>
      </trkpt>
      <trkpt lat="43.08199" lon="1.30335">
        <ele>416.39</ele>
        <time>2017-03-30T13:59:56Z</time>
      </trkpt>
      <trkpt lat="43.08197" lon="1.3034">
        <ele>415.91</ele>
        <time>2017-03-30T14:00:11Z</time>
      </trkpt>
      <trkpt lat="43.08197" lon="1.3034">
        <ele>415.91</ele>
        <time>2017-03-30T14:00:12Z</time>
      </trkpt>
      <trkpt lat="43.08197" lon="1.30347">
        <ele>415.43</ele>
        <time>2017-03-30T14:00:17Z</time>
      </trkpt>
      <trkpt lat="43.08192" lon="1.30377">
        <ele>413.5</ele>
        <time>2017-03-30T14:00:34Z</time>
      </trkpt>
      <trkpt lat="43.08192" lon="1.30378">
        <ele>413.5</ele>
        <time>2017-03-30T14:00:35Z</time>
      </trkpt>
      <trkpt lat="43.08188" lon="1.30402">
        <ele>411.58</ele>
        <time>2017-03-30T14:00:52Z</time>
      </trkpt>
      <trkpt lat="43.08187" lon="1.30414">
        <ele>410.62</ele>
        <time>2017-03-30T14:01:11Z</time>
      </trkpt>
      <trkpt lat="43.08187" lon="1.30419">
        <ele>410.62</ele>
        <time>2017-03-30T14:01:21Z</time>
      </trkpt>
      <trkpt lat="43.08188" lon="1.30448">
        <ele>410.14</ele>
        <time>2017-03-30T14:01:38Z</time>
      </trkpt>
      <trkpt lat="43.08188" lon="1.30475">
        <ele>409.66</ele>
        <time>2017-03-30T14:01:55Z</time>
      </trkpt>
      <trkpt lat="43.08188" lon="1.30483">
        <ele>408.7</ele>
        <time>2017-03-30T14:02:10Z</time>
      </trkpt>
      <trkpt lat="43.08188" lon="1.30485">
        <ele>408.7</ele>
        <time>2017-03-30T14:02:11Z</time>
      </trkpt>
      <trkpt lat="43.0819" lon="1.30514">
        <ele>408.7</ele>
        <time>2017-03-30T14:02:28Z</time>
      </trkpt>
      <trkpt lat="43.0819" lon="1.30518">
        <ele>408.7</ele>
        <time>2017-03-30T14:02:30Z</time>
      </trkpt>
      <trkpt lat="43.08193" lon="1.30534">
        <ele>408.7</ele>
        <time>2017-03-30T14:02:45Z</time>
      </trkpt>
      <trkpt lat="43.08193" lon="1.30535">
        <ele>409.66</ele>
        <time>2017-03-30T14:02:47Z</time>
      </trkpt>
      <trkpt lat="43.08196" lon="1.3055">
        <ele>409.66</ele>
        <time>2017-03-30T14:03:08Z</time>
      </trkpt>
      <trkpt lat="43.08198" lon="1.30577">
        <ele>409.66</ele>
        <time>2017-03-30T14:03:25Z</time>
      </trkpt>
      <trkpt lat="43.08197" lon="1.30604">
        <ele>410.62</ele>
        <time>2017-03-30T14:03:41Z</time>
      </trkpt>
      <trkpt lat="43.08193" lon="1.30629">
        <ele>410.62</ele>
        <time>2017-03-30T14:03:57Z</time>
      </trkpt>
      <trkpt lat="43.0819" lon="1.30646">
        <ele>411.58</ele>
        <time>2017-03-30T14:04:27Z</time>
      </trkpt>
      <trkpt lat="43.08188" lon="1.30664">
        <ele>411.58</ele>
        <time>2017-03-30T14:04:43Z</time>
      </trkpt>
      <trkpt lat="43.08182" lon="1.30679">
        <ele>411.58</ele>
        <time>2017-03-30T14:05:04Z</time>
      </trkpt>
      <trkpt lat="43.08178" lon="1.30691">
        <ele>410.14</ele>
        <time>2017-03-30T14:05:13Z</time>
      </trkpt>
      <trkpt lat="43.08178" lon="1.30709">
        <ele>409.18</ele>
        <time>2017-03-30T14:05:26Z</time>
      </trkpt>
      <trkpt lat="43.08179" lon="1.30712">
        <ele>410.62</ele>
        <time>2017-03-30T14:05:28Z</time>
      </trkpt>
      <trkpt lat="43.0818" lon="1.30714">
        <ele>410.62</ele>
        <time>2017-03-30T14:05:29Z</time>
      </trkpt>
      <trkpt lat="43.08182" lon="1.30717">
        <ele>410.62</ele>
        <time>2017-03-30T14:05:36Z</time>
      </trkpt>
      <trkpt lat="43.08183" lon="1.30718">
        <ele>410.62</ele>
        <time>2017-03-30T14:05:37Z</time>
      </trkpt>
      <trkpt lat="43.08184" lon="1.30722">
        <ele>410.62</ele>
        <time>2017-03-30T14:05:41Z</time>
      </trkpt>
      <trkpt lat="43.08184" lon="1.30725">
        <ele>410.62</ele>
        <time>2017-03-30T14:05:42Z</time>
      </trkpt>
      <trkpt lat="43.08185" lon="1.30727">
        <ele>410.62</ele>
        <time>2017-03-30T14:05:43Z</time>
      </trkpt>
      <trkpt lat="43.08186" lon="1.30729">
        <ele>410.62</ele>
        <time>2017-03-30T14:05:44Z</time>
      </trkpt>
      <trkpt lat="43.08193" lon="1.3074">
        <ele>409.18</ele>
        <time>2017-03-30T14:05:54Z</time>
      </trkpt>
      <trkpt lat="43.08202" lon="1.30762">
        <ele>406.29</ele>
        <time>2017-03-30T14:06:10Z</time>
      </trkpt>
      <trkpt lat="43.08205" lon="1.30786">
        <ele>403.41</ele>
        <time>2017-03-30T14:06:24Z</time>
      </trkpt>
      <trkpt lat="43.08205" lon="1.30816">
        <ele>401.97</ele>
        <time>2017-03-30T14:06:42Z</time>
      </trkpt>
      <trkpt lat="43.08205" lon="1.30819">
        <ele>401.49</ele>
        <time>2017-03-30T14:06:44Z</time>
      </trkpt>
      <trkpt lat="43.08205" lon="1.3082">
        <ele>402.93</ele>
        <time>2017-03-30T14:06:45Z</time>
      </trkpt>
      <trkpt lat="43.08204" lon="1.30825">
        <ele>401.49</ele>
        <time>2017-03-30T14:06:48Z</time>
      </trkpt>
      <trkpt lat="43.08204" lon="1.30827">
        <ele>401.49</ele>
        <time>2017-03-30T14:06:49Z</time>
      </trkpt>
      <trkpt lat="43.08204" lon="1.30835">
        <ele>401.01</ele>
        <time>2017-03-30T14:07:06Z</time>
      </trkpt>
      <trkpt lat="43.08207" lon="1.30837">
        <ele>401.01</ele>
        <time>2017-03-30T14:07:39Z</time>
      </trkpt>
      <trkpt lat="43.08209" lon="1.30843">
        <ele>401.01</ele>
        <time>2017-03-30T14:08:02Z</time>
      </trkpt>
      <trkpt lat="43.08206" lon="1.30849">
        <ele>400.05</ele>
        <time>2017-03-30T14:08:22Z</time>
      </trkpt>
      <trkpt lat="43.08203" lon="1.30868">
        <ele>398.12</ele>
        <time>2017-03-30T14:08:37Z</time>
      </trkpt>
      <trkpt lat="43.082" lon="1.30884">
        <ele>397.16</ele>
        <time>2017-03-30T14:08:52Z</time>
      </trkpt>
      <trkpt lat="43.08198" lon="1.30915">
        <ele>395.72</ele>
        <time>2017-03-30T14:09:10Z</time>
      </trkpt>
      <trkpt lat="43.08198" lon="1.30943">
        <ele>395.24</ele>
        <time>2017-03-30T14:09:25Z</time>
      </trkpt>
      <trkpt lat="43.08197" lon="1.30974">
        <ele>394.76</ele>
        <time>2017-03-30T14:09:45Z</time>
      </trkpt>
      <trkpt lat="43.08191" lon="1.31023">
        <ele>393.32</ele>
        <time>2017-03-30T14:10:52Z</time>
      </trkpt>
      <trkpt lat="43.08191" lon="1.31025">
        <ele>393.32</ele>
        <time>2017-03-30T14:10:54Z</time>
      </trkpt>
      <trkpt lat="43.08191" lon="1.31026">
        <ele>393.32</ele>
        <time>2017-03-30T14:10:55Z</time>
      </trkpt>
      <trkpt lat="43.08188" lon="1.31042">
        <ele>392.84</ele>
        <time>2017-03-30T14:12:39Z</time>
      </trkpt>
      <trkpt lat="43.08187" lon="1.31056">
        <ele>392.84</ele>
        <time>2017-03-30T14:12:53Z</time>
      </trkpt>
      <trkpt lat="43.08181" lon="1.31081">
        <ele>390.91</ele>
        <time>2017-03-30T14:13:09Z</time>
      </trkpt>
      <trkpt lat="43.0818" lon="1.31088">
        <ele>388.99</ele>
        <time>2017-03-30T14:13:30Z</time>
      </trkpt>
      <trkpt lat="43.08177" lon="1.31113">
        <ele>388.51</ele>
        <time>2017-03-30T14:13:45Z</time>
      </trkpt>
      <trkpt lat="43.08172" lon="1.31142">
        <ele>387.07</ele>
        <time>2017-03-30T14:14:04Z</time>
      </trkpt>
      <trkpt lat="43.08172" lon="1.31144">
        <ele>387.07</ele>
        <time>2017-03-30T14:14:05Z</time>
      </trkpt>
      <trkpt lat="43.08171" lon="1.31145">
        <ele>387.07</ele>
        <time>2017-03-30T14:14:06Z</time>
      </trkpt>
      <trkpt lat="43.08167" lon="1.31157">
        <ele>386.11</ele>
        <time>2017-03-30T14:14:17Z</time>
      </trkpt>
      <trkpt lat="43.0816" lon="1.31182">
        <ele>384.66</ele>
        <time>2017-03-30T14:14:33Z</time>
      </trkpt>
      <trkpt lat="43.08152" lon="1.31214">
        <ele>383.7</ele>
        <time>2017-03-30T14:14:53Z</time>
      </trkpt>
      <trkpt lat="43.0814" lon="1.31245">
        <ele>381.78</ele>
        <time>2017-03-30T14:15:13Z</time>
      </trkpt>
      <trkpt lat="43.08127" lon="1.31269">
        <ele>380.82</ele>
        <time>2017-03-30T14:15:30Z</time>
      </trkpt>
      <trkpt lat="43.08112" lon="1.31293">
        <ele>379.86</ele>
        <time>2017-03-30T14:15:47Z</time>
      </trkpt>
      <trkpt lat="43.08098" lon="1.31318">
        <ele>379.38</ele>
        <time>2017-03-30T14:16:06Z</time>
      </trkpt>
      <trkpt lat="43.08089" lon="1.31344">
        <ele>378.9</ele>
        <time>2017-03-30T14:16:22Z</time>
      </trkpt>
      <trkpt lat="43.08087" lon="1.31373">
        <ele>380.82</ele>
        <time>2017-03-30T14:16:40Z</time>
      </trkpt>
      <trkpt lat="43.08084" lon="1.31385">
        <ele>378.9</ele>
        <time>2017-03-30T14:16:47Z</time>
      </trkpt>
      <trkpt lat="43.08077" lon="1.3141">
        <ele>380.34</ele>
        <time>2017-03-30T14:17:02Z</time>
      </trkpt>
      <trkpt lat="43.08075" lon="1.31422">
        <ele>378.9</ele>
        <time>2017-03-30T14:17:09Z</time>
      </trkpt>
      <trkpt lat="43.08071" lon="1.31457">
        <ele>377.45</ele>
        <time>2017-03-30T14:17:36Z</time>
      </trkpt>
      <trkpt lat="43.0807" lon="1.31462">
        <ele>377.45</ele>
        <time>2017-03-30T14:17:39Z</time>
      </trkpt>
      <trkpt lat="43.0807" lon="1.31464">
        <ele>377.45</ele>
        <time>2017-03-30T14:17:40Z</time>
      </trkpt>
      <trkpt lat="43.08068" lon="1.31491">
        <ele>377.45</ele>
        <time>2017-03-30T14:17:57Z</time>
      </trkpt>
      <trkpt lat="43.08066" lon="1.31525">
        <ele>376.49</ele>
        <time>2017-03-30T14:18:17Z</time>
      </trkpt>
      <trkpt lat="43.08064" lon="1.31555">
        <ele>376.49</ele>
        <time>2017-03-30T14:18:36Z</time>
      </trkpt>
      <trkpt lat="43.08064" lon="1.31578">
        <ele>376.49</ele>
        <time>2017-03-30T14:18:49Z</time>
      </trkpt>
      <trkpt lat="43.08065" lon="1.31596">
        <ele>376.49</ele>
        <time>2017-03-30T14:19:00Z</time>
      </trkpt>
      <trkpt lat="43.08064" lon="1.31619">
        <ele>376.49</ele>
        <time>2017-03-30T14:19:11Z</time>
      </trkpt>
      <trkpt lat="43.08066" lon="1.31636">
        <ele>376.01</ele>
        <time>2017-03-30T14:19:22Z</time>
      </trkpt>
      <trkpt lat="43.08066" lon="1.31639">
        <ele>376.01</ele>
        <time>2017-03-30T14:19:23Z</time>
      </trkpt>
      <trkpt lat="43.08066" lon="1.31642">
        <ele>376.01</ele>
        <time>2017-03-30T14:19:24Z</time>
      </trkpt>
      <trkpt lat="43.08066" lon="1.31644">
        <ele>376.01</ele>
        <time>2017-03-30T14:19:25Z</time>
      </trkpt>
      <trkpt lat="43.08067" lon="1.31648">
        <ele>376.01</ele>
        <time>2017-03-30T14:19:28Z</time>
      </trkpt>
      <trkpt lat="43.08067" lon="1.31667">
        <ele>375.53</ele>
        <time>2017-03-30T14:19:38Z</time>
      </trkpt>
      <trkpt lat="43.08068" lon="1.31685">
        <ele>375.05</ele>
        <time>2017-03-30T14:19:49Z</time>
      </trkpt>
      <trkpt lat="43.08069" lon="1.31707">
        <ele>375.05</ele>
        <time>2017-03-30T14:20:01Z</time>
      </trkpt>
      <trkpt lat="43.0807" lon="1.31711">
        <ele>375.05</ele>
        <time>2017-03-30T14:20:04Z</time>
      </trkpt>
      <trkpt lat="43.0807" lon="1.3173">
        <ele>375.05</ele>
        <time>2017-03-30T14:20:14Z</time>
      </trkpt>
      <trkpt lat="43.08072" lon="1.31747">
        <ele>374.57</ele>
        <time>2017-03-30T14:20:24Z</time>
      </trkpt>
      <trkpt lat="43.08072" lon="1.3175">
        <ele>374.57</ele>
        <time>2017-03-30T14:20:26Z</time>
      </trkpt>
      <trkpt lat="43.08071" lon="1.31752">
        <ele>374.57</ele>
        <time>2017-03-30T14:20:27Z</time>
      </trkpt>
      <trkpt lat="43.08073" lon="1.31773">
        <ele>374.09</ele>
        <time>2017-03-30T14:20:39Z</time>
      </trkpt>
      <trkpt lat="43.08073" lon="1.31798">
        <ele>373.61</ele>
        <time>2017-03-30T14:20:55Z</time>
      </trkpt>
      <trkpt lat="43.08072" lon="1.31807">
        <ele>373.61</ele>
        <time>2017-03-30T14:21:01Z</time>
      </trkpt>
      <trkpt lat="43.08072" lon="1.31809">
        <ele>373.61</ele>
        <time>2017-03-30T14:21:02Z</time>
      </trkpt>
      <trkpt lat="43.08072" lon="1.31812">
        <ele>373.61</ele>
        <time>2017-03-30T14:21:03Z</time>
      </trkpt>
      <trkpt lat="43.08072" lon="1.31827">
        <ele>373.61</ele>
        <time>2017-03-30T14:21:12Z</time>
      </trkpt>
      <trkpt lat="43.08072" lon="1.31843">
        <ele>373.61</ele>
        <time>2017-03-30T14:21:22Z</time>
      </trkpt>
      <trkpt lat="43.08072" lon="1.31855">
        <ele>373.13</ele>
        <time>2017-03-30T14:21:29Z</time>
      </trkpt>
      <trkpt lat="43.08069" lon="1.31882">
        <ele>373.13</ele>
        <time>2017-03-30T14:21:45Z</time>
      </trkpt>
      <trkpt lat="43.08073" lon="1.31899">
        <ele>373.13</ele>
        <time>2017-03-30T14:21:59Z</time>
      </trkpt>
      <trkpt lat="43.0808" lon="1.31922">
        <ele>375.05</ele>
        <time>2017-03-30T14:22:14Z</time>
      </trkpt>
      <trkpt lat="43.08083" lon="1.31934">
        <ele>375.53</ele>
        <time>2017-03-30T14:22:26Z</time>
      </trkpt>
      <trkpt lat="43.08085" lon="1.31938">
        <ele>375.53</ele>
        <time>2017-03-30T14:22:29Z</time>
      </trkpt>
      <trkpt lat="43.08085" lon="1.3194">
        <ele>375.53</ele>
        <time>2017-03-30T14:22:30Z</time>
      </trkpt>
      <trkpt lat="43.08087" lon="1.31953">
        <ele>376.49</ele>
        <time>2017-03-30T14:22:39Z</time>
      </trkpt>
      <trkpt lat="43.08087" lon="1.31964">
        <ele>377.45</ele>
        <time>2017-03-30T14:22:48Z</time>
      </trkpt>
      <trkpt lat="43.08084" lon="1.31977">
        <ele>379.38</ele>
        <time>2017-03-30T14:22:57Z</time>
      </trkpt>
      <trkpt lat="43.08082" lon="1.31985">
        <ele>380.34</ele>
        <time>2017-03-30T14:23:04Z</time>
      </trkpt>
      <trkpt lat="43.08081" lon="1.31987">
        <ele>380.34</ele>
        <time>2017-03-30T14:23:05Z</time>
      </trkpt>
      <trkpt lat="43.08078" lon="1.31999">
        <ele>381.3</ele>
        <time>2017-03-30T14:23:14Z</time>
      </trkpt>
      <trkpt lat="43.08077" lon="1.32001">
        <ele>381.3</ele>
        <time>2017-03-30T14:23:15Z</time>
      </trkpt>
      <trkpt lat="43.08076" lon="1.32003">
        <ele>381.3</ele>
        <time>2017-03-30T14:23:16Z</time>
      </trkpt>
      <trkpt lat="43.08074" lon="1.32015">
        <ele>382.74</ele>
        <time>2017-03-30T14:23:25Z</time>
      </trkpt>
      <trkpt lat="43.08073" lon="1.32018">
        <ele>382.74</ele>
        <time>2017-03-30T14:23:26Z</time>
      </trkpt>
      <trkpt lat="43.08073" lon="1.3202">
        <ele>382.74</ele>
        <time>2017-03-30T14:23:27Z</time>
      </trkpt>
      <trkpt lat="43.08072" lon="1.32036">
        <ele>384.18</ele>
        <time>2017-03-30T14:23:37Z</time>
      </trkpt>
      <trkpt lat="43.08071" lon="1.32049">
        <ele>384.66</ele>
        <time>2017-03-30T14:23:46Z</time>
      </trkpt>
      <trkpt lat="43.08071" lon="1.32051">
        <ele>384.66</ele>
        <time>2017-03-30T14:23:48Z</time>
      </trkpt>
      <trkpt lat="43.0807" lon="1.32053">
        <ele>385.15</ele>
        <time>2017-03-30T14:23:49Z</time>
      </trkpt>
      <trkpt lat="43.08071" lon="1.32056">
        <ele>385.15</ele>
        <time>2017-03-30T14:23:50Z</time>
      </trkpt>
      <trkpt lat="43.0807" lon="1.3206">
        <ele>385.63</ele>
        <time>2017-03-30T14:23:54Z</time>
      </trkpt>
      <trkpt lat="43.0807" lon="1.32062">
        <ele>385.63</ele>
        <time>2017-03-30T14:23:55Z</time>
      </trkpt>
      <trkpt lat="43.08069" lon="1.32074">
        <ele>387.55</ele>
        <time>2017-03-30T14:24:04Z</time>
      </trkpt>
      <trkpt lat="43.08067" lon="1.32082">
        <ele>388.51</ele>
        <time>2017-03-30T14:24:11Z</time>
      </trkpt>
      <trkpt lat="43.08066" lon="1.32085">
        <ele>388.51</ele>
        <time>2017-03-30T14:24:12Z</time>
      </trkpt>
      <trkpt lat="43.08065" lon="1.32099">
        <ele>389.47</ele>
        <time>2017-03-30T14:24:22Z</time>
      </trkpt>
      <trkpt lat="43.08064" lon="1.32108">
        <ele>390.43</ele>
        <time>2017-03-30T14:24:31Z</time>
      </trkpt>
      <trkpt lat="43.08064" lon="1.32112">
        <ele>390.43</ele>
        <time>2017-03-30T14:24:34Z</time>
      </trkpt>
      <trkpt lat="43.08066" lon="1.32118">
        <ele>391.39</ele>
        <time>2017-03-30T14:24:48Z</time>
      </trkpt>
      <trkpt lat="43.08064" lon="1.32125">
        <ele>391.39</ele>
        <time>2017-03-30T14:25:38Z</time>
      </trkpt>
      <trkpt lat="43.08064" lon="1.32125">
        <ele>391.39</ele>
        <time>2017-03-30T14:25:39Z</time>
      </trkpt>
      <trkpt lat="43.08061" lon="1.32129">
        <ele>391.39</ele>
        <time>2017-03-30T14:25:43Z</time>
      </trkpt>
      <trkpt lat="43.0806" lon="1.3213">
        <ele>391.39</ele>
        <time>2017-03-30T14:25:44Z</time>
      </trkpt>
      <trkpt lat="43.0806" lon="1.32135">
        <ele>391.39</ele>
        <time>2017-03-30T14:25:49Z</time>
      </trkpt>
      <trkpt lat="43.0806" lon="1.32137">
        <ele>391.39</ele>
        <time>2017-03-30T14:25:50Z</time>
      </trkpt>
      <trkpt lat="43.08057" lon="1.32153">
        <ele>391.87</ele>
        <time>2017-03-30T14:26:01Z</time>
      </trkpt>
      <trkpt lat="43.08055" lon="1.32169">
        <ele>392.36</ele>
        <time>2017-03-30T14:26:11Z</time>
      </trkpt>
      <trkpt lat="43.08054" lon="1.3217">
        <ele>392.36</ele>
        <time>2017-03-30T14:26:12Z</time>
      </trkpt>
      <trkpt lat="43.08054" lon="1.32172">
        <ele>392.36</ele>
        <time>2017-03-30T14:26:13Z</time>
      </trkpt>
      <trkpt lat="43.08052" lon="1.32191">
        <ele>392.84</ele>
        <time>2017-03-30T14:26:27Z</time>
      </trkpt>
      <trkpt lat="43.08052" lon="1.32198">
        <ele>392.84</ele>
        <time>2017-03-30T14:26:33Z</time>
      </trkpt>
      <trkpt lat="43.08051" lon="1.32217">
        <ele>392.84</ele>
        <time>2017-03-30T14:26:46Z</time>
      </trkpt>
      <trkpt lat="43.0805" lon="1.32231">
        <ele>389.95</ele>
        <time>2017-03-30T14:26:55Z</time>
      </trkpt>
      <trkpt lat="43.08048" lon="1.32238">
        <ele>389.95</ele>
        <time>2017-03-30T14:26:58Z</time>
      </trkpt>
      <trkpt lat="43.08047" lon="1.32239">
        <ele>389.95</ele>
        <time>2017-03-30T14:26:59Z</time>
      </trkpt>
      <trkpt lat="43.08031" lon="1.32262">
        <ele>389.95</ele>
        <time>2017-03-30T14:27:16Z</time>
      </trkpt>
      <trkpt lat="43.08024" lon="1.32286">
        <ele>392.36</ele>
        <time>2017-03-30T14:27:32Z</time>
      </trkpt>
      <trkpt lat="43.08021" lon="1.32297">
        <ele>394.28</ele>
        <time>2017-03-30T14:27:41Z</time>
      </trkpt>
      <trkpt lat="43.08009" lon="1.32319">
        <ele>394.28</ele>
        <time>2017-03-30T14:27:58Z</time>
      </trkpt>
      <trkpt lat="43.08006" lon="1.32324">
        <ele>393.32</ele>
        <time>2017-03-30T14:28:02Z</time>
      </trkpt>
      <trkpt lat="43.07994" lon="1.32343">
        <ele>392.84</ele>
        <time>2017-03-30T14:28:17Z</time>
      </trkpt>
      <trkpt lat="43.07981" lon="1.32364">
        <ele>392.84</ele>
        <time>2017-03-30T14:28:33Z</time>
      </trkpt>
      <trkpt lat="43.07968" lon="1.32382">
        <ele>392.36</ele>
        <time>2017-03-30T14:28:48Z</time>
      </trkpt>
      <trkpt lat="43.07957" lon="1.32405">
        <ele>392.36</ele>
        <time>2017-03-30T14:29:04Z</time>
      </trkpt>
      <trkpt lat="43.07944" lon="1.32422">
        <ele>391.87</ele>
        <time>2017-03-30T14:29:19Z</time>
      </trkpt>
      <trkpt lat="43.07925" lon="1.32435">
        <ele>393.8</ele>
        <time>2017-03-30T14:29:36Z</time>
      </trkpt>
      <trkpt lat="43.07912" lon="1.32448">
        <ele>395.24</ele>
        <time>2017-03-30T14:29:51Z</time>
      </trkpt>
      <trkpt lat="43.07902" lon="1.32465">
        <ele>395.72</ele>
        <time>2017-03-30T14:30:05Z</time>
      </trkpt>
      <trkpt lat="43.07892" lon="1.32486">
        <ele>396.68</ele>
        <time>2017-03-30T14:30:22Z</time>
      </trkpt>
      <trkpt lat="43.07884" lon="1.32495">
        <ele>398.12</ele>
        <time>2017-03-30T14:30:36Z</time>
      </trkpt>
      <trkpt lat="43.07883" lon="1.32498">
        <ele>398.6</ele>
        <time>2017-03-30T14:30:39Z</time>
      </trkpt>
      <trkpt lat="43.07873" lon="1.32517">
        <ele>399.57</ele>
        <time>2017-03-30T14:30:54Z</time>
      </trkpt>
      <trkpt lat="43.07869" lon="1.32524">
        <ele>400.05</ele>
        <time>2017-03-30T14:31:00Z</time>
      </trkpt>
      <trkpt lat="43.07869" lon="1.32525">
        <ele>400.53</ele>
        <time>2017-03-30T14:31:01Z</time>
      </trkpt>
      <trkpt lat="43.07868" lon="1.32527">
        <ele>400.53</ele>
        <time>2017-03-30T14:31:02Z</time>
      </trkpt>
      <trkpt lat="43.07867" lon="1.3253">
        <ele>401.01</ele>
        <time>2017-03-30T14:31:04Z</time>
      </trkpt>
      <trkpt lat="43.07862" lon="1.3254">
        <ele>400.53</ele>
        <time>2017-03-30T14:31:12Z</time>
      </trkpt>
      <trkpt lat="43.07856" lon="1.32561">
        <ele>401.01</ele>
        <time>2017-03-30T14:31:25Z</time>
      </trkpt>
      <trkpt lat="43.07852" lon="1.32572">
        <ele>401.49</ele>
        <time>2017-03-30T14:31:33Z</time>
      </trkpt>
      <trkpt lat="43.07842" lon="1.32595">
        <ele>402.93</ele>
        <time>2017-03-30T14:31:50Z</time>
      </trkpt>
      <trkpt lat="43.0784" lon="1.326">
        <ele>404.37</ele>
        <time>2017-03-30T14:31:56Z</time>
      </trkpt>
      <trkpt lat="43.07838" lon="1.32602">
        <ele>402.93</ele>
        <time>2017-03-30T14:32:14Z</time>
      </trkpt>
      <trkpt lat="43.07831" lon="1.3263">
        <ele>404.37</ele>
        <time>2017-03-30T14:32:31Z</time>
      </trkpt>
      <trkpt lat="43.07826" lon="1.32652">
        <ele>406.77</ele>
        <time>2017-03-30T14:32:46Z</time>
      </trkpt>
      <trkpt lat="43.07824" lon="1.32666">
        <ele>407.74</ele>
        <time>2017-03-30T14:32:56Z</time>
      </trkpt>
      <trkpt lat="43.07825" lon="1.32668">
        <ele>407.74</ele>
        <time>2017-03-30T14:32:57Z</time>
      </trkpt>
      <trkpt lat="43.07825" lon="1.32669">
        <ele>407.74</ele>
        <time>2017-03-30T14:32:58Z</time>
      </trkpt>
      <trkpt lat="43.07824" lon="1.32671">
        <ele>407.74</ele>
        <time>2017-03-30T14:32:59Z</time>
      </trkpt>
      <trkpt lat="43.07824" lon="1.32672">
        <ele>408.22</ele>
        <time>2017-03-30T14:33:00Z</time>
      </trkpt>
      <trkpt lat="43.07823" lon="1.32674">
        <ele>408.22</ele>
        <time>2017-03-30T14:33:01Z</time>
      </trkpt>
      <trkpt lat="43.07823" lon="1.32695">
        <ele>410.14</ele>
        <time>2017-03-30T14:33:16Z</time>
      </trkpt>
      <trkpt lat="43.07824" lon="1.32704">
        <ele>411.58</ele>
        <time>2017-03-30T14:33:30Z</time>
      </trkpt>
      <trkpt lat="43.07828" lon="1.32728">
        <ele>412.06</ele>
        <time>2017-03-30T14:33:45Z</time>
      </trkpt>
      <trkpt lat="43.07829" lon="1.3273">
        <ele>412.54</ele>
        <time>2017-03-30T14:33:47Z</time>
      </trkpt>
      <trkpt lat="43.07828" lon="1.32731">
        <ele>413.98</ele>
        <time>2017-03-30T14:34:02Z</time>
      </trkpt>
      <trkpt lat="43.07827" lon="1.32738">
        <ele>412.54</ele>
        <time>2017-03-30T14:34:22Z</time>
      </trkpt>
      <trkpt lat="43.07828" lon="1.32742">
        <ele>412.54</ele>
        <time>2017-03-30T14:34:25Z</time>
      </trkpt>
      <trkpt lat="43.07828" lon="1.32745">
        <ele>412.54</ele>
        <time>2017-03-30T14:34:27Z</time>
      </trkpt>
      <trkpt lat="43.07829" lon="1.32764">
        <ele>415.43</ele>
        <time>2017-03-30T14:34:39Z</time>
      </trkpt>
      <trkpt lat="43.0783" lon="1.3278">
        <ele>416.87</ele>
        <time>2017-03-30T14:34:53Z</time>
      </trkpt>
      <trkpt lat="43.0783" lon="1.32793">
        <ele>417.83</ele>
        <time>2017-03-30T14:40:01Z</time>
      </trkpt>
      <trkpt lat="43.07831" lon="1.32799">
        <ele>417.83</ele>
        <time>2017-03-30T14:40:06Z</time>
      </trkpt>
      <trkpt lat="43.07839" lon="1.32817">
        <ele>419.75</ele>
        <time>2017-03-30T14:40:20Z</time>
      </trkpt>
      <trkpt lat="43.07846" lon="1.32836">
        <ele>421.19</ele>
        <time>2017-03-30T14:40:56Z</time>
      </trkpt>
      <trkpt lat="43.0785" lon="1.32852">
        <ele>422.16</ele>
        <time>2017-03-30T14:41:08Z</time>
      </trkpt>
      <trkpt lat="43.0785" lon="1.32854">
        <ele>422.16</ele>
        <time>2017-03-30T14:41:09Z</time>
      </trkpt>
      <trkpt lat="43.07854" lon="1.32865">
        <ele>423.12</ele>
        <time>2017-03-30T14:41:17Z</time>
      </trkpt>
      <trkpt lat="43.07854" lon="1.32866">
        <ele>423.12</ele>
        <time>2017-03-30T14:41:18Z</time>
      </trkpt>
      <trkpt lat="43.07855" lon="1.32868">
        <ele>423.12</ele>
        <time>2017-03-30T14:41:19Z</time>
      </trkpt>
      <trkpt lat="43.07858" lon="1.32877">
        <ele>424.56</ele>
        <time>2017-03-30T14:41:26Z</time>
      </trkpt>
      <trkpt lat="43.07863" lon="1.32901">
        <ele>425.52</ele>
        <time>2017-03-30T14:41:43Z</time>
      </trkpt>
      <trkpt lat="43.07866" lon="1.3291">
        <ele>426.48</ele>
        <time>2017-03-30T14:41:54Z</time>
      </trkpt>
      <trkpt lat="43.07874" lon="1.32934">
        <ele>427.44</ele>
        <time>2017-03-30T14:42:11Z</time>
      </trkpt>
      <trkpt lat="43.07881" lon="1.32952">
        <ele>429.37</ele>
        <time>2017-03-30T14:42:26Z</time>
      </trkpt>
      <trkpt lat="43.07889" lon="1.32968">
        <ele>430.33</ele>
        <time>2017-03-30T14:42:40Z</time>
      </trkpt>
      <trkpt lat="43.07892" lon="1.3297">
        <ele>430.81</ele>
        <time>2017-03-30T14:42:57Z</time>
      </trkpt>
      <trkpt lat="43.07898" lon="1.32982">
        <ele>430.81</ele>
        <time>2017-03-30T14:43:15Z</time>
      </trkpt>
      <trkpt lat="43.07898" lon="1.32988">
        <ele>431.77</ele>
        <time>2017-03-30T14:43:28Z</time>
      </trkpt>
      <trkpt lat="43.07895" lon="1.32995">
        <ele>432.25</ele>
        <time>2017-03-30T14:43:45Z</time>
      </trkpt>
      <trkpt lat="43.07894" lon="1.32998">
        <ele>430.81</ele>
        <time>2017-03-30T14:43:47Z</time>
      </trkpt>
      <trkpt lat="43.07884" lon="1.33019">
        <ele>429.37</ele>
        <time>2017-03-30T14:44:03Z</time>
      </trkpt>
      <trkpt lat="43.07882" lon="1.33023">
        <ele>429.37</ele>
        <time>2017-03-30T14:44:06Z</time>
      </trkpt>
      <trkpt lat="43.07876" lon="1.33045">
        <ele>428.89</ele>
        <time>2017-03-30T14:44:20Z</time>
      </trkpt>
      <trkpt lat="43.07873" lon="1.33048">
        <ele>428.89</ele>
        <time>2017-03-30T14:44:23Z</time>
      </trkpt>
      <trkpt lat="43.07864" lon="1.33044">
        <ele>427.44</ele>
        <time>2017-03-30T14:44:37Z</time>
      </trkpt>
      <trkpt lat="43.07864" lon="1.33044">
        <ele>427.44</ele>
        <time>2017-03-30T14:44:55Z</time>
      </trkpt>
      <trkpt lat="43.07859" lon="1.33056">
        <ele>427.44</ele>
        <time>2017-03-30T14:45:27Z</time>
      </trkpt>
      <trkpt lat="43.07861" lon="1.33073">
        <ele>430.81</ele>
        <time>2017-03-30T14:45:41Z</time>
      </trkpt>
      <trkpt lat="43.07859" lon="1.33076">
        <ele>430.81</ele>
        <time>2017-03-30T14:45:43Z</time>
      </trkpt>
      <trkpt lat="43.07857" lon="1.33082">
        <ele>431.29</ele>
        <time>2017-03-30T14:46:00Z</time>
      </trkpt>
      <trkpt lat="43.07854" lon="1.33085">
        <ele>431.77</ele>
        <time>2017-03-30T14:46:08Z</time>
      </trkpt>
      <trkpt lat="43.07849" lon="1.33091">
        <ele>431.77</ele>
        <time>2017-03-30T14:46:22Z</time>
      </trkpt>
      <trkpt lat="43.07846" lon="1.33101">
        <ele>432.73</ele>
        <time>2017-03-30T14:46:38Z</time>
      </trkpt>
      <trkpt lat="43.07845" lon="1.33105">
        <ele>432.73</ele>
        <time>2017-03-30T14:46:41Z</time>
      </trkpt>
      <trkpt lat="43.07843" lon="1.33107">
        <ele>432.73</ele>
        <time>2017-03-30T14:46:43Z</time>
      </trkpt>
      <trkpt lat="43.07838" lon="1.33117">
        <ele>434.17</ele>
        <time>2017-03-30T14:46:50Z</time>
      </trkpt>
      <trkpt lat="43.07835" lon="1.33123">
        <ele>434.17</ele>
        <time>2017-03-30T14:46:55Z</time>
      </trkpt>
      <trkpt lat="43.07822" lon="1.33143">
        <ele>435.13</ele>
        <time>2017-03-30T14:47:13Z</time>
      </trkpt>
      <trkpt lat="43.0782" lon="1.33147">
        <ele>435.61</ele>
        <time>2017-03-30T14:47:16Z</time>
      </trkpt>
      <trkpt lat="43.07813" lon="1.3316">
        <ele>435.61</ele>
        <time>2017-03-30T14:47:27Z</time>
      </trkpt>
      <trkpt lat="43.07809" lon="1.33171">
        <ele>436.58</ele>
        <time>2017-03-30T14:47:35Z</time>
      </trkpt>
      <trkpt lat="43.07808" lon="1.33175">
        <ele>437.06</ele>
        <time>2017-03-30T14:47:38Z</time>
      </trkpt>
      <trkpt lat="43.07807" lon="1.33179">
        <ele>437.06</ele>
        <time>2017-03-30T14:47:41Z</time>
      </trkpt>
      <trkpt lat="43.07801" lon="1.33192">
        <ele>438.02</ele>
        <time>2017-03-30T14:47:51Z</time>
      </trkpt>
      <trkpt lat="43.07797" lon="1.33208">
        <ele>438.98</ele>
        <time>2017-03-30T14:48:01Z</time>
      </trkpt>
      <trkpt lat="43.07796" lon="1.33216">
        <ele>438.98</ele>
        <time>2017-03-30T14:48:06Z</time>
      </trkpt>
      <trkpt lat="43.07794" lon="1.33221">
        <ele>438.5</ele>
        <time>2017-03-30T14:48:10Z</time>
      </trkpt>
      <trkpt lat="43.07792" lon="1.33223">
        <ele>439.46</ele>
        <time>2017-03-30T14:48:12Z</time>
      </trkpt>
      <trkpt lat="43.07783" lon="1.33233">
        <ele>439.46</ele>
        <time>2017-03-30T14:48:23Z</time>
      </trkpt>
      <trkpt lat="43.07771" lon="1.33247">
        <ele>439.46</ele>
        <time>2017-03-30T14:48:35Z</time>
      </trkpt>
      <trkpt lat="43.07758" lon="1.33267">
        <ele>439.46</ele>
        <time>2017-03-30T14:48:51Z</time>
      </trkpt>
      <trkpt lat="43.07747" lon="1.33283">
        <ele>441.38</ele>
        <time>2017-03-30T14:49:07Z</time>
      </trkpt>
      <trkpt lat="43.07744" lon="1.33286">
        <ele>441.38</ele>
        <time>2017-03-30T14:49:20Z</time>
      </trkpt>
      <trkpt lat="43.07743" lon="1.33288">
        <ele>441.38</ele>
        <time>2017-03-30T14:49:22Z</time>
      </trkpt>
      <trkpt lat="43.07742" lon="1.3329">
        <ele>441.38</ele>
        <time>2017-03-30T14:49:23Z</time>
      </trkpt>
      <trkpt lat="43.07741" lon="1.33291">
        <ele>441.38</ele>
        <time>2017-03-30T14:49:24Z</time>
      </trkpt>
      <trkpt lat="43.07741" lon="1.33292">
        <ele>439.94</ele>
        <time>2017-03-30T14:49:25Z</time>
      </trkpt>
      <trkpt lat="43.0774" lon="1.33294">
        <ele>439.94</ele>
        <time>2017-03-30T14:49:26Z</time>
      </trkpt>
      <trkpt lat="43.07739" lon="1.33295">
        <ele>439.94</ele>
        <time>2017-03-30T14:49:27Z</time>
      </trkpt>
      <trkpt lat="43.07728" lon="1.33323">
        <ele>442.34</ele>
        <time>2017-03-30T14:49:45Z</time>
      </trkpt>
      <trkpt lat="43.0772" lon="1.33351">
        <ele>442.82</ele>
        <time>2017-03-30T14:50:04Z</time>
      </trkpt>
      <trkpt lat="43.07717" lon="1.33361">
        <ele>442.82</ele>
        <time>2017-03-30T14:50:11Z</time>
      </trkpt>
      <trkpt lat="43.07718" lon="1.33363">
        <ele>442.82</ele>
        <time>2017-03-30T14:50:13Z</time>
      </trkpt>
      <trkpt lat="43.07718" lon="1.33364">
        <ele>442.82</ele>
        <time>2017-03-30T14:50:14Z</time>
      </trkpt>
      <trkpt lat="43.0772" lon="1.33365">
        <ele>441.86</ele>
        <time>2017-03-30T14:50:16Z</time>
      </trkpt>
      <trkpt lat="43.07735" lon="1.33369">
        <ele>443.31</ele>
        <time>2017-03-30T14:50:31Z</time>
      </trkpt>
      <trkpt lat="43.07746" lon="1.33375">
        <ele>444.27</ele>
        <time>2017-03-30T14:50:43Z</time>
      </trkpt>
      <trkpt lat="43.07748" lon="1.33376">
        <ele>444.75</ele>
        <time>2017-03-30T14:50:45Z</time>
      </trkpt>
      <trkpt lat="43.07759" lon="1.33379">
        <ele>445.23</ele>
        <time>2017-03-30T14:50:53Z</time>
      </trkpt>
      <trkpt lat="43.0776" lon="1.3338">
        <ele>445.71</ele>
        <time>2017-03-30T14:50:54Z</time>
      </trkpt>
      <trkpt lat="43.07769" lon="1.33385">
        <ele>446.19</ele>
        <time>2017-03-30T14:51:07Z</time>
      </trkpt>
      <trkpt lat="43.07775" lon="1.33391">
        <ele>446.19</ele>
        <time>2017-03-30T14:51:21Z</time>
      </trkpt>
      <trkpt lat="43.07784" lon="1.334">
        <ele>446.19</ele>
        <time>2017-03-30T14:52:00Z</time>
      </trkpt>
      <trkpt lat="43.07799" lon="1.33416">
        <ele>444.27</ele>
        <time>2017-03-30T14:52:16Z</time>
      </trkpt>
      <trkpt lat="43.07806" lon="1.33441">
        <ele>443.31</ele>
        <time>2017-03-30T14:52:32Z</time>
      </trkpt>
      <trkpt lat="43.07824" lon="1.33455">
        <ele>444.75</ele>
        <time>2017-03-30T14:52:50Z</time>
      </trkpt>
      <trkpt lat="43.07837" lon="1.33473">
        <ele>445.23</ele>
        <time>2017-03-30T14:53:06Z</time>
      </trkpt>
      <trkpt lat="43.07852" lon="1.33478">
        <ele>446.67</ele>
        <time>2017-03-30T14:53:20Z</time>
      </trkpt>
      <trkpt lat="43.07869" lon="1.33478">
        <ele>447.15</ele>
        <time>2017-03-30T14:53:34Z</time>
      </trkpt>
      <trkpt lat="43.07869" lon="1.33479">
        <ele>447.15</ele>
        <time>2017-03-30T14:53:35Z</time>
      </trkpt>
      <trkpt lat="43.07869" lon="1.33481">
        <ele>447.15</ele>
        <time>2017-03-30T14:53:36Z</time>
      </trkpt>
      <trkpt lat="43.07869" lon="1.33488">
        <ele>447.15</ele>
        <time>2017-03-30T14:53:40Z</time>
      </trkpt>
      <trkpt lat="43.07869" lon="1.3349">
        <ele>447.63</ele>
        <time>2017-03-30T14:53:41Z</time>
      </trkpt>
      <trkpt lat="43.07866" lon="1.33516">
        <ele>449.07</ele>
        <time>2017-03-30T14:53:57Z</time>
      </trkpt>
      <trkpt lat="43.07865" lon="1.33529">
        <ele>451.48</ele>
        <time>2017-03-30T14:54:08Z</time>
      </trkpt>
      <trkpt lat="43.07866" lon="1.33536">
        <ele>451.48</ele>
        <time>2017-03-30T14:54:13Z</time>
      </trkpt>
      <trkpt lat="43.07866" lon="1.33537">
        <ele>451.48</ele>
        <time>2017-03-30T14:54:14Z</time>
      </trkpt>
      <trkpt lat="43.07866" lon="1.33559">
        <ele>450.03</ele>
        <time>2017-03-30T14:54:26Z</time>
      </trkpt>
      <trkpt lat="43.07865" lon="1.33586">
        <ele>449.07</ele>
        <time>2017-03-30T14:54:43Z</time>
      </trkpt>
      <trkpt lat="43.07866" lon="1.33615">
        <ele>448.59</ele>
        <time>2017-03-30T14:55:00Z</time>
      </trkpt>
      <trkpt lat="43.07866" lon="1.33624">
        <ele>449.55</ele>
        <time>2017-03-30T14:55:05Z</time>
      </trkpt>
      <trkpt lat="43.07866" lon="1.33625">
        <ele>449.55</ele>
        <time>2017-03-30T14:55:06Z</time>
      </trkpt>
      <trkpt lat="43.07867" lon="1.33627">
        <ele>449.55</ele>
        <time>2017-03-30T14:55:07Z</time>
      </trkpt>
      <trkpt lat="43.07867" lon="1.33632">
        <ele>450.03</ele>
        <time>2017-03-30T14:55:10Z</time>
      </trkpt>
      <trkpt lat="43.07867" lon="1.33633">
        <ele>450.03</ele>
        <time>2017-03-30T14:55:11Z</time>
      </trkpt>
      <trkpt lat="43.07867" lon="1.33635">
        <ele>450.03</ele>
        <time>2017-03-30T14:55:12Z</time>
      </trkpt>
      <trkpt lat="43.07867" lon="1.33637">
        <ele>450.52</ele>
        <time>2017-03-30T14:55:13Z</time>
      </trkpt>
      <trkpt lat="43.0787" lon="1.33659">
        <ele>452.44</ele>
        <time>2017-03-30T14:55:27Z</time>
      </trkpt>
      <trkpt lat="43.07873" lon="1.33682">
        <ele>454.36</ele>
        <time>2017-03-30T14:55:44Z</time>
      </trkpt>
      <trkpt lat="43.07878" lon="1.33701">
        <ele>456.28</ele>
        <time>2017-03-30T14:55:59Z</time>
      </trkpt>
      <trkpt lat="43.07877" lon="1.33723">
        <ele>458.69</ele>
        <time>2017-03-30T14:56:15Z</time>
      </trkpt>
      <trkpt lat="43.07874" lon="1.33748">
        <ele>461.09</ele>
        <time>2017-03-30T14:56:31Z</time>
      </trkpt>
      <trkpt lat="43.07877" lon="1.33771">
        <ele>463.01</ele>
        <time>2017-03-30T14:56:48Z</time>
      </trkpt>
      <trkpt lat="43.07881" lon="1.33792">
        <ele>463.97</ele>
        <time>2017-03-30T14:57:03Z</time>
      </trkpt>
      <trkpt lat="43.07886" lon="1.33817">
        <ele>465.42</ele>
        <time>2017-03-30T14:57:19Z</time>
      </trkpt>
      <trkpt lat="43.07888" lon="1.33843">
        <ele>467.34</ele>
        <time>2017-03-30T14:57:36Z</time>
      </trkpt>
      <trkpt lat="43.07895" lon="1.33872">
        <ele>468.3</ele>
        <time>2017-03-30T14:57:52Z</time>
      </trkpt>
      <trkpt lat="43.07899" lon="1.33898">
        <ele>469.74</ele>
        <time>2017-03-30T14:58:07Z</time>
      </trkpt>
      <trkpt lat="43.07901" lon="1.33925">
        <ele>471.18</ele>
        <time>2017-03-30T14:58:24Z</time>
      </trkpt>
      <trkpt lat="43.07898" lon="1.33955">
        <ele>471.66</ele>
        <time>2017-03-30T14:58:41Z</time>
      </trkpt>
      <trkpt lat="43.0789" lon="1.33983">
        <ele>472.63</ele>
        <time>2017-03-30T14:58:58Z</time>
      </trkpt>
      <trkpt lat="43.07888" lon="1.3399">
        <ele>470.7</ele>
        <time>2017-03-30T14:59:02Z</time>
      </trkpt>
      <trkpt lat="43.07887" lon="1.33997">
        <ele>471.66</ele>
        <time>2017-03-30T14:59:06Z</time>
      </trkpt>
      <trkpt lat="43.07879" lon="1.34023">
        <ele>472.14</ele>
        <time>2017-03-30T14:59:21Z</time>
      </trkpt>
      <trkpt lat="43.07873" lon="1.3404">
        <ele>473.59</ele>
        <time>2017-03-30T14:59:31Z</time>
      </trkpt>
      <trkpt lat="43.07868" lon="1.34049">
        <ele>473.59</ele>
        <time>2017-03-30T14:59:47Z</time>
      </trkpt>
      <trkpt lat="43.07864" lon="1.34068">
        <ele>472.14</ele>
        <time>2017-03-30T14:59:57Z</time>
      </trkpt>
      <trkpt lat="43.07855" lon="1.34093">
        <ele>472.14</ele>
        <time>2017-03-30T15:00:13Z</time>
      </trkpt>
      <trkpt lat="43.07859" lon="1.34113">
        <ele>471.66</ele>
        <time>2017-03-30T15:00:27Z</time>
      </trkpt>
      <trkpt lat="43.07878" lon="1.34119">
        <ele>471.18</ele>
        <time>2017-03-30T15:00:44Z</time>
      </trkpt>
      <trkpt lat="43.07897" lon="1.34135">
        <ele>470.7</ele>
        <time>2017-03-30T15:01:02Z</time>
      </trkpt>
      <trkpt lat="43.07907" lon="1.34155">
        <ele>470.22</ele>
        <time>2017-03-30T15:01:16Z</time>
      </trkpt>
      <trkpt lat="43.07919" lon="1.34172">
        <ele>470.22</ele>
        <time>2017-03-30T15:01:30Z</time>
      </trkpt>
      <trkpt lat="43.07927" lon="1.34195">
        <ele>470.22</ele>
        <time>2017-03-30T15:01:46Z</time>
      </trkpt>
      <trkpt lat="43.07935" lon="1.34215">
        <ele>470.22</ele>
        <time>2017-03-30T15:01:59Z</time>
      </trkpt>
      <trkpt lat="43.07943" lon="1.34236">
        <ele>470.22</ele>
        <time>2017-03-30T15:02:12Z</time>
      </trkpt>
      <trkpt lat="43.0795" lon="1.34257">
        <ele>470.22</ele>
        <time>2017-03-30T15:02:25Z</time>
      </trkpt>
      <trkpt lat="43.07959" lon="1.34283">
        <ele>471.18</ele>
        <time>2017-03-30T15:02:41Z</time>
      </trkpt>
      <trkpt lat="43.07967" lon="1.34295">
        <ele>471.18</ele>
        <time>2017-03-30T15:02:50Z</time>
      </trkpt>
      <trkpt lat="43.07967" lon="1.34297">
        <ele>471.18</ele>
        <time>2017-03-30T15:02:51Z</time>
      </trkpt>
      <trkpt lat="43.07967" lon="1.34299">
        <ele>471.18</ele>
        <time>2017-03-30T15:02:52Z</time>
      </trkpt>
      <trkpt lat="43.07976" lon="1.34322">
        <ele>471.18</ele>
        <time>2017-03-30T15:03:07Z</time>
      </trkpt>
      <trkpt lat="43.07984" lon="1.34339">
        <ele>469.74</ele>
        <time>2017-03-30T15:03:18Z</time>
      </trkpt>
      <trkpt lat="43.07995" lon="1.3436">
        <ele>469.26</ele>
        <time>2017-03-30T15:03:33Z</time>
      </trkpt>
      <trkpt lat="43.08007" lon="1.3438">
        <ele>469.26</ele>
        <time>2017-03-30T15:03:47Z</time>
      </trkpt>
      <trkpt lat="43.08021" lon="1.34397">
        <ele>469.26</ele>
        <time>2017-03-30T15:04:02Z</time>
      </trkpt>
      <trkpt lat="43.08033" lon="1.34409">
        <ele>469.26</ele>
        <time>2017-03-30T15:04:16Z</time>
      </trkpt>
      <trkpt lat="43.08034" lon="1.34411">
        <ele>469.26</ele>
        <time>2017-03-30T15:04:17Z</time>
      </trkpt>
      <trkpt lat="43.08035" lon="1.34412">
        <ele>469.26</ele>
        <time>2017-03-30T15:04:18Z</time>
      </trkpt>
      <trkpt lat="43.08036" lon="1.34414">
        <ele>469.26</ele>
        <time>2017-03-30T15:04:19Z</time>
      </trkpt>
      <trkpt lat="43.08042" lon="1.3444">
        <ele>466.38</ele>
        <time>2017-03-30T15:04:35Z</time>
      </trkpt>
      <trkpt lat="43.08036" lon="1.34459">
        <ele>465.42</ele>
        <time>2017-03-30T15:04:47Z</time>
      </trkpt>
      <trkpt lat="43.08035" lon="1.34461">
        <ele>465.42</ele>
        <time>2017-03-30T15:04:48Z</time>
      </trkpt>
      <trkpt lat="43.0803" lon="1.3449">
        <ele>463.97</ele>
        <time>2017-03-30T15:05:04Z</time>
      </trkpt>
      <trkpt lat="43.08026" lon="1.34515">
        <ele>461.09</ele>
        <time>2017-03-30T15:05:20Z</time>
      </trkpt>
      <trkpt lat="43.08025" lon="1.34534">
        <ele>458.69</ele>
        <time>2017-03-30T15:05:31Z</time>
      </trkpt>
      <trkpt lat="43.08025" lon="1.34538">
        <ele>458.21</ele>
        <time>2017-03-30T15:05:34Z</time>
      </trkpt>
      <trkpt lat="43.08023" lon="1.34551">
        <ele>457.24</ele>
        <time>2017-03-30T15:05:41Z</time>
      </trkpt>
      <trkpt lat="43.0802" lon="1.34578">
        <ele>454.36</ele>
        <time>2017-03-30T15:05:56Z</time>
      </trkpt>
      <trkpt lat="43.08015" lon="1.34605">
        <ele>451</ele>
        <time>2017-03-30T15:06:13Z</time>
      </trkpt>
      <trkpt lat="43.08015" lon="1.3463">
        <ele>449.07</ele>
        <time>2017-03-30T15:06:28Z</time>
      </trkpt>
      <trkpt lat="43.08024" lon="1.34654">
        <ele>447.15</ele>
        <time>2017-03-30T15:06:44Z</time>
      </trkpt>
      <trkpt lat="43.08025" lon="1.34661">
        <ele>447.15</ele>
        <time>2017-03-30T15:06:48Z</time>
      </trkpt>
      <trkpt lat="43.08024" lon="1.34687">
        <ele>445.23</ele>
        <time>2017-03-30T15:07:02Z</time>
      </trkpt>
      <trkpt lat="43.08021" lon="1.34717">
        <ele>442.82</ele>
        <time>2017-03-30T15:07:18Z</time>
      </trkpt>
      <trkpt lat="43.08022" lon="1.34752">
        <ele>440.9</ele>
        <time>2017-03-30T15:07:38Z</time>
      </trkpt>
      <trkpt lat="43.08022" lon="1.34753">
        <ele>440.9</ele>
        <time>2017-03-30T15:07:39Z</time>
      </trkpt>
      <trkpt lat="43.08021" lon="1.34758">
        <ele>440.9</ele>
        <time>2017-03-30T15:07:42Z</time>
      </trkpt>
      <trkpt lat="43.08012" lon="1.34768">
        <ele>439.94</ele>
        <time>2017-03-30T15:07:56Z</time>
      </trkpt>
      <trkpt lat="43.08005" lon="1.34769">
        <ele>439.94</ele>
        <time>2017-03-30T15:08:09Z</time>
      </trkpt>
      <trkpt lat="43.08002" lon="1.34775">
        <ele>439.46</ele>
        <time>2017-03-30T15:08:24Z</time>
      </trkpt>
      <trkpt lat="43.07998" lon="1.34767">
        <ele>438.98</ele>
        <time>2017-03-30T15:08:39Z</time>
      </trkpt>
      <trkpt lat="43.07998" lon="1.34764">
        <ele>438.98</ele>
        <time>2017-03-30T15:08:57Z</time>
      </trkpt>
      <trkpt lat="43.08002" lon="1.34761">
        <ele>438.98</ele>
        <time>2017-03-30T15:09:11Z</time>
      </trkpt>
      <trkpt lat="43.08005" lon="1.34762">
        <ele>438.98</ele>
        <time>2017-03-30T15:09:23Z</time>
      </trkpt>
      <trkpt lat="43.08006" lon="1.34763">
        <ele>438.98</ele>
        <time>2017-03-30T15:09:50Z</time>
      </trkpt>
      <trkpt lat="43.08011" lon="1.34766">
        <ele>438.98</ele>
        <time>2017-03-30T15:10:08Z</time>
      </trkpt>
      <trkpt lat="43.08013" lon="1.34765">
        <ele>440.42</ele>
        <time>2017-03-30T15:10:10Z</time>
      </trkpt>
      <trkpt lat="43.08017" lon="1.34765">
        <ele>440.9</ele>
        <time>2017-03-30T15:10:13Z</time>
      </trkpt>
      <trkpt lat="43.08026" lon="1.34775">
        <ele>440.9</ele>
        <time>2017-03-30T15:10:27Z</time>
      </trkpt>
      <trkpt lat="43.08022" lon="1.34777">
        <ele>440.9</ele>
        <time>2017-03-30T15:10:37Z</time>
      </trkpt>
      <trkpt lat="43.08017" lon="1.3478">
        <ele>439.46</ele>
        <time>2017-03-30T15:10:41Z</time>
      </trkpt>
      <trkpt lat="43.08" lon="1.34789">
        <ele>436.1</ele>
        <time>2017-03-30T15:10:55Z</time>
      </trkpt>
      <trkpt lat="43.07996" lon="1.34794">
        <ele>435.13</ele>
        <time>2017-03-30T15:11:00Z</time>
      </trkpt>
      <trkpt lat="43.07993" lon="1.34821">
        <ele>432.25</ele>
        <time>2017-03-30T15:11:17Z</time>
      </trkpt>
      <trkpt lat="43.07992" lon="1.34861">
        <ele>431.77</ele>
        <time>2017-03-30T15:11:38Z</time>
      </trkpt>
      <trkpt lat="43.07989" lon="1.34889">
        <ele>431.29</ele>
        <time>2017-03-30T15:11:54Z</time>
      </trkpt>
      <trkpt lat="43.0799" lon="1.3491">
        <ele>430.33</ele>
        <time>2017-03-30T15:12:05Z</time>
      </trkpt>
      <trkpt lat="43.0799" lon="1.34911">
        <ele>430.33</ele>
        <time>2017-03-30T15:12:06Z</time>
      </trkpt>
      <trkpt lat="43.07991" lon="1.34939">
        <ele>430.33</ele>
        <time>2017-03-30T15:12:22Z</time>
      </trkpt>
      <trkpt lat="43.07993" lon="1.34951">
        <ele>430.33</ele>
        <time>2017-03-30T15:12:37Z</time>
      </trkpt>
      <trkpt lat="43.07993" lon="1.3496">
        <ele>430.33</ele>
        <time>2017-03-30T15:13:05Z</time>
      </trkpt>
      <trkpt lat="43.07994" lon="1.34967">
        <ele>430.33</ele>
        <time>2017-03-30T15:13:21Z</time>
      </trkpt>
      <trkpt lat="43.07996" lon="1.34973">
        <ele>430.33</ele>
        <time>2017-03-30T15:13:56Z</time>
      </trkpt>
      <trkpt lat="43.08002" lon="1.35001">
        <ele>431.29</ele>
        <time>2017-03-30T15:14:33Z</time>
      </trkpt>
      <trkpt lat="43.08007" lon="1.3503">
        <ele>429.85</ele>
        <time>2017-03-30T15:14:50Z</time>
      </trkpt>
      <trkpt lat="43.08008" lon="1.35054">
        <ele>428.89</ele>
        <time>2017-03-30T15:15:05Z</time>
      </trkpt>
      <trkpt lat="43.08015" lon="1.35084">
        <ele>427.92</ele>
        <time>2017-03-30T15:15:23Z</time>
      </trkpt>
      <trkpt lat="43.0802" lon="1.35085">
        <ele>426.96</ele>
        <time>2017-03-30T15:15:37Z</time>
      </trkpt>
      <trkpt lat="43.08021" lon="1.35083">
        <ele>426.48</ele>
        <time>2017-03-30T15:15:56Z</time>
      </trkpt>
    </trkseg>
  </trk>
  <trk>
    <name><![CDATA[Le Mas d'Azil corniches]]></name>
    <trkseg>
      <trkpt lat="43.07253" lon="1.35654">
        <ele>313.05</ele>
        <time>2017-04-08T11:52:25Z</time>
      </trkpt>
      <trkpt lat="43.07253" lon="1.35654">
        <ele>313.05</ele>
        <time>2017-04-08T11:52:26Z</time>
      </trkpt>
      <trkpt lat="43.07262" lon="1.35664">
        <ele>313.05</ele>
        <time>2017-04-08T11:53:13Z</time>
      </trkpt>
      <trkpt lat="43.07281" lon="1.3567">
        <ele>313.05</ele>
        <time>2017-04-08T11:53:27Z</time>
      </trkpt>
      <trkpt lat="43.07283" lon="1.3567">
        <ele>313.05</ele>
        <time>2017-04-08T11:53:29Z</time>
      </trkpt>
      <trkpt lat="43.07274" lon="1.35679">
        <ele>314.49</ele>
        <time>2017-04-08T11:53:40Z</time>
      </trkpt>
      <trkpt lat="43.07262" lon="1.35684">
        <ele>316.89</ele>
        <time>2017-04-08T11:53:52Z</time>
      </trkpt>
      <trkpt lat="43.07251" lon="1.35689">
        <ele>318.81</ele>
        <time>2017-04-08T11:54:02Z</time>
      </trkpt>
      <trkpt lat="43.0725" lon="1.35689">
        <ele>318.81</ele>
        <time>2017-04-08T11:54:03Z</time>
      </trkpt>
      <trkpt lat="43.07243" lon="1.35688">
        <ele>318.33</ele>
        <time>2017-04-08T11:54:09Z</time>
      </trkpt>
      <trkpt lat="43.07241" lon="1.35687">
        <ele>319.78</ele>
        <time>2017-04-08T11:54:11Z</time>
      </trkpt>
      <trkpt lat="43.07221" lon="1.35682">
        <ele>321.7</ele>
        <time>2017-04-08T11:54:29Z</time>
      </trkpt>
      <trkpt lat="43.0721" lon="1.35685">
        <ele>322.18</ele>
        <time>2017-04-08T11:54:40Z</time>
      </trkpt>
      <trkpt lat="43.07207" lon="1.35686">
        <ele>320.74</ele>
        <time>2017-04-08T11:54:43Z</time>
      </trkpt>
      <trkpt lat="43.07204" lon="1.35687">
        <ele>322.18</ele>
        <time>2017-04-08T11:54:45Z</time>
      </trkpt>
      <trkpt lat="43.07185" lon="1.35693">
        <ele>323.62</ele>
        <time>2017-04-08T11:54:59Z</time>
      </trkpt>
      <trkpt lat="43.07179" lon="1.35713">
        <ele>327.47</ele>
        <time>2017-04-08T11:55:52Z</time>
      </trkpt>
      <trkpt lat="43.07179" lon="1.35714">
        <ele>327.47</ele>
        <time>2017-04-08T11:55:53Z</time>
      </trkpt>
      <trkpt lat="43.07183" lon="1.35715">
        <ele>326.02</ele>
        <time>2017-04-08T11:55:56Z</time>
      </trkpt>
      <trkpt lat="43.07184" lon="1.35714">
        <ele>327.47</ele>
        <time>2017-04-08T11:55:57Z</time>
      </trkpt>
      <trkpt lat="43.07196" lon="1.35718">
        <ele>326.5</ele>
        <time>2017-04-08T11:56:06Z</time>
      </trkpt>
      <trkpt lat="43.07198" lon="1.35719">
        <ele>328.43</ele>
        <time>2017-04-08T11:56:08Z</time>
      </trkpt>
      <trkpt lat="43.072" lon="1.3572">
        <ele>326.99</ele>
        <time>2017-04-08T11:56:10Z</time>
      </trkpt>
      <trkpt lat="43.07204" lon="1.35722">
        <ele>327.95</ele>
        <time>2017-04-08T11:56:13Z</time>
      </trkpt>
      <trkpt lat="43.0722" lon="1.35737">
        <ele>330.83</ele>
        <time>2017-04-08T11:56:27Z</time>
      </trkpt>
      <trkpt lat="43.0724" lon="1.35754">
        <ele>332.75</ele>
        <time>2017-04-08T11:56:46Z</time>
      </trkpt>
      <trkpt lat="43.07247" lon="1.3576">
        <ele>333.23</ele>
        <time>2017-04-08T11:56:52Z</time>
      </trkpt>
      <trkpt lat="43.07269" lon="1.35775">
        <ele>336.12</ele>
        <time>2017-04-08T11:57:12Z</time>
      </trkpt>
      <trkpt lat="43.07271" lon="1.35777">
        <ele>334.68</ele>
        <time>2017-04-08T11:57:14Z</time>
      </trkpt>
      <trkpt lat="43.07274" lon="1.35778">
        <ele>336.6</ele>
        <time>2017-04-08T11:57:16Z</time>
      </trkpt>
      <trkpt lat="43.07283" lon="1.35787">
        <ele>339</ele>
        <time>2017-04-08T11:57:25Z</time>
      </trkpt>
      <trkpt lat="43.07285" lon="1.3579">
        <ele>337.56</ele>
        <time>2017-04-08T11:57:28Z</time>
      </trkpt>
      <trkpt lat="43.07286" lon="1.35793">
        <ele>339</ele>
        <time>2017-04-08T11:57:30Z</time>
      </trkpt>
      <trkpt lat="43.07286" lon="1.35807">
        <ele>341.41</ele>
        <time>2017-04-08T11:57:40Z</time>
      </trkpt>
      <trkpt lat="43.07283" lon="1.35814">
        <ele>341.89</ele>
        <time>2017-04-08T11:57:45Z</time>
      </trkpt>
      <trkpt lat="43.07273" lon="1.35826">
        <ele>343.81</ele>
        <time>2017-04-08T11:57:58Z</time>
      </trkpt>
      <trkpt lat="43.07258" lon="1.35828">
        <ele>344.77</ele>
        <time>2017-04-08T11:58:10Z</time>
      </trkpt>
      <trkpt lat="43.07239" lon="1.35823">
        <ele>346.21</ele>
        <time>2017-04-08T11:58:25Z</time>
      </trkpt>
      <trkpt lat="43.07223" lon="1.35809">
        <ele>348.62</ele>
        <time>2017-04-08T11:58:40Z</time>
      </trkpt>
      <trkpt lat="43.07211" lon="1.35799">
        <ele>348.13</ele>
        <time>2017-04-08T11:58:51Z</time>
      </trkpt>
      <trkpt lat="43.07209" lon="1.35798">
        <ele>350.06</ele>
        <time>2017-04-08T11:58:53Z</time>
      </trkpt>
      <trkpt lat="43.07197" lon="1.35791">
        <ele>351.02</ele>
        <time>2017-04-08T11:59:04Z</time>
      </trkpt>
      <trkpt lat="43.07191" lon="1.35792">
        <ele>352.46</ele>
        <time>2017-04-08T11:59:09Z</time>
      </trkpt>
      <trkpt lat="43.07179" lon="1.35797">
        <ele>353.42</ele>
        <time>2017-04-08T11:59:20Z</time>
      </trkpt>
      <trkpt lat="43.07169" lon="1.35793">
        <ele>354.86</ele>
        <time>2017-04-08T11:59:30Z</time>
      </trkpt>
      <trkpt lat="43.07167" lon="1.35791">
        <ele>353.42</ele>
        <time>2017-04-08T11:59:33Z</time>
      </trkpt>
      <trkpt lat="43.07166" lon="1.35789">
        <ele>354.38</ele>
        <time>2017-04-08T11:59:35Z</time>
      </trkpt>
      <trkpt lat="43.07157" lon="1.35775">
        <ele>356.79</ele>
        <time>2017-04-08T11:59:46Z</time>
      </trkpt>
      <trkpt lat="43.07148" lon="1.3576">
        <ele>358.23</ele>
        <time>2017-04-08T11:59:57Z</time>
      </trkpt>
      <trkpt lat="43.07128" lon="1.35742">
        <ele>361.59</ele>
        <time>2017-04-08T12:00:16Z</time>
      </trkpt>
      <trkpt lat="43.07115" lon="1.35733">
        <ele>362.55</ele>
        <time>2017-04-08T12:00:32Z</time>
      </trkpt>
      <trkpt lat="43.07114" lon="1.35727">
        <ele>363.04</ele>
        <time>2017-04-08T12:01:02Z</time>
      </trkpt>
      <trkpt lat="43.07113" lon="1.35727">
        <ele>363.04</ele>
        <time>2017-04-08T12:01:29Z</time>
      </trkpt>
      <trkpt lat="43.07105" lon="1.35723">
        <ele>363.52</ele>
        <time>2017-04-08T12:01:53Z</time>
      </trkpt>
      <trkpt lat="43.07082" lon="1.35716">
        <ele>365.92</ele>
        <time>2017-04-08T12:02:10Z</time>
      </trkpt>
      <trkpt lat="43.07068" lon="1.35708">
        <ele>367.36</ele>
        <time>2017-04-08T12:02:23Z</time>
      </trkpt>
      <trkpt lat="43.07059" lon="1.35703">
        <ele>369.28</ele>
        <time>2017-04-08T12:02:31Z</time>
      </trkpt>
      <trkpt lat="43.07042" lon="1.35693">
        <ele>369.76</ele>
        <time>2017-04-08T12:02:46Z</time>
      </trkpt>
      <trkpt lat="43.07023" lon="1.35684">
        <ele>372.17</ele>
        <time>2017-04-08T12:03:02Z</time>
      </trkpt>
      <trkpt lat="43.0702" lon="1.35683">
        <ele>373.61</ele>
        <time>2017-04-08T12:03:04Z</time>
      </trkpt>
      <trkpt lat="43.07014" lon="1.35681">
        <ele>373.61</ele>
        <time>2017-04-08T12:03:17Z</time>
      </trkpt>
      <trkpt lat="43.07012" lon="1.35677">
        <ele>370.73</ele>
        <time>2017-04-08T12:04:13Z</time>
      </trkpt>
      <trkpt lat="43.07011" lon="1.35676">
        <ele>376.01</ele>
        <time>2017-04-08T12:04:14Z</time>
      </trkpt>
      <trkpt lat="43.0701" lon="1.35669">
        <ele>375.05</ele>
        <time>2017-04-08T12:04:20Z</time>
      </trkpt>
      <trkpt lat="43.07008" lon="1.35659">
        <ele>377.94</ele>
        <time>2017-04-08T12:04:28Z</time>
      </trkpt>
      <trkpt lat="43.07008" lon="1.35657">
        <ele>377.94</ele>
        <time>2017-04-08T12:04:29Z</time>
      </trkpt>
      <trkpt lat="43.07006" lon="1.35653">
        <ele>378.42</ele>
        <time>2017-04-08T12:04:33Z</time>
      </trkpt>
      <trkpt lat="43.07001" lon="1.35629">
        <ele>379.86</ele>
        <time>2017-04-08T12:04:48Z</time>
      </trkpt>
      <trkpt lat="43.06997" lon="1.35609">
        <ele>383.22</ele>
        <time>2017-04-08T12:05:05Z</time>
      </trkpt>
      <trkpt lat="43.06994" lon="1.35588">
        <ele>387.07</ele>
        <time>2017-04-08T12:05:22Z</time>
      </trkpt>
      <trkpt lat="43.06999" lon="1.3558">
        <ele>388.51</ele>
        <time>2017-04-08T12:05:32Z</time>
      </trkpt>
      <trkpt lat="43.07005" lon="1.35575">
        <ele>391.39</ele>
        <time>2017-04-08T12:05:40Z</time>
      </trkpt>
      <trkpt lat="43.07005" lon="1.35572">
        <ele>389.95</ele>
        <time>2017-04-08T12:06:19Z</time>
      </trkpt>
      <trkpt lat="43.06997" lon="1.3557">
        <ele>392.84</ele>
        <time>2017-04-08T12:06:58Z</time>
      </trkpt>
      <trkpt lat="43.06995" lon="1.35569">
        <ele>392.84</ele>
        <time>2017-04-08T12:07:00Z</time>
      </trkpt>
      <trkpt lat="43.06986" lon="1.35566">
        <ele>396.2</ele>
        <time>2017-04-08T12:07:10Z</time>
      </trkpt>
      <trkpt lat="43.06973" lon="1.35564">
        <ele>399.08</ele>
        <time>2017-04-08T12:07:25Z</time>
      </trkpt>
      <trkpt lat="43.06958" lon="1.35561">
        <ele>402.93</ele>
        <time>2017-04-08T12:07:45Z</time>
      </trkpt>
      <trkpt lat="43.06957" lon="1.35561">
        <ele>402.93</ele>
        <time>2017-04-08T12:07:46Z</time>
      </trkpt>
      <trkpt lat="43.06956" lon="1.35561">
        <ele>401.97</ele>
        <time>2017-04-08T12:07:48Z</time>
      </trkpt>
      <trkpt lat="43.06953" lon="1.35561">
        <ele>403.89</ele>
        <time>2017-04-08T12:07:52Z</time>
      </trkpt>
      <trkpt lat="43.06943" lon="1.35553">
        <ele>407.26</ele>
        <time>2017-04-08T12:08:05Z</time>
      </trkpt>
      <trkpt lat="43.06942" lon="1.3555">
        <ele>406.77</ele>
        <time>2017-04-08T12:08:09Z</time>
      </trkpt>
      <trkpt lat="43.06941" lon="1.35549">
        <ele>405.33</ele>
        <time>2017-04-08T12:08:11Z</time>
      </trkpt>
      <trkpt lat="43.06933" lon="1.3554">
        <ele>409.66</ele>
        <time>2017-04-08T12:08:22Z</time>
      </trkpt>
      <trkpt lat="43.06932" lon="1.35539">
        <ele>409.66</ele>
        <time>2017-04-08T12:08:23Z</time>
      </trkpt>
      <trkpt lat="43.06927" lon="1.35536">
        <ele>409.18</ele>
        <time>2017-04-08T12:08:29Z</time>
      </trkpt>
      <trkpt lat="43.06925" lon="1.35535">
        <ele>411.1</ele>
        <time>2017-04-08T12:08:31Z</time>
      </trkpt>
      <trkpt lat="43.06916" lon="1.35523">
        <ele>413.02</ele>
        <time>2017-04-08T12:08:46Z</time>
      </trkpt>
      <trkpt lat="43.06901" lon="1.35504">
        <ele>416.87</ele>
        <time>2017-04-08T12:09:06Z</time>
      </trkpt>
      <trkpt lat="43.06897" lon="1.35499">
        <ele>417.35</ele>
        <time>2017-04-08T12:09:11Z</time>
      </trkpt>
      <trkpt lat="43.06893" lon="1.35484">
        <ele>421.19</ele>
        <time>2017-04-08T12:09:25Z</time>
      </trkpt>
      <trkpt lat="43.06892" lon="1.35482">
        <ele>421.19</ele>
        <time>2017-04-08T12:09:26Z</time>
      </trkpt>
      <trkpt lat="43.06891" lon="1.35472">
        <ele>421.19</ele>
        <time>2017-04-08T12:09:33Z</time>
      </trkpt>
      <trkpt lat="43.0689" lon="1.35451">
        <ele>425.04</ele>
        <time>2017-04-08T12:09:48Z</time>
      </trkpt>
      <trkpt lat="43.0689" lon="1.35449">
        <ele>425.04</ele>
        <time>2017-04-08T12:09:49Z</time>
      </trkpt>
      <trkpt lat="43.06887" lon="1.3544">
        <ele>427.44</ele>
        <time>2017-04-08T12:10:05Z</time>
      </trkpt>
      <trkpt lat="43.06881" lon="1.35433">
        <ele>430.33</ele>
        <time>2017-04-08T12:10:17Z</time>
      </trkpt>
      <trkpt lat="43.0688" lon="1.35432">
        <ele>430.33</ele>
        <time>2017-04-08T12:10:18Z</time>
      </trkpt>
      <trkpt lat="43.06871" lon="1.35424">
        <ele>432.25</ele>
        <time>2017-04-08T12:10:30Z</time>
      </trkpt>
      <trkpt lat="43.06861" lon="1.35411">
        <ele>434.65</ele>
        <time>2017-04-08T12:10:48Z</time>
      </trkpt>
      <trkpt lat="43.06856" lon="1.354">
        <ele>437.06</ele>
        <time>2017-04-08T12:10:58Z</time>
      </trkpt>
      <trkpt lat="43.06849" lon="1.35388">
        <ele>440.42</ele>
        <time>2017-04-08T12:11:12Z</time>
      </trkpt>
      <trkpt lat="43.06846" lon="1.35382">
        <ele>441.86</ele>
        <time>2017-04-08T12:11:18Z</time>
      </trkpt>
      <trkpt lat="43.06843" lon="1.35373">
        <ele>443.79</ele>
        <time>2017-04-08T12:11:26Z</time>
      </trkpt>
      <trkpt lat="43.06841" lon="1.35364">
        <ele>445.71</ele>
        <time>2017-04-08T12:11:34Z</time>
      </trkpt>
      <trkpt lat="43.06836" lon="1.35344">
        <ele>448.59</ele>
        <time>2017-04-08T12:11:50Z</time>
      </trkpt>
      <trkpt lat="43.06834" lon="1.35325">
        <ele>451.96</ele>
        <time>2017-04-08T12:12:06Z</time>
      </trkpt>
      <trkpt lat="43.06825" lon="1.35304">
        <ele>452.92</ele>
        <time>2017-04-08T12:12:23Z</time>
      </trkpt>
      <trkpt lat="43.06823" lon="1.35293">
        <ele>453.4</ele>
        <time>2017-04-08T12:12:33Z</time>
      </trkpt>
      <trkpt lat="43.06823" lon="1.35289">
        <ele>454.84</ele>
        <time>2017-04-08T12:12:35Z</time>
      </trkpt>
      <trkpt lat="43.06822" lon="1.35284">
        <ele>454.84</ele>
        <time>2017-04-08T12:12:38Z</time>
      </trkpt>
      <trkpt lat="43.06821" lon="1.35274">
        <ele>454.36</ele>
        <time>2017-04-08T12:12:44Z</time>
      </trkpt>
      <trkpt lat="43.06817" lon="1.35252">
        <ele>457.72</ele>
        <time>2017-04-08T12:12:57Z</time>
      </trkpt>
      <trkpt lat="43.06809" lon="1.35235">
        <ele>458.21</ele>
        <time>2017-04-08T12:13:12Z</time>
      </trkpt>
      <trkpt lat="43.06808" lon="1.35231">
        <ele>456.76</ele>
        <time>2017-04-08T12:13:15Z</time>
      </trkpt>
      <trkpt lat="43.06808" lon="1.35228">
        <ele>458.21</ele>
        <time>2017-04-08T12:13:17Z</time>
      </trkpt>
      <trkpt lat="43.06807" lon="1.35225">
        <ele>458.21</ele>
        <time>2017-04-08T12:13:35Z</time>
      </trkpt>
      <trkpt lat="43.06803" lon="1.35223">
        <ele>456.28</ele>
        <time>2017-04-08T12:14:52Z</time>
      </trkpt>
      <trkpt lat="43.06799" lon="1.3522">
        <ele>454.84</ele>
        <time>2017-04-08T12:15:12Z</time>
      </trkpt>
      <trkpt lat="43.06798" lon="1.35221">
        <ele>454.36</ele>
        <time>2017-04-08T12:15:45Z</time>
      </trkpt>
      <trkpt lat="43.06796" lon="1.35221">
        <ele>455.32</ele>
        <time>2017-04-08T12:16:14Z</time>
      </trkpt>
      <trkpt lat="43.06795" lon="1.3522">
        <ele>453.88</ele>
        <time>2017-04-08T12:16:16Z</time>
      </trkpt>
      <trkpt lat="43.06786" lon="1.35218">
        <ele>451</ele>
        <time>2017-04-08T12:16:33Z</time>
      </trkpt>
      <trkpt lat="43.06785" lon="1.35218">
        <ele>451</ele>
        <time>2017-04-08T12:16:36Z</time>
      </trkpt>
      <trkpt lat="43.06774" lon="1.35225">
        <ele>449.55</ele>
        <time>2017-04-08T12:16:51Z</time>
      </trkpt>
      <trkpt lat="43.06771" lon="1.35224">
        <ele>448.11</ele>
        <time>2017-04-08T12:18:38Z</time>
      </trkpt>
      <trkpt lat="43.06762" lon="1.35231">
        <ele>444.75</ele>
        <time>2017-04-08T12:18:53Z</time>
      </trkpt>
      <trkpt lat="43.0676" lon="1.35232">
        <ele>444.75</ele>
        <time>2017-04-08T12:18:56Z</time>
      </trkpt>
      <trkpt lat="43.06751" lon="1.35242">
        <ele>441.38</ele>
        <time>2017-04-08T12:19:14Z</time>
      </trkpt>
      <trkpt lat="43.06749" lon="1.35243">
        <ele>440.9</ele>
        <time>2017-04-08T12:19:37Z</time>
      </trkpt>
      <trkpt lat="43.06742" lon="1.35249">
        <ele>438.02</ele>
        <time>2017-04-08T12:19:52Z</time>
      </trkpt>
      <trkpt lat="43.06738" lon="1.3525">
        <ele>436.1</ele>
        <time>2017-04-08T12:20:46Z</time>
      </trkpt>
      <trkpt lat="43.06734" lon="1.35251">
        <ele>436.1</ele>
        <time>2017-04-08T12:21:13Z</time>
      </trkpt>
      <trkpt lat="43.0673" lon="1.35254">
        <ele>433.69</ele>
        <time>2017-04-08T12:21:33Z</time>
      </trkpt>
      <trkpt lat="43.06729" lon="1.35256">
        <ele>432.73</ele>
        <time>2017-04-08T12:21:56Z</time>
      </trkpt>
      <trkpt lat="43.06722" lon="1.35245">
        <ele>431.77</ele>
        <time>2017-04-08T12:22:09Z</time>
      </trkpt>
      <trkpt lat="43.06718" lon="1.3524">
        <ele>431.29</ele>
        <time>2017-04-08T12:22:24Z</time>
      </trkpt>
      <trkpt lat="43.06717" lon="1.3524">
        <ele>431.29</ele>
        <time>2017-04-08T12:22:36Z</time>
      </trkpt>
      <trkpt lat="43.06713" lon="1.35241">
        <ele>430.33</ele>
        <time>2017-04-08T12:22:41Z</time>
      </trkpt>
      <trkpt lat="43.06707" lon="1.3524">
        <ele>428.89</ele>
        <time>2017-04-08T12:22:52Z</time>
      </trkpt>
      <trkpt lat="43.06701" lon="1.35246">
        <ele>425.04</ele>
        <time>2017-04-08T12:23:24Z</time>
      </trkpt>
      <trkpt lat="43.06697" lon="1.35248">
        <ele>425.04</ele>
        <time>2017-04-08T12:23:40Z</time>
      </trkpt>
      <trkpt lat="43.06697" lon="1.35243">
        <ele>425.52</ele>
        <time>2017-04-08T12:23:59Z</time>
      </trkpt>
      <trkpt lat="43.06697" lon="1.35242">
        <ele>425.52</ele>
        <time>2017-04-08T12:24:23Z</time>
      </trkpt>
      <trkpt lat="43.06697" lon="1.35241">
        <ele>425.52</ele>
        <time>2017-04-08T12:24:46Z</time>
      </trkpt>
      <trkpt lat="43.06697" lon="1.3524">
        <ele>424.56</ele>
        <time>2017-04-08T12:24:55Z</time>
      </trkpt>
      <trkpt lat="43.06698" lon="1.35236">
        <ele>425.52</ele>
        <time>2017-04-08T12:25:44Z</time>
      </trkpt>
      <trkpt lat="43.06691" lon="1.35234">
        <ele>422.64</ele>
        <time>2017-04-08T12:26:42Z</time>
      </trkpt>
      <trkpt lat="43.06691" lon="1.35243">
        <ele>421.68</ele>
        <time>2017-04-08T12:26:58Z</time>
      </trkpt>
      <trkpt lat="43.06696" lon="1.35252">
        <ele>420.71</ele>
        <time>2017-04-08T12:27:12Z</time>
      </trkpt>
      <trkpt lat="43.06696" lon="1.35253">
        <ele>421.68</ele>
        <time>2017-04-08T12:27:14Z</time>
      </trkpt>
      <trkpt lat="43.067" lon="1.35261">
        <ele>420.23</ele>
        <time>2017-04-08T12:27:21Z</time>
      </trkpt>
      <trkpt lat="43.06712" lon="1.35276">
        <ele>419.27</ele>
        <time>2017-04-08T12:27:36Z</time>
      </trkpt>
      <trkpt lat="43.06716" lon="1.35282">
        <ele>419.27</ele>
        <time>2017-04-08T12:27:42Z</time>
      </trkpt>
      <trkpt lat="43.06722" lon="1.35289">
        <ele>418.79</ele>
        <time>2017-04-08T12:27:49Z</time>
      </trkpt>
      <trkpt lat="43.0673" lon="1.35296">
        <ele>418.31</ele>
        <time>2017-04-08T12:27:59Z</time>
      </trkpt>
      <trkpt lat="43.06742" lon="1.35309">
        <ele>418.31</ele>
        <time>2017-04-08T12:28:15Z</time>
      </trkpt>
      <trkpt lat="43.06751" lon="1.35321">
        <ele>418.79</ele>
        <time>2017-04-08T12:28:32Z</time>
      </trkpt>
      <trkpt lat="43.0676" lon="1.35331">
        <ele>419.75</ele>
        <time>2017-04-08T12:28:41Z</time>
      </trkpt>
      <trkpt lat="43.06768" lon="1.3535">
        <ele>420.71</ele>
        <time>2017-04-08T12:28:56Z</time>
      </trkpt>
      <trkpt lat="43.06769" lon="1.35351">
        <ele>421.68</ele>
        <time>2017-04-08T12:28:57Z</time>
      </trkpt>
      <trkpt lat="43.06777" lon="1.35366">
        <ele>422.64</ele>
        <time>2017-04-08T12:29:12Z</time>
      </trkpt>
      <trkpt lat="43.06778" lon="1.35369">
        <ele>421.19</ele>
        <time>2017-04-08T12:29:15Z</time>
      </trkpt>
      <trkpt lat="43.0678" lon="1.35374">
        <ele>419.75</ele>
        <time>2017-04-08T12:29:19Z</time>
      </trkpt>
      <trkpt lat="43.06787" lon="1.35387">
        <ele>417.83</ele>
        <time>2017-04-08T12:29:33Z</time>
      </trkpt>
      <trkpt lat="43.06788" lon="1.35386">
        <ele>417.83</ele>
        <time>2017-04-08T12:29:50Z</time>
      </trkpt>
      <trkpt lat="43.0679" lon="1.35388">
        <ele>417.35</ele>
        <time>2017-04-08T12:30:11Z</time>
      </trkpt>
      <trkpt lat="43.06791" lon="1.35392">
        <ele>418.79</ele>
        <time>2017-04-08T12:30:37Z</time>
      </trkpt>
      <trkpt lat="43.06792" lon="1.35394">
        <ele>417.83</ele>
        <time>2017-04-08T12:31:26Z</time>
      </trkpt>
      <trkpt lat="43.06796" lon="1.35394">
        <ele>417.35</ele>
        <time>2017-04-08T12:31:44Z</time>
      </trkpt>
      <trkpt lat="43.06797" lon="1.35396">
        <ele>418.31</ele>
        <time>2017-04-08T12:31:47Z</time>
      </trkpt>
      <trkpt lat="43.06801" lon="1.35401">
        <ele>417.35</ele>
        <time>2017-04-08T12:32:04Z</time>
      </trkpt>
      <trkpt lat="43.06804" lon="1.35405">
        <ele>418.79</ele>
        <time>2017-04-08T12:32:16Z</time>
      </trkpt>
      <trkpt lat="43.06806" lon="1.35406">
        <ele>417.35</ele>
        <time>2017-04-08T12:32:18Z</time>
      </trkpt>
      <trkpt lat="43.06808" lon="1.35408">
        <ele>416.87</ele>
        <time>2017-04-08T12:32:21Z</time>
      </trkpt>
      <trkpt lat="43.06815" lon="1.35415">
        <ele>416.87</ele>
        <time>2017-04-08T12:32:27Z</time>
      </trkpt>
      <trkpt lat="43.06817" lon="1.35419">
        <ele>415.91</ele>
        <time>2017-04-08T12:32:33Z</time>
      </trkpt>
      <trkpt lat="43.06821" lon="1.35419">
        <ele>419.27</ele>
        <time>2017-04-08T12:32:43Z</time>
      </trkpt>
      <trkpt lat="43.06826" lon="1.35418">
        <ele>421.19</ele>
        <time>2017-04-08T12:32:51Z</time>
      </trkpt>
      <trkpt lat="43.06839" lon="1.3543">
        <ele>421.68</ele>
        <time>2017-04-08T12:33:08Z</time>
      </trkpt>
      <trkpt lat="43.06843" lon="1.35436">
        <ele>421.68</ele>
        <time>2017-04-08T12:33:25Z</time>
      </trkpt>
      <trkpt lat="43.06847" lon="1.35439">
        <ele>421.19</ele>
        <time>2017-04-08T12:33:37Z</time>
      </trkpt>
      <trkpt lat="43.0685" lon="1.35438">
        <ele>420.71</ele>
        <time>2017-04-08T12:34:03Z</time>
      </trkpt>
      <trkpt lat="43.06863" lon="1.35443">
        <ele>422.64</ele>
        <time>2017-04-08T12:34:19Z</time>
      </trkpt>
      <trkpt lat="43.06865" lon="1.35444">
        <ele>422.16</ele>
        <time>2017-04-08T12:34:44Z</time>
      </trkpt>
      <trkpt lat="43.06871" lon="1.35441">
        <ele>424.08</ele>
        <time>2017-04-08T12:34:50Z</time>
      </trkpt>
      <trkpt lat="43.06884" lon="1.35443">
        <ele>423.12</ele>
        <time>2017-04-08T12:35:07Z</time>
      </trkpt>
      <trkpt lat="43.06889" lon="1.3545">
        <ele>421.19</ele>
        <time>2017-04-08T12:35:25Z</time>
      </trkpt>
      <trkpt lat="43.06892" lon="1.35465">
        <ele>419.27</ele>
        <time>2017-04-08T12:35:35Z</time>
      </trkpt>
      <trkpt lat="43.06895" lon="1.35475">
        <ele>416.87</ele>
        <time>2017-04-08T12:35:43Z</time>
      </trkpt>
      <trkpt lat="43.06901" lon="1.35493">
        <ele>413.5</ele>
        <time>2017-04-08T12:35:57Z</time>
      </trkpt>
      <trkpt lat="43.06901" lon="1.355">
        <ele>413.98</ele>
        <time>2017-04-08T12:36:16Z</time>
      </trkpt>
      <trkpt lat="43.06902" lon="1.35505">
        <ele>412.54</ele>
        <time>2017-04-08T12:36:38Z</time>
      </trkpt>
      <trkpt lat="43.06907" lon="1.35509">
        <ele>412.06</ele>
        <time>2017-04-08T12:36:44Z</time>
      </trkpt>
      <trkpt lat="43.06917" lon="1.3552">
        <ele>410.62</ele>
        <time>2017-04-08T12:36:57Z</time>
      </trkpt>
      <trkpt lat="43.0692" lon="1.35524">
        <ele>410.14</ele>
        <time>2017-04-08T12:37:01Z</time>
      </trkpt>
      <trkpt lat="43.06922" lon="1.35527">
        <ele>409.66</ele>
        <time>2017-04-08T12:37:04Z</time>
      </trkpt>
      <trkpt lat="43.06933" lon="1.35539">
        <ele>406.77</ele>
        <time>2017-04-08T12:37:17Z</time>
      </trkpt>
      <trkpt lat="43.06942" lon="1.35551">
        <ele>402.93</ele>
        <time>2017-04-08T12:37:30Z</time>
      </trkpt>
      <trkpt lat="43.06948" lon="1.35557">
        <ele>401.49</ele>
        <time>2017-04-08T12:37:46Z</time>
      </trkpt>
      <trkpt lat="43.06956" lon="1.35559">
        <ele>398.6</ele>
        <time>2017-04-08T12:37:55Z</time>
      </trkpt>
      <trkpt lat="43.06962" lon="1.3556">
        <ele>396.68</ele>
        <time>2017-04-08T12:38:00Z</time>
      </trkpt>
      <trkpt lat="43.06976" lon="1.35565">
        <ele>394.28</ele>
        <time>2017-04-08T12:38:13Z</time>
      </trkpt>
      <trkpt lat="43.06982" lon="1.35566">
        <ele>391.87</ele>
        <time>2017-04-08T12:38:20Z</time>
      </trkpt>
      <trkpt lat="43.06988" lon="1.35567">
        <ele>390.43</ele>
        <time>2017-04-08T12:38:25Z</time>
      </trkpt>
      <trkpt lat="43.06999" lon="1.35573">
        <ele>388.51</ele>
        <time>2017-04-08T12:38:35Z</time>
      </trkpt>
      <trkpt lat="43.07001" lon="1.35591">
        <ele>385.15</ele>
        <time>2017-04-08T12:43:39Z</time>
      </trkpt>
      <trkpt lat="43.06999" lon="1.35593">
        <ele>384.18</ele>
        <time>2017-04-08T12:43:53Z</time>
      </trkpt>
      <trkpt lat="43.07001" lon="1.35591">
        <ele>384.18</ele>
        <time>2017-04-08T12:44:26Z</time>
      </trkpt>
      <trkpt lat="43.07001" lon="1.35591">
        <ele>384.66</ele>
        <time>2017-04-08T12:44:52Z</time>
      </trkpt>
      <trkpt lat="43.07" lon="1.35595">
        <ele>382.74</ele>
        <time>2017-04-08T12:44:55Z</time>
      </trkpt>
      <trkpt lat="43.07003" lon="1.3561">
        <ele>380.34</ele>
        <time>2017-04-08T12:45:06Z</time>
      </trkpt>
      <trkpt lat="43.07003" lon="1.35618">
        <ele>378.9</ele>
        <time>2017-04-08T12:45:11Z</time>
      </trkpt>
      <trkpt lat="43.07009" lon="1.3564">
        <ele>376.49</ele>
        <time>2017-04-08T12:45:27Z</time>
      </trkpt>
      <trkpt lat="43.07013" lon="1.35656">
        <ele>373.13</ele>
        <time>2017-04-08T12:45:38Z</time>
      </trkpt>
      <trkpt lat="43.07013" lon="1.35657">
        <ele>373.13</ele>
        <time>2017-04-08T12:45:39Z</time>
      </trkpt>
      <trkpt lat="43.07014" lon="1.35668">
        <ele>370.73</ele>
        <time>2017-04-08T12:45:48Z</time>
      </trkpt>
      <trkpt lat="43.07016" lon="1.35674">
        <ele>370.73</ele>
        <time>2017-04-08T12:45:59Z</time>
      </trkpt>
      <trkpt lat="43.07023" lon="1.35681">
        <ele>369.28</ele>
        <time>2017-04-08T12:46:08Z</time>
      </trkpt>
      <trkpt lat="43.07025" lon="1.35682">
        <ele>369.28</ele>
        <time>2017-04-08T12:46:10Z</time>
      </trkpt>
      <trkpt lat="43.07029" lon="1.35686">
        <ele>369.28</ele>
        <time>2017-04-08T12:46:14Z</time>
      </trkpt>
      <trkpt lat="43.07038" lon="1.35688">
        <ele>363.04</ele>
        <time>2017-04-08T12:46:27Z</time>
      </trkpt>
      <trkpt lat="43.07039" lon="1.35688">
        <ele>369.28</ele>
        <time>2017-04-08T12:46:28Z</time>
      </trkpt>
      <trkpt lat="43.07045" lon="1.35687">
        <ele>368.32</ele>
        <time>2017-04-08T12:46:44Z</time>
      </trkpt>
      <trkpt lat="43.07044" lon="1.35685">
        <ele>368.32</ele>
        <time>2017-04-08T12:46:49Z</time>
      </trkpt>
      <trkpt lat="43.07042" lon="1.35681">
        <ele>367.84</ele>
        <time>2017-04-08T12:46:53Z</time>
      </trkpt>
      <trkpt lat="43.07042" lon="1.35674">
        <ele>367.36</ele>
        <time>2017-04-08T12:46:58Z</time>
      </trkpt>
      <trkpt lat="43.07057" lon="1.35675">
        <ele>364.48</ele>
        <time>2017-04-08T12:47:11Z</time>
      </trkpt>
      <trkpt lat="43.07061" lon="1.35677">
        <ele>364</ele>
        <time>2017-04-08T12:47:15Z</time>
      </trkpt>
      <trkpt lat="43.07073" lon="1.35681">
        <ele>361.11</ele>
        <time>2017-04-08T12:47:30Z</time>
      </trkpt>
      <trkpt lat="43.07074" lon="1.35675">
        <ele>359.67</ele>
        <time>2017-04-08T12:47:44Z</time>
      </trkpt>
      <trkpt lat="43.07076" lon="1.35671">
        <ele>359.67</ele>
        <time>2017-04-08T12:47:48Z</time>
      </trkpt>
      <trkpt lat="43.0708" lon="1.35664">
        <ele>358.71</ele>
        <time>2017-04-08T12:47:57Z</time>
      </trkpt>
      <trkpt lat="43.07081" lon="1.35661">
        <ele>358.71</ele>
        <time>2017-04-08T12:48:10Z</time>
      </trkpt>
      <trkpt lat="43.07081" lon="1.35659">
        <ele>358.71</ele>
        <time>2017-04-08T12:48:26Z</time>
      </trkpt>
      <trkpt lat="43.07075" lon="1.35655">
        <ele>358.71</ele>
        <time>2017-04-08T12:48:37Z</time>
      </trkpt>
      <trkpt lat="43.07071" lon="1.35645">
        <ele>356.79</ele>
        <time>2017-04-08T12:48:49Z</time>
      </trkpt>
      <trkpt lat="43.0707" lon="1.35644">
        <ele>356.79</ele>
        <time>2017-04-08T12:48:50Z</time>
      </trkpt>
      <trkpt lat="43.07066" lon="1.35624">
        <ele>354.86</ele>
        <time>2017-04-08T12:49:04Z</time>
      </trkpt>
      <trkpt lat="43.07061" lon="1.35613">
        <ele>354.38</ele>
        <time>2017-04-08T12:49:19Z</time>
      </trkpt>
      <trkpt lat="43.07059" lon="1.3561">
        <ele>352.94</ele>
        <time>2017-04-08T12:50:20Z</time>
      </trkpt>
      <trkpt lat="43.07058" lon="1.35608">
        <ele>351.5</ele>
        <time>2017-04-08T12:52:00Z</time>
      </trkpt>
      <trkpt lat="43.07062" lon="1.35599">
        <ele>350.54</ele>
        <time>2017-04-08T12:52:13Z</time>
      </trkpt>
      <trkpt lat="43.07061" lon="1.35591">
        <ele>350.54</ele>
        <time>2017-04-08T12:52:33Z</time>
      </trkpt>
      <trkpt lat="43.07058" lon="1.35581">
        <ele>350.54</ele>
        <time>2017-04-08T12:53:04Z</time>
      </trkpt>
      <trkpt lat="43.07066" lon="1.35559">
        <ele>350.54</ele>
        <time>2017-04-08T12:53:35Z</time>
      </trkpt>
      <trkpt lat="43.07073" lon="1.35545">
        <ele>341.89</ele>
        <time>2017-04-08T12:55:10Z</time>
      </trkpt>
      <trkpt lat="43.07079" lon="1.35552">
        <ele>341.89</ele>
        <time>2017-04-08T12:55:33Z</time>
      </trkpt>
      <trkpt lat="43.07074" lon="1.35533">
        <ele>339.96</ele>
        <time>2017-04-08T12:55:51Z</time>
      </trkpt>
      <trkpt lat="43.07077" lon="1.35517">
        <ele>339.48</ele>
        <time>2017-04-08T12:55:58Z</time>
      </trkpt>
      <trkpt lat="43.07086" lon="1.35497">
        <ele>339</ele>
        <time>2017-04-08T12:56:15Z</time>
      </trkpt>
      <trkpt lat="43.07103" lon="1.35477">
        <ele>340.92</ele>
        <time>2017-04-08T12:56:27Z</time>
      </trkpt>
      <trkpt lat="43.07112" lon="1.35469">
        <ele>341.89</ele>
        <time>2017-04-08T12:56:41Z</time>
      </trkpt>
      <trkpt lat="43.07119" lon="1.35457">
        <ele>341.89</ele>
        <time>2017-04-08T12:57:07Z</time>
      </trkpt>
      <trkpt lat="43.07121" lon="1.35458">
        <ele>342.37</ele>
        <time>2017-04-08T12:57:25Z</time>
      </trkpt>
      <trkpt lat="43.07146" lon="1.35469">
        <ele>351.02</ele>
        <time>2017-04-08T12:58:54Z</time>
      </trkpt>
      <trkpt lat="43.07146" lon="1.35468">
        <ele>346.21</ele>
        <time>2017-04-08T12:58:55Z</time>
      </trkpt>
      <trkpt lat="43.07147" lon="1.35479">
        <ele>346.21</ele>
        <time>2017-04-08T12:58:56Z</time>
      </trkpt>
      <trkpt lat="43.07155" lon="1.3551">
        <ele>346.21</ele>
        <time>2017-04-08T12:59:13Z</time>
      </trkpt>
      <trkpt lat="43.0716" lon="1.35508">
        <ele>348.62</ele>
        <time>2017-04-08T12:59:22Z</time>
      </trkpt>
      <trkpt lat="43.07163" lon="1.35507">
        <ele>349.58</ele>
        <time>2017-04-08T12:59:26Z</time>
      </trkpt>
      <trkpt lat="43.0717" lon="1.35493">
        <ele>350.54</ele>
        <time>2017-04-08T12:59:47Z</time>
      </trkpt>
      <trkpt lat="43.07173" lon="1.35491">
        <ele>351.98</ele>
        <time>2017-04-08T12:59:50Z</time>
      </trkpt>
      <trkpt lat="43.07179" lon="1.35492">
        <ele>353.42</ele>
        <time>2017-04-08T12:59:54Z</time>
      </trkpt>
      <trkpt lat="43.07193" lon="1.35505">
        <ele>357.75</ele>
        <time>2017-04-08T13:00:13Z</time>
      </trkpt>
      <trkpt lat="43.07193" lon="1.35506">
        <ele>357.75</ele>
        <time>2017-04-08T13:00:14Z</time>
      </trkpt>
      <trkpt lat="43.07202" lon="1.35503">
        <ele>357.27</ele>
        <time>2017-04-08T13:00:31Z</time>
      </trkpt>
      <trkpt lat="43.07203" lon="1.35501">
        <ele>359.19</ele>
        <time>2017-04-08T13:00:33Z</time>
      </trkpt>
      <trkpt lat="43.07205" lon="1.35498">
        <ele>357.75</ele>
        <time>2017-04-08T13:00:36Z</time>
      </trkpt>
      <trkpt lat="43.07211" lon="1.35491">
        <ele>360.63</ele>
        <time>2017-04-08T13:00:46Z</time>
      </trkpt>
      <trkpt lat="43.07218" lon="1.35491">
        <ele>362.07</ele>
        <time>2017-04-08T13:00:51Z</time>
      </trkpt>
      <trkpt lat="43.07229" lon="1.3548">
        <ele>363.52</ele>
        <time>2017-04-08T13:01:14Z</time>
      </trkpt>
      <trkpt lat="43.07231" lon="1.35481">
        <ele>364.96</ele>
        <time>2017-04-08T13:01:16Z</time>
      </trkpt>
      <trkpt lat="43.07244" lon="1.35481">
        <ele>368.32</ele>
        <time>2017-04-08T13:01:29Z</time>
      </trkpt>
      <trkpt lat="43.0724" lon="1.35477">
        <ele>371.21</ele>
        <time>2017-04-08T13:01:43Z</time>
      </trkpt>
      <trkpt lat="43.0724" lon="1.35456">
        <ele>372.65</ele>
        <time>2017-04-08T13:02:06Z</time>
      </trkpt>
      <trkpt lat="43.07252" lon="1.3545">
        <ele>375.53</ele>
        <time>2017-04-08T13:02:33Z</time>
      </trkpt>
      <trkpt lat="43.07263" lon="1.35449">
        <ele>376.97</ele>
        <time>2017-04-08T13:02:40Z</time>
      </trkpt>
      <trkpt lat="43.07276" lon="1.35485">
        <ele>377.94</ele>
        <time>2017-04-08T13:02:58Z</time>
      </trkpt>
      <trkpt lat="43.07278" lon="1.35478">
        <ele>380.34</ele>
        <time>2017-04-08T13:03:09Z</time>
      </trkpt>
      <trkpt lat="43.07279" lon="1.35477">
        <ele>378.9</ele>
        <time>2017-04-08T13:03:11Z</time>
      </trkpt>
      <trkpt lat="43.0728" lon="1.35473">
        <ele>380.34</ele>
        <time>2017-04-08T13:03:13Z</time>
      </trkpt>
      <trkpt lat="43.07284" lon="1.35473">
        <ele>380.34</ele>
        <time>2017-04-08T13:03:33Z</time>
      </trkpt>
      <trkpt lat="43.07285" lon="1.35474">
        <ele>382.74</ele>
        <time>2017-04-08T13:03:35Z</time>
      </trkpt>
      <trkpt lat="43.07295" lon="1.35481">
        <ele>386.59</ele>
        <time>2017-04-08T13:03:54Z</time>
      </trkpt>
      <trkpt lat="43.07295" lon="1.35479">
        <ele>387.55</ele>
        <time>2017-04-08T13:03:56Z</time>
      </trkpt>
      <trkpt lat="43.07297" lon="1.35454">
        <ele>388.99</ele>
        <time>2017-04-08T13:04:10Z</time>
      </trkpt>
      <trkpt lat="43.07294" lon="1.35428">
        <ele>392.84</ele>
        <time>2017-04-08T13:04:25Z</time>
      </trkpt>
      <trkpt lat="43.07294" lon="1.35397">
        <ele>393.32</ele>
        <time>2017-04-08T13:04:44Z</time>
      </trkpt>
      <trkpt lat="43.07294" lon="1.35395">
        <ele>395.24</ele>
        <time>2017-04-08T13:04:45Z</time>
      </trkpt>
      <trkpt lat="43.07314" lon="1.35404">
        <ele>398.12</ele>
        <time>2017-04-08T13:05:06Z</time>
      </trkpt>
      <trkpt lat="43.0732" lon="1.354">
        <ele>401.01</ele>
        <time>2017-04-08T13:05:16Z</time>
      </trkpt>
      <trkpt lat="43.07323" lon="1.35397">
        <ele>402.93</ele>
        <time>2017-04-08T13:05:23Z</time>
      </trkpt>
      <trkpt lat="43.07325" lon="1.35396">
        <ele>404.37</ele>
        <time>2017-04-08T13:05:26Z</time>
      </trkpt>
      <trkpt lat="43.07334" lon="1.35399">
        <ele>407.74</ele>
        <time>2017-04-08T13:05:38Z</time>
      </trkpt>
      <trkpt lat="43.07344" lon="1.35394">
        <ele>409.66</ele>
        <time>2017-04-08T13:05:57Z</time>
      </trkpt>
      <trkpt lat="43.07338" lon="1.35372">
        <ele>413.02</ele>
        <time>2017-04-08T13:06:08Z</time>
      </trkpt>
      <trkpt lat="43.07338" lon="1.35368">
        <ele>411.58</ele>
        <time>2017-04-08T13:06:09Z</time>
      </trkpt>
      <trkpt lat="43.07336" lon="1.35361">
        <ele>413.5</ele>
        <time>2017-04-08T13:06:12Z</time>
      </trkpt>
      <trkpt lat="43.07332" lon="1.35339">
        <ele>413.02</ele>
        <time>2017-04-08T13:06:26Z</time>
      </trkpt>
      <trkpt lat="43.07332" lon="1.35349">
        <ele>414.47</ele>
        <time>2017-04-08T13:06:46Z</time>
      </trkpt>
      <trkpt lat="43.07329" lon="1.35344">
        <ele>416.39</ele>
        <time>2017-04-08T13:06:52Z</time>
      </trkpt>
      <trkpt lat="43.07329" lon="1.35332">
        <ele>418.79</ele>
        <time>2017-04-08T13:07:00Z</time>
      </trkpt>
      <trkpt lat="43.07365" lon="1.35372">
        <ele>421.68</ele>
        <time>2017-04-08T13:07:16Z</time>
      </trkpt>
      <trkpt lat="43.07381" lon="1.35366">
        <ele>425.04</ele>
        <time>2017-04-08T13:07:30Z</time>
      </trkpt>
      <trkpt lat="43.07384" lon="1.35363">
        <ele>425.52</ele>
        <time>2017-04-08T13:07:35Z</time>
      </trkpt>
      <trkpt lat="43.07388" lon="1.35358">
        <ele>427.44</ele>
        <time>2017-04-08T13:07:47Z</time>
      </trkpt>
      <trkpt lat="43.07397" lon="1.35352">
        <ele>430.81</ele>
        <time>2017-04-08T13:07:59Z</time>
      </trkpt>
      <trkpt lat="43.07397" lon="1.35351">
        <ele>430.81</ele>
        <time>2017-04-08T13:08:00Z</time>
      </trkpt>
      <trkpt lat="43.07413" lon="1.35346">
        <ele>431.29</ele>
        <time>2017-04-08T13:08:26Z</time>
      </trkpt>
      <trkpt lat="43.07415" lon="1.35346">
        <ele>435.61</ele>
        <time>2017-04-08T13:08:40Z</time>
      </trkpt>
      <trkpt lat="43.07415" lon="1.35346">
        <ele>435.61</ele>
        <time>2017-04-08T13:08:41Z</time>
      </trkpt>
      <trkpt lat="43.07424" lon="1.35338">
        <ele>439.46</ele>
        <time>2017-04-08T13:09:03Z</time>
      </trkpt>
      <trkpt lat="43.07425" lon="1.35338">
        <ele>439.94</ele>
        <time>2017-04-08T13:09:05Z</time>
      </trkpt>
      <trkpt lat="43.0743" lon="1.35333">
        <ele>443.31</ele>
        <time>2017-04-08T13:09:16Z</time>
      </trkpt>
      <trkpt lat="43.07431" lon="1.35333">
        <ele>443.31</ele>
        <time>2017-04-08T13:09:17Z</time>
      </trkpt>
      <trkpt lat="43.07436" lon="1.35314">
        <ele>447.63</ele>
        <time>2017-04-08T13:09:53Z</time>
      </trkpt>
      <trkpt lat="43.07448" lon="1.35304">
        <ele>449.55</ele>
        <time>2017-04-08T13:10:18Z</time>
      </trkpt>
      <trkpt lat="43.07447" lon="1.35302">
        <ele>449.07</ele>
        <time>2017-04-08T13:10:23Z</time>
      </trkpt>
      <trkpt lat="43.07447" lon="1.35296">
        <ele>452.44</ele>
        <time>2017-04-08T13:10:42Z</time>
      </trkpt>
      <trkpt lat="43.07446" lon="1.35286">
        <ele>456.76</ele>
        <time>2017-04-08T13:10:59Z</time>
      </trkpt>
      <trkpt lat="43.0745" lon="1.35282">
        <ele>458.69</ele>
        <time>2017-04-08T13:11:20Z</time>
      </trkpt>
      <trkpt lat="43.07452" lon="1.35277">
        <ele>460.61</ele>
        <time>2017-04-08T13:11:25Z</time>
      </trkpt>
      <trkpt lat="43.07464" lon="1.3526">
        <ele>463.97</ele>
        <time>2017-04-08T13:11:42Z</time>
      </trkpt>
      <trkpt lat="43.07465" lon="1.35251">
        <ele>466.38</ele>
        <time>2017-04-08T13:12:03Z</time>
      </trkpt>
      <trkpt lat="43.07466" lon="1.35248">
        <ele>466.38</ele>
        <time>2017-04-08T13:12:08Z</time>
      </trkpt>
      <trkpt lat="43.07467" lon="1.3524">
        <ele>470.22</ele>
        <time>2017-04-08T13:12:18Z</time>
      </trkpt>
      <trkpt lat="43.07463" lon="1.35235">
        <ele>474.07</ele>
        <time>2017-04-08T13:12:35Z</time>
      </trkpt>
      <trkpt lat="43.07464" lon="1.3523">
        <ele>475.99</ele>
        <time>2017-04-08T13:12:58Z</time>
      </trkpt>
      <trkpt lat="43.07473" lon="1.35229">
        <ele>475.99</ele>
        <time>2017-04-08T13:13:10Z</time>
      </trkpt>
      <trkpt lat="43.07491" lon="1.35228">
        <ele>475.99</ele>
        <time>2017-04-08T13:13:29Z</time>
      </trkpt>
      <trkpt lat="43.0749" lon="1.35227">
        <ele>475.51</ele>
        <time>2017-04-08T13:17:06Z</time>
      </trkpt>
      <trkpt lat="43.07473" lon="1.35226">
        <ele>474.55</ele>
        <time>2017-04-08T13:17:26Z</time>
      </trkpt>
      <trkpt lat="43.07471" lon="1.35227">
        <ele>475.99</ele>
        <time>2017-04-08T13:17:28Z</time>
      </trkpt>
      <trkpt lat="43.07451" lon="1.35232">
        <ele>475.51</ele>
        <time>2017-04-08T13:17:46Z</time>
      </trkpt>
      <trkpt lat="43.07436" lon="1.35252">
        <ele>473.11</ele>
        <time>2017-04-08T13:18:04Z</time>
      </trkpt>
      <trkpt lat="43.07434" lon="1.35258">
        <ele>470.7</ele>
        <time>2017-04-08T13:18:10Z</time>
      </trkpt>
      <trkpt lat="43.07428" lon="1.35271">
        <ele>467.82</ele>
        <time>2017-04-08T13:18:21Z</time>
      </trkpt>
      <trkpt lat="43.07428" lon="1.35274">
        <ele>466.38</ele>
        <time>2017-04-08T13:18:24Z</time>
      </trkpt>
      <trkpt lat="43.07428" lon="1.35284">
        <ele>465.42</ele>
        <time>2017-04-08T13:18:31Z</time>
      </trkpt>
      <trkpt lat="43.07417" lon="1.35303">
        <ele>463.01</ele>
        <time>2017-04-08T13:18:48Z</time>
      </trkpt>
      <trkpt lat="43.07411" lon="1.35314">
        <ele>462.53</ele>
        <time>2017-04-08T13:18:56Z</time>
      </trkpt>
      <trkpt lat="43.0741" lon="1.35318">
        <ele>461.57</ele>
        <time>2017-04-08T13:18:58Z</time>
      </trkpt>
      <trkpt lat="43.07408" lon="1.35326">
        <ele>461.57</ele>
        <time>2017-04-08T13:19:16Z</time>
      </trkpt>
      <trkpt lat="43.07405" lon="1.35332">
        <ele>463.01</ele>
        <time>2017-04-08T13:20:29Z</time>
      </trkpt>
      <trkpt lat="43.07406" lon="1.35342">
        <ele>461.09</ele>
        <time>2017-04-08T13:24:01Z</time>
      </trkpt>
      <trkpt lat="43.07399" lon="1.35333">
        <ele>463.01</ele>
        <time>2017-04-08T13:24:08Z</time>
      </trkpt>
      <trkpt lat="43.07386" lon="1.35331">
        <ele>463.97</ele>
        <time>2017-04-08T13:24:19Z</time>
      </trkpt>
      <trkpt lat="43.07377" lon="1.35336">
        <ele>463.97</ele>
        <time>2017-04-08T13:24:27Z</time>
      </trkpt>
      <trkpt lat="43.07373" lon="1.3534">
        <ele>462.05</ele>
        <time>2017-04-08T13:24:31Z</time>
      </trkpt>
      <trkpt lat="43.07366" lon="1.35349">
        <ele>460.61</ele>
        <time>2017-04-08T13:24:40Z</time>
      </trkpt>
      <trkpt lat="43.07364" lon="1.35354">
        <ele>459.17</ele>
        <time>2017-04-08T13:24:43Z</time>
      </trkpt>
      <trkpt lat="43.07361" lon="1.35357">
        <ele>459.17</ele>
        <time>2017-04-08T13:24:46Z</time>
      </trkpt>
      <trkpt lat="43.07353" lon="1.35363">
        <ele>458.21</ele>
        <time>2017-04-08T13:24:54Z</time>
      </trkpt>
      <trkpt lat="43.07344" lon="1.35373">
        <ele>456.28</ele>
        <time>2017-04-08T13:25:09Z</time>
      </trkpt>
      <trkpt lat="43.07344" lon="1.35376">
        <ele>456.28</ele>
        <time>2017-04-08T13:25:42Z</time>
      </trkpt>
      <trkpt lat="43.07342" lon="1.35377">
        <ele>457.24</ele>
        <time>2017-04-08T13:26:22Z</time>
      </trkpt>
      <trkpt lat="43.07335" lon="1.3537">
        <ele>455.8</ele>
        <time>2017-04-08T13:26:42Z</time>
      </trkpt>
      <trkpt lat="43.07321" lon="1.35362">
        <ele>455.32</ele>
        <time>2017-04-08T13:26:54Z</time>
      </trkpt>
      <trkpt lat="43.07319" lon="1.35359">
        <ele>456.76</ele>
        <time>2017-04-08T13:26:56Z</time>
      </trkpt>
      <trkpt lat="43.07318" lon="1.35355">
        <ele>456.76</ele>
        <time>2017-04-08T13:27:07Z</time>
      </trkpt>
      <trkpt lat="43.07317" lon="1.35354">
        <ele>456.76</ele>
        <time>2017-04-08T13:27:27Z</time>
      </trkpt>
      <trkpt lat="43.07317" lon="1.3536">
        <ele>456.76</ele>
        <time>2017-04-08T13:27:36Z</time>
      </trkpt>
      <trkpt lat="43.07315" lon="1.35362">
        <ele>454.84</ele>
        <time>2017-04-08T13:27:38Z</time>
      </trkpt>
      <trkpt lat="43.07314" lon="1.35363">
        <ele>454.36</ele>
        <time>2017-04-08T13:27:40Z</time>
      </trkpt>
      <trkpt lat="43.07308" lon="1.35368">
        <ele>453.88</ele>
        <time>2017-04-08T13:27:46Z</time>
      </trkpt>
      <trkpt lat="43.07301" lon="1.35367">
        <ele>452.44</ele>
        <time>2017-04-08T13:27:51Z</time>
      </trkpt>
      <trkpt lat="43.07298" lon="1.35361">
        <ele>452.44</ele>
        <time>2017-04-08T13:28:04Z</time>
      </trkpt>
      <trkpt lat="43.07297" lon="1.35359">
        <ele>452.44</ele>
        <time>2017-04-08T13:28:31Z</time>
      </trkpt>
      <trkpt lat="43.073" lon="1.3536">
        <ele>453.88</ele>
        <time>2017-04-08T13:28:40Z</time>
      </trkpt>
      <trkpt lat="43.07312" lon="1.35356">
        <ele>455.8</ele>
        <time>2017-04-08T13:28:54Z</time>
      </trkpt>
      <trkpt lat="43.07313" lon="1.35355">
        <ele>454.36</ele>
        <time>2017-04-08T13:28:56Z</time>
      </trkpt>
      <trkpt lat="43.07315" lon="1.35353">
        <ele>456.76</ele>
        <time>2017-04-08T13:28:59Z</time>
      </trkpt>
      <trkpt lat="43.07315" lon="1.35352">
        <ele>456.76</ele>
        <time>2017-04-08T13:29:01Z</time>
      </trkpt>
      <trkpt lat="43.0731" lon="1.35348">
        <ele>457.24</ele>
        <time>2017-04-08T13:29:15Z</time>
      </trkpt>
      <trkpt lat="43.07308" lon="1.35346">
        <ele>456.76</ele>
        <time>2017-04-08T13:29:19Z</time>
      </trkpt>
      <trkpt lat="43.07302" lon="1.35351">
        <ele>455.8</ele>
        <time>2017-04-08T13:29:34Z</time>
      </trkpt>
      <trkpt lat="43.07301" lon="1.3535">
        <ele>454.84</ele>
        <time>2017-04-08T13:31:05Z</time>
      </trkpt>
      <trkpt lat="43.073" lon="1.35344">
        <ele>456.28</ele>
        <time>2017-04-08T13:31:21Z</time>
      </trkpt>
      <trkpt lat="43.07309" lon="1.35347">
        <ele>456.76</ele>
        <time>2017-04-08T13:31:35Z</time>
      </trkpt>
      <trkpt lat="43.07325" lon="1.35363">
        <ele>456.76</ele>
        <time>2017-04-08T13:31:54Z</time>
      </trkpt>
      <trkpt lat="43.07328" lon="1.35364">
        <ele>456.76</ele>
        <time>2017-04-08T13:31:57Z</time>
      </trkpt>
      <trkpt lat="43.07333" lon="1.35371">
        <ele>456.76</ele>
        <time>2017-04-08T13:32:03Z</time>
      </trkpt>
      <trkpt lat="43.07337" lon="1.35375">
        <ele>455.32</ele>
        <time>2017-04-08T13:32:13Z</time>
      </trkpt>
      <trkpt lat="43.07341" lon="1.35383">
        <ele>453.88</ele>
        <time>2017-04-08T13:32:25Z</time>
      </trkpt>
      <trkpt lat="43.0734" lon="1.35385">
        <ele>452.92</ele>
        <time>2017-04-08T13:32:26Z</time>
      </trkpt>
      <trkpt lat="43.07331" lon="1.35396">
        <ele>452.92</ele>
        <time>2017-04-08T13:32:36Z</time>
      </trkpt>
      <trkpt lat="43.07324" lon="1.35404">
        <ele>449.55</ele>
        <time>2017-04-08T13:32:45Z</time>
      </trkpt>
      <trkpt lat="43.07321" lon="1.35411">
        <ele>448.59</ele>
        <time>2017-04-08T13:32:51Z</time>
      </trkpt>
      <trkpt lat="43.07318" lon="1.35411">
        <ele>447.15</ele>
        <time>2017-04-08T13:32:54Z</time>
      </trkpt>
      <trkpt lat="43.07303" lon="1.3541">
        <ele>443.79</ele>
        <time>2017-04-08T13:33:11Z</time>
      </trkpt>
      <trkpt lat="43.07299" lon="1.35413">
        <ele>442.34</ele>
        <time>2017-04-08T13:33:16Z</time>
      </trkpt>
      <trkpt lat="43.07295" lon="1.35419">
        <ele>440.9</ele>
        <time>2017-04-08T13:33:21Z</time>
      </trkpt>
      <trkpt lat="43.07288" lon="1.35425">
        <ele>437.54</ele>
        <time>2017-04-08T13:33:32Z</time>
      </trkpt>
      <trkpt lat="43.07288" lon="1.35426">
        <ele>434.65</ele>
        <time>2017-04-08T13:39:38Z</time>
      </trkpt>
      <trkpt lat="43.07288" lon="1.35426">
        <ele>440.9</ele>
        <time>2017-04-08T13:39:40Z</time>
      </trkpt>
      <trkpt lat="43.07288" lon="1.35427">
        <ele>438.02</ele>
        <time>2017-04-08T13:39:41Z</time>
      </trkpt>
      <trkpt lat="43.07286" lon="1.35428">
        <ele>437.06</ele>
        <time>2017-04-08T13:39:46Z</time>
      </trkpt>
      <trkpt lat="43.07273" lon="1.35429">
        <ele>433.69</ele>
        <time>2017-04-08T13:40:00Z</time>
      </trkpt>
      <trkpt lat="43.07265" lon="1.35431">
        <ele>433.21</ele>
        <time>2017-04-08T13:40:17Z</time>
      </trkpt>
      <trkpt lat="43.07261" lon="1.35434">
        <ele>432.25</ele>
        <time>2017-04-08T13:40:30Z</time>
      </trkpt>
      <trkpt lat="43.0726" lon="1.35435">
        <ele>432.25</ele>
        <time>2017-04-08T13:40:31Z</time>
      </trkpt>
      <trkpt lat="43.07254" lon="1.35435">
        <ele>431.77</ele>
        <time>2017-04-08T13:40:45Z</time>
      </trkpt>
      <trkpt lat="43.07252" lon="1.35442">
        <ele>429.85</ele>
        <time>2017-04-08T13:41:16Z</time>
      </trkpt>
      <trkpt lat="43.07251" lon="1.35443">
        <ele>429.85</ele>
        <time>2017-04-08T13:41:17Z</time>
      </trkpt>
      <trkpt lat="43.07239" lon="1.35451">
        <ele>426.96</ele>
        <time>2017-04-08T13:41:30Z</time>
      </trkpt>
      <trkpt lat="43.07227" lon="1.3545">
        <ele>425.04</ele>
        <time>2017-04-08T13:41:44Z</time>
      </trkpt>
      <trkpt lat="43.07213" lon="1.35458">
        <ele>425.52</ele>
        <time>2017-04-08T13:41:57Z</time>
      </trkpt>
      <trkpt lat="43.07212" lon="1.35458">
        <ele>425.52</ele>
        <time>2017-04-08T13:41:58Z</time>
      </trkpt>
      <trkpt lat="43.07208" lon="1.35459">
        <ele>424.08</ele>
        <time>2017-04-08T13:42:01Z</time>
      </trkpt>
      <trkpt lat="43.07199" lon="1.3546">
        <ele>423.6</ele>
        <time>2017-04-08T13:42:08Z</time>
      </trkpt>
      <trkpt lat="43.07198" lon="1.3546">
        <ele>423.6</ele>
        <time>2017-04-08T13:42:09Z</time>
      </trkpt>
      <trkpt lat="43.07183" lon="1.35467">
        <ele>420.23</ele>
        <time>2017-04-08T13:42:23Z</time>
      </trkpt>
      <trkpt lat="43.07175" lon="1.35464">
        <ele>419.27</ele>
        <time>2017-04-08T13:42:36Z</time>
      </trkpt>
      <trkpt lat="43.07173" lon="1.35461">
        <ele>418.31</ele>
        <time>2017-04-08T13:42:41Z</time>
      </trkpt>
      <trkpt lat="43.07168" lon="1.35456">
        <ele>417.83</ele>
        <time>2017-04-08T13:42:47Z</time>
      </trkpt>
      <trkpt lat="43.07162" lon="1.35452">
        <ele>416.87</ele>
        <time>2017-04-08T13:42:54Z</time>
      </trkpt>
      <trkpt lat="43.07157" lon="1.35439">
        <ele>418.31</ele>
        <time>2017-04-08T13:43:05Z</time>
      </trkpt>
      <trkpt lat="43.07152" lon="1.35434">
        <ele>420.71</ele>
        <time>2017-04-08T13:43:14Z</time>
      </trkpt>
      <trkpt lat="43.0714" lon="1.35433">
        <ele>422.16</ele>
        <time>2017-04-08T13:43:24Z</time>
      </trkpt>
      <trkpt lat="43.07132" lon="1.35446">
        <ele>424.08</ele>
        <time>2017-04-08T13:43:35Z</time>
      </trkpt>
      <trkpt lat="43.07126" lon="1.35452">
        <ele>425.04</ele>
        <time>2017-04-08T13:43:48Z</time>
      </trkpt>
      <trkpt lat="43.07121" lon="1.35456">
        <ele>427.92</ele>
        <time>2017-04-08T13:44:03Z</time>
      </trkpt>
      <trkpt lat="43.07112" lon="1.35462">
        <ele>428.89</ele>
        <time>2017-04-08T13:44:15Z</time>
      </trkpt>
      <trkpt lat="43.07111" lon="1.35463">
        <ele>427.44</ele>
        <time>2017-04-08T13:44:18Z</time>
      </trkpt>
      <trkpt lat="43.07109" lon="1.35469">
        <ele>424.56</ele>
        <time>2017-04-08T13:44:26Z</time>
      </trkpt>
      <trkpt lat="43.07108" lon="1.35472">
        <ele>422.64</ele>
        <time>2017-04-08T13:44:40Z</time>
      </trkpt>
      <trkpt lat="43.07106" lon="1.35475">
        <ele>421.19</ele>
        <time>2017-04-08T13:44:55Z</time>
      </trkpt>
      <trkpt lat="43.07105" lon="1.35482">
        <ele>418.31</ele>
        <time>2017-04-08T13:45:08Z</time>
      </trkpt>
      <trkpt lat="43.07104" lon="1.35485">
        <ele>417.83</ele>
        <time>2017-04-08T13:45:18Z</time>
      </trkpt>
      <trkpt lat="43.07098" lon="1.35487">
        <ele>417.35</ele>
        <time>2017-04-08T13:45:32Z</time>
      </trkpt>
      <trkpt lat="43.07096" lon="1.35491">
        <ele>416.87</ele>
        <time>2017-04-08T13:45:48Z</time>
      </trkpt>
      <trkpt lat="43.07096" lon="1.3549">
        <ele>416.87</ele>
        <time>2017-04-08T13:46:19Z</time>
      </trkpt>
      <trkpt lat="43.07093" lon="1.35493">
        <ele>416.87</ele>
        <time>2017-04-08T13:46:38Z</time>
      </trkpt>
      <trkpt lat="43.07092" lon="1.35503">
        <ele>413.5</ele>
        <time>2017-04-08T13:46:49Z</time>
      </trkpt>
      <trkpt lat="43.07091" lon="1.35507">
        <ele>412.06</ele>
        <time>2017-04-08T13:46:54Z</time>
      </trkpt>
      <trkpt lat="43.07079" lon="1.3551">
        <ele>409.66</ele>
        <time>2017-04-08T13:47:05Z</time>
      </trkpt>
      <trkpt lat="43.07068" lon="1.35512">
        <ele>407.74</ele>
        <time>2017-04-08T13:47:16Z</time>
      </trkpt>
      <trkpt lat="43.07062" lon="1.35514">
        <ele>406.29</ele>
        <time>2017-04-08T13:47:20Z</time>
      </trkpt>
      <trkpt lat="43.07055" lon="1.35513">
        <ele>405.33</ele>
        <time>2017-04-08T13:47:27Z</time>
      </trkpt>
      <trkpt lat="43.07043" lon="1.35517">
        <ele>403.89</ele>
        <time>2017-04-08T13:47:41Z</time>
      </trkpt>
      <trkpt lat="43.07034" lon="1.35525">
        <ele>401.97</ele>
        <time>2017-04-08T13:47:54Z</time>
      </trkpt>
      <trkpt lat="43.07014" lon="1.3553">
        <ele>402.45</ele>
        <time>2017-04-08T13:48:10Z</time>
      </trkpt>
      <trkpt lat="43.07013" lon="1.35531">
        <ele>402.45</ele>
        <time>2017-04-08T13:48:11Z</time>
      </trkpt>
      <trkpt lat="43.07006" lon="1.35535">
        <ele>399.08</ele>
        <time>2017-04-08T13:48:21Z</time>
      </trkpt>
      <trkpt lat="43.07011" lon="1.35539">
        <ele>399.08</ele>
        <time>2017-04-08T13:48:55Z</time>
      </trkpt>
      <trkpt lat="43.06996" lon="1.35551">
        <ele>395.24</ele>
        <time>2017-04-08T13:49:42Z</time>
      </trkpt>
      <trkpt lat="43.07008" lon="1.35548">
        <ele>392.84</ele>
        <time>2017-04-08T13:50:14Z</time>
      </trkpt>
      <trkpt lat="43.07018" lon="1.35545">
        <ele>391.39</ele>
        <time>2017-04-08T13:50:26Z</time>
      </trkpt>
      <trkpt lat="43.07033" lon="1.35542">
        <ele>388.99</ele>
        <time>2017-04-08T13:50:39Z</time>
      </trkpt>
      <trkpt lat="43.07042" lon="1.35544">
        <ele>387.55</ele>
        <time>2017-04-08T13:50:46Z</time>
      </trkpt>
      <trkpt lat="43.07041" lon="1.35552">
        <ele>386.59</ele>
        <time>2017-04-08T13:50:51Z</time>
      </trkpt>
      <trkpt lat="43.07034" lon="1.35561">
        <ele>385.15</ele>
        <time>2017-04-08T13:50:59Z</time>
      </trkpt>
      <trkpt lat="43.07033" lon="1.35563">
        <ele>384.66</ele>
        <time>2017-04-08T13:51:01Z</time>
      </trkpt>
      <trkpt lat="43.07018" lon="1.35567">
        <ele>383.7</ele>
        <time>2017-04-08T13:51:15Z</time>
      </trkpt>
      <trkpt lat="43.07016" lon="1.35567">
        <ele>383.22</ele>
        <time>2017-04-08T13:51:17Z</time>
      </trkpt>
      <trkpt lat="43.0701" lon="1.35571">
        <ele>382.26</ele>
        <time>2017-04-08T13:51:29Z</time>
      </trkpt>
      <trkpt lat="43.07006" lon="1.35574">
        <ele>381.78</ele>
        <time>2017-04-08T13:51:35Z</time>
      </trkpt>
      <trkpt lat="43.07" lon="1.35583">
        <ele>379.86</ele>
        <time>2017-04-08T13:51:43Z</time>
      </trkpt>
      <trkpt lat="43.06999" lon="1.35591">
        <ele>376.97</ele>
        <time>2017-04-08T13:51:52Z</time>
      </trkpt>
      <trkpt lat="43.07003" lon="1.35607">
        <ele>374.09</ele>
        <time>2017-04-08T13:52:06Z</time>
      </trkpt>
      <trkpt lat="43.07007" lon="1.35616">
        <ele>372.65</ele>
        <time>2017-04-08T13:52:18Z</time>
      </trkpt>
      <trkpt lat="43.0701" lon="1.35637">
        <ele>371.21</ele>
        <time>2017-04-08T13:52:30Z</time>
      </trkpt>
      <trkpt lat="43.07014" lon="1.35654">
        <ele>368.32</ele>
        <time>2017-04-08T13:52:43Z</time>
      </trkpt>
      <trkpt lat="43.07016" lon="1.35665">
        <ele>366.88</ele>
        <time>2017-04-08T13:52:53Z</time>
      </trkpt>
      <trkpt lat="43.07015" lon="1.35673">
        <ele>365.44</ele>
        <time>2017-04-08T13:53:05Z</time>
      </trkpt>
      <trkpt lat="43.07013" lon="1.35674">
        <ele>365.44</ele>
        <time>2017-04-08T13:53:14Z</time>
      </trkpt>
      <trkpt lat="43.07007" lon="1.35677">
        <ele>365.44</ele>
        <time>2017-04-08T13:53:19Z</time>
      </trkpt>
      <trkpt lat="43.07002" lon="1.35678">
        <ele>366.88</ele>
        <time>2017-04-08T13:53:23Z</time>
      </trkpt>
      <trkpt lat="43.06985" lon="1.35686">
        <ele>368.32</ele>
        <time>2017-04-08T13:53:40Z</time>
      </trkpt>
      <trkpt lat="43.06969" lon="1.35694">
        <ele>369.76</ele>
        <time>2017-04-08T13:53:54Z</time>
      </trkpt>
      <trkpt lat="43.06957" lon="1.35699">
        <ele>370.24</ele>
        <time>2017-04-08T13:54:05Z</time>
      </trkpt>
      <trkpt lat="43.0694" lon="1.35707">
        <ele>371.21</ele>
        <time>2017-04-08T13:54:21Z</time>
      </trkpt>
      <trkpt lat="43.06925" lon="1.35712">
        <ele>370.73</ele>
        <time>2017-04-08T13:54:34Z</time>
      </trkpt>
      <trkpt lat="43.06916" lon="1.35716">
        <ele>370.73</ele>
        <time>2017-04-08T13:54:40Z</time>
      </trkpt>
      <trkpt lat="43.06904" lon="1.35727">
        <ele>365.92</ele>
        <time>2017-04-08T14:33:33Z</time>
      </trkpt>
      <trkpt lat="43.06903" lon="1.35736">
        <ele>367.84</ele>
        <time>2017-04-08T14:34:20Z</time>
      </trkpt>
      <trkpt lat="43.06902" lon="1.35757">
        <ele>370.24</ele>
        <time>2017-04-08T14:34:35Z</time>
      </trkpt>
      <trkpt lat="43.06905" lon="1.35768">
        <ele>371.69</ele>
        <time>2017-04-08T14:34:48Z</time>
      </trkpt>
      <trkpt lat="43.0691" lon="1.35768">
        <ele>372.17</ele>
        <time>2017-04-08T14:35:02Z</time>
      </trkpt>
      <trkpt lat="43.06922" lon="1.35777">
        <ele>375.05</ele>
        <time>2017-04-08T14:35:19Z</time>
      </trkpt>
      <trkpt lat="43.0693" lon="1.35785">
        <ele>376.01</ele>
        <time>2017-04-08T14:35:39Z</time>
      </trkpt>
      <trkpt lat="43.06933" lon="1.3579">
        <ele>377.45</ele>
        <time>2017-04-08T14:36:10Z</time>
      </trkpt>
      <trkpt lat="43.06922" lon="1.35791">
        <ele>379.86</ele>
        <time>2017-04-08T14:36:28Z</time>
      </trkpt>
      <trkpt lat="43.06911" lon="1.35799">
        <ele>382.26</ele>
        <time>2017-04-08T14:36:39Z</time>
      </trkpt>
      <trkpt lat="43.06895" lon="1.35808">
        <ele>385.15</ele>
        <time>2017-04-08T14:36:57Z</time>
      </trkpt>
      <trkpt lat="43.06879" lon="1.35823">
        <ele>388.51</ele>
        <time>2017-04-08T14:37:18Z</time>
      </trkpt>
      <trkpt lat="43.06863" lon="1.35837">
        <ele>391.87</ele>
        <time>2017-04-08T14:37:35Z</time>
      </trkpt>
      <trkpt lat="43.06855" lon="1.35843">
        <ele>393.32</ele>
        <time>2017-04-08T14:37:41Z</time>
      </trkpt>
      <trkpt lat="43.06844" lon="1.35862">
        <ele>396.2</ele>
        <time>2017-04-08T14:37:59Z</time>
      </trkpt>
      <trkpt lat="43.06841" lon="1.35867">
        <ele>397.64</ele>
        <time>2017-04-08T14:38:05Z</time>
      </trkpt>
      <trkpt lat="43.06835" lon="1.35877">
        <ele>400.05</ele>
        <time>2017-04-08T14:38:27Z</time>
      </trkpt>
      <trkpt lat="43.0682" lon="1.35896">
        <ele>402.93</ele>
        <time>2017-04-08T14:38:45Z</time>
      </trkpt>
      <trkpt lat="43.06812" lon="1.3591">
        <ele>406.29</ele>
        <time>2017-04-08T14:39:01Z</time>
      </trkpt>
      <trkpt lat="43.06812" lon="1.35911">
        <ele>406.29</ele>
        <time>2017-04-08T14:39:02Z</time>
      </trkpt>
      <trkpt lat="43.06817" lon="1.35923">
        <ele>408.22</ele>
        <time>2017-04-08T14:39:12Z</time>
      </trkpt>
      <trkpt lat="43.06821" lon="1.35927">
        <ele>410.14</ele>
        <time>2017-04-08T14:39:16Z</time>
      </trkpt>
      <trkpt lat="43.06815" lon="1.35938">
        <ele>410.14</ele>
        <time>2017-04-08T14:39:34Z</time>
      </trkpt>
      <trkpt lat="43.06814" lon="1.3594">
        <ele>410.62</ele>
        <time>2017-04-08T14:40:28Z</time>
      </trkpt>
      <trkpt lat="43.06815" lon="1.35944">
        <ele>411.58</ele>
        <time>2017-04-08T14:40:58Z</time>
      </trkpt>
      <trkpt lat="43.06826" lon="1.35948">
        <ele>412.54</ele>
        <time>2017-04-08T14:41:07Z</time>
      </trkpt>
      <trkpt lat="43.06832" lon="1.35951">
        <ele>412.54</ele>
        <time>2017-04-08T14:41:12Z</time>
      </trkpt>
      <trkpt lat="43.06839" lon="1.35955">
        <ele>412.06</ele>
        <time>2017-04-08T14:41:17Z</time>
      </trkpt>
      <trkpt lat="43.06841" lon="1.35957">
        <ele>414.47</ele>
        <time>2017-04-08T14:41:19Z</time>
      </trkpt>
      <trkpt lat="43.06857" lon="1.35969">
        <ele>416.39</ele>
        <time>2017-04-08T14:41:37Z</time>
      </trkpt>
      <trkpt lat="43.06863" lon="1.35956">
        <ele>416.87</ele>
        <time>2017-04-08T14:41:58Z</time>
      </trkpt>
      <trkpt lat="43.06873" lon="1.35957">
        <ele>414.95</ele>
        <time>2017-04-08T14:42:24Z</time>
      </trkpt>
      <trkpt lat="43.06876" lon="1.35963">
        <ele>416.39</ele>
        <time>2017-04-08T14:42:31Z</time>
      </trkpt>
      <trkpt lat="43.06895" lon="1.35959">
        <ele>413.98</ele>
        <time>2017-04-08T14:42:51Z</time>
      </trkpt>
      <trkpt lat="43.06904" lon="1.35953">
        <ele>413.98</ele>
        <time>2017-04-08T14:43:11Z</time>
      </trkpt>
      <trkpt lat="43.06914" lon="1.35949">
        <ele>413.98</ele>
        <time>2017-04-08T14:43:29Z</time>
      </trkpt>
      <trkpt lat="43.06925" lon="1.3594">
        <ele>414.47</ele>
        <time>2017-04-08T14:43:50Z</time>
      </trkpt>
      <trkpt lat="43.06926" lon="1.35939">
        <ele>413.02</ele>
        <time>2017-04-08T14:43:53Z</time>
      </trkpt>
      <trkpt lat="43.06934" lon="1.35928">
        <ele>412.54</ele>
        <time>2017-04-08T14:44:14Z</time>
      </trkpt>
      <trkpt lat="43.06944" lon="1.3593">
        <ele>411.1</ele>
        <time>2017-04-08T14:44:32Z</time>
      </trkpt>
      <trkpt lat="43.06945" lon="1.35929">
        <ele>411.1</ele>
        <time>2017-04-08T14:45:21Z</time>
      </trkpt>
      <trkpt lat="43.06951" lon="1.35922">
        <ele>411.1</ele>
        <time>2017-04-08T14:45:45Z</time>
      </trkpt>
      <trkpt lat="43.06961" lon="1.35921">
        <ele>410.62</ele>
        <time>2017-04-08T14:46:04Z</time>
      </trkpt>
      <trkpt lat="43.06968" lon="1.35915">
        <ele>409.18</ele>
        <time>2017-04-08T14:46:22Z</time>
      </trkpt>
      <trkpt lat="43.06972" lon="1.35909">
        <ele>409.18</ele>
        <time>2017-04-08T14:46:39Z</time>
      </trkpt>
      <trkpt lat="43.06978" lon="1.35904">
        <ele>407.74</ele>
        <time>2017-04-08T14:47:07Z</time>
      </trkpt>
      <trkpt lat="43.06976" lon="1.359">
        <ele>409.18</ele>
        <time>2017-04-08T14:47:26Z</time>
      </trkpt>
      <trkpt lat="43.06978" lon="1.35898">
        <ele>408.7</ele>
        <time>2017-04-08T14:47:34Z</time>
      </trkpt>
      <trkpt lat="43.06996" lon="1.35903">
        <ele>408.7</ele>
        <time>2017-04-08T14:47:48Z</time>
      </trkpt>
      <trkpt lat="43.06999" lon="1.35903">
        <ele>409.66</ele>
        <time>2017-04-08T14:47:53Z</time>
      </trkpt>
      <trkpt lat="43.07003" lon="1.35904">
        <ele>408.7</ele>
        <time>2017-04-08T14:47:57Z</time>
      </trkpt>
      <trkpt lat="43.07007" lon="1.35906">
        <ele>408.7</ele>
        <time>2017-04-08T14:48:03Z</time>
      </trkpt>
      <trkpt lat="43.07009" lon="1.35908">
        <ele>408.7</ele>
        <time>2017-04-08T14:48:07Z</time>
      </trkpt>
      <trkpt lat="43.0702" lon="1.35905">
        <ele>408.22</ele>
        <time>2017-04-08T14:48:20Z</time>
      </trkpt>
      <trkpt lat="43.07022" lon="1.35911">
        <ele>408.22</ele>
        <time>2017-04-08T14:48:49Z</time>
      </trkpt>
      <trkpt lat="43.07025" lon="1.35908">
        <ele>409.18</ele>
        <time>2017-04-08T14:49:11Z</time>
      </trkpt>
      <trkpt lat="43.07027" lon="1.35893">
        <ele>406.29</ele>
        <time>2017-04-08T14:49:38Z</time>
      </trkpt>
      <trkpt lat="43.07029" lon="1.35887">
        <ele>404.37</ele>
        <time>2017-04-08T14:49:42Z</time>
      </trkpt>
      <trkpt lat="43.0704" lon="1.35877">
        <ele>401.97</ele>
        <time>2017-04-08T14:49:59Z</time>
      </trkpt>
      <trkpt lat="43.07051" lon="1.35876">
        <ele>401.97</ele>
        <time>2017-04-08T14:50:18Z</time>
      </trkpt>
      <trkpt lat="43.07055" lon="1.35875">
        <ele>401.97</ele>
        <time>2017-04-08T14:50:43Z</time>
      </trkpt>
      <trkpt lat="43.0706" lon="1.3588">
        <ele>401.97</ele>
        <time>2017-04-08T14:51:00Z</time>
      </trkpt>
      <trkpt lat="43.07061" lon="1.35882">
        <ele>401.97</ele>
        <time>2017-04-08T14:51:26Z</time>
      </trkpt>
      <trkpt lat="43.07064" lon="1.35883">
        <ele>402.93</ele>
        <time>2017-04-08T14:51:48Z</time>
      </trkpt>
      <trkpt lat="43.07064" lon="1.35886">
        <ele>401.49</ele>
        <time>2017-04-08T14:52:01Z</time>
      </trkpt>
      <trkpt lat="43.07067" lon="1.35889">
        <ele>402.93</ele>
        <time>2017-04-08T14:52:03Z</time>
      </trkpt>
      <trkpt lat="43.07076" lon="1.35909">
        <ele>405.33</ele>
        <time>2017-04-08T14:52:20Z</time>
      </trkpt>
      <trkpt lat="43.07078" lon="1.35928">
        <ele>407.74</ele>
        <time>2017-04-08T14:52:37Z</time>
      </trkpt>
      <trkpt lat="43.07087" lon="1.35951">
        <ele>408.7</ele>
        <time>2017-04-08T14:52:51Z</time>
      </trkpt>
      <trkpt lat="43.07091" lon="1.35957">
        <ele>410.14</ele>
        <time>2017-04-08T14:52:55Z</time>
      </trkpt>
      <trkpt lat="43.07091" lon="1.35963">
        <ele>410.62</ele>
        <time>2017-04-08T14:53:14Z</time>
      </trkpt>
      <trkpt lat="43.07091" lon="1.35963">
        <ele>402.93</ele>
        <time>2017-04-08T14:53:32Z</time>
      </trkpt>
      <trkpt lat="43.07091" lon="1.35963">
        <ele>411.1</ele>
        <time>2017-04-08T14:53:33Z</time>
      </trkpt>
      <trkpt lat="43.07101" lon="1.35964">
        <ele>409.66</ele>
        <time>2017-04-08T14:53:43Z</time>
      </trkpt>
      <trkpt lat="43.07103" lon="1.35967">
        <ele>408.7</ele>
        <time>2017-04-08T14:53:46Z</time>
      </trkpt>
      <trkpt lat="43.07105" lon="1.35969">
        <ele>408.7</ele>
        <time>2017-04-08T14:53:48Z</time>
      </trkpt>
      <trkpt lat="43.07115" lon="1.35972">
        <ele>406.77</ele>
        <time>2017-04-08T14:54:03Z</time>
      </trkpt>
      <trkpt lat="43.07115" lon="1.35969">
        <ele>405.33</ele>
        <time>2017-04-08T14:54:22Z</time>
      </trkpt>
      <trkpt lat="43.07123" lon="1.3595">
        <ele>402.45</ele>
        <time>2017-04-08T14:54:34Z</time>
      </trkpt>
      <trkpt lat="43.07124" lon="1.35948">
        <ele>402.45</ele>
        <time>2017-04-08T14:54:35Z</time>
      </trkpt>
      <trkpt lat="43.07131" lon="1.35927">
        <ele>399.57</ele>
        <time>2017-04-08T14:54:49Z</time>
      </trkpt>
      <trkpt lat="43.07133" lon="1.35923">
        <ele>398.12</ele>
        <time>2017-04-08T14:54:52Z</time>
      </trkpt>
      <trkpt lat="43.07135" lon="1.35919">
        <ele>396.68</ele>
        <time>2017-04-08T14:54:56Z</time>
      </trkpt>
      <trkpt lat="43.07134" lon="1.35905">
        <ele>394.28</ele>
        <time>2017-04-08T14:55:06Z</time>
      </trkpt>
      <trkpt lat="43.07132" lon="1.35897">
        <ele>393.32</ele>
        <time>2017-04-08T14:55:11Z</time>
      </trkpt>
      <trkpt lat="43.0713" lon="1.3589">
        <ele>392.84</ele>
        <time>2017-04-08T14:55:15Z</time>
      </trkpt>
      <trkpt lat="43.07121" lon="1.35868">
        <ele>388.99</ele>
        <time>2017-04-08T14:55:31Z</time>
      </trkpt>
      <trkpt lat="43.07116" lon="1.35852">
        <ele>385.15</ele>
        <time>2017-04-08T14:55:43Z</time>
      </trkpt>
      <trkpt lat="43.07113" lon="1.35849">
        <ele>385.15</ele>
        <time>2017-04-08T14:55:45Z</time>
      </trkpt>
      <trkpt lat="43.07104" lon="1.35838">
        <ele>383.7</ele>
        <time>2017-04-08T14:55:55Z</time>
      </trkpt>
      <trkpt lat="43.07089" lon="1.35828">
        <ele>382.74</ele>
        <time>2017-04-08T14:56:09Z</time>
      </trkpt>
      <trkpt lat="43.07075" lon="1.35811">
        <ele>380.34</ele>
        <time>2017-04-08T14:56:24Z</time>
      </trkpt>
      <trkpt lat="43.07068" lon="1.35806">
        <ele>379.38</ele>
        <time>2017-04-08T14:56:33Z</time>
      </trkpt>
      <trkpt lat="43.07056" lon="1.35799">
        <ele>377.94</ele>
        <time>2017-04-08T14:56:43Z</time>
      </trkpt>
      <trkpt lat="43.07049" lon="1.35797">
        <ele>377.94</ele>
        <time>2017-04-08T14:56:48Z</time>
      </trkpt>
      <trkpt lat="43.07042" lon="1.35794">
        <ele>379.38</ele>
        <time>2017-04-08T14:56:53Z</time>
      </trkpt>
      <trkpt lat="43.0703" lon="1.35793">
        <ele>377.94</ele>
        <time>2017-04-08T14:57:02Z</time>
      </trkpt>
      <trkpt lat="43.07017" lon="1.35787">
        <ele>377.94</ele>
        <time>2017-04-08T14:57:13Z</time>
      </trkpt>
      <trkpt lat="43.06998" lon="1.35783">
        <ele>378.42</ele>
        <time>2017-04-08T14:57:46Z</time>
      </trkpt>
      <trkpt lat="43.06993" lon="1.35782">
        <ele>379.86</ele>
        <time>2017-04-08T14:58:09Z</time>
      </trkpt>
      <trkpt lat="43.06989" lon="1.35782">
        <ele>378.42</ele>
        <time>2017-04-08T15:03:31Z</time>
      </trkpt>
      <trkpt lat="43.06987" lon="1.35782">
        <ele>378.42</ele>
        <time>2017-04-08T15:03:33Z</time>
      </trkpt>
      <trkpt lat="43.06984" lon="1.35782">
        <ele>378.9</ele>
        <time>2017-04-08T15:03:37Z</time>
      </trkpt>
      <trkpt lat="43.06976" lon="1.35782">
        <ele>378.9</ele>
        <time>2017-04-08T15:03:44Z</time>
      </trkpt>
      <trkpt lat="43.06961" lon="1.35782">
        <ele>378.42</ele>
        <time>2017-04-08T15:03:57Z</time>
      </trkpt>
      <trkpt lat="43.06945" lon="1.35782">
        <ele>378.42</ele>
        <time>2017-04-08T15:04:10Z</time>
      </trkpt>
      <trkpt lat="43.06941" lon="1.35782">
        <ele>378.42</ele>
        <time>2017-04-08T15:04:13Z</time>
      </trkpt>
      <trkpt lat="43.06938" lon="1.35781">
        <ele>378.42</ele>
        <time>2017-04-08T15:04:16Z</time>
      </trkpt>
      <trkpt lat="43.06927" lon="1.35777">
        <ele>375.53</ele>
        <time>2017-04-08T15:04:28Z</time>
      </trkpt>
      <trkpt lat="43.0692" lon="1.35774">
        <ele>374.57</ele>
        <time>2017-04-08T15:04:35Z</time>
      </trkpt>
      <trkpt lat="43.06905" lon="1.35767">
        <ele>372.17</ele>
        <time>2017-04-08T15:04:48Z</time>
      </trkpt>
      <trkpt lat="43.06904" lon="1.35766">
        <ele>371.21</ele>
        <time>2017-04-08T15:04:49Z</time>
      </trkpt>
      <trkpt lat="43.06901" lon="1.35757">
        <ele>369.76</ele>
        <time>2017-04-08T15:04:55Z</time>
      </trkpt>
      <trkpt lat="43.06903" lon="1.35742">
        <ele>368.32</ele>
        <time>2017-04-08T15:05:04Z</time>
      </trkpt>
      <trkpt lat="43.06904" lon="1.35724">
        <ele>366.88</ele>
        <time>2017-04-08T15:05:17Z</time>
      </trkpt>
      <trkpt lat="43.0691" lon="1.35712">
        <ele>367.84</ele>
        <time>2017-04-08T15:06:06Z</time>
      </trkpt>
      <trkpt lat="43.06917" lon="1.35709">
        <ele>367.84</ele>
        <time>2017-04-08T15:06:12Z</time>
      </trkpt>
      <trkpt lat="43.06927" lon="1.35703">
        <ele>368.32</ele>
        <time>2017-04-08T15:06:22Z</time>
      </trkpt>
      <trkpt lat="43.06943" lon="1.35697">
        <ele>366.88</ele>
        <time>2017-04-08T15:06:35Z</time>
      </trkpt>
      <trkpt lat="43.06944" lon="1.35696">
        <ele>366.88</ele>
        <time>2017-04-08T15:06:36Z</time>
      </trkpt>
      <trkpt lat="43.06959" lon="1.3569">
        <ele>366.4</ele>
        <time>2017-04-08T15:06:47Z</time>
      </trkpt>
      <trkpt lat="43.06965" lon="1.35688">
        <ele>365.92</ele>
        <time>2017-04-08T15:06:56Z</time>
      </trkpt>
      <trkpt lat="43.0697" lon="1.35685">
        <ele>364.96</ele>
        <time>2017-04-08T15:07:01Z</time>
      </trkpt>
      <trkpt lat="43.0699" lon="1.35679">
        <ele>363.52</ele>
        <time>2017-04-08T15:07:16Z</time>
      </trkpt>
      <trkpt lat="43.07007" lon="1.35675">
        <ele>362.07</ele>
        <time>2017-04-08T15:07:29Z</time>
      </trkpt>
      <trkpt lat="43.07016" lon="1.35676">
        <ele>361.59</ele>
        <time>2017-04-08T15:07:44Z</time>
      </trkpt>
      <trkpt lat="43.07018" lon="1.35676">
        <ele>361.11</ele>
        <time>2017-04-08T15:07:46Z</time>
      </trkpt>
      <trkpt lat="43.07034" lon="1.35686">
        <ele>359.67</ele>
        <time>2017-04-08T15:08:00Z</time>
      </trkpt>
      <trkpt lat="43.07039" lon="1.35688">
        <ele>359.19</ele>
        <time>2017-04-08T15:08:04Z</time>
      </trkpt>
      <trkpt lat="43.07056" lon="1.35697">
        <ele>357.75</ele>
        <time>2017-04-08T15:08:18Z</time>
      </trkpt>
      <trkpt lat="43.07072" lon="1.35704">
        <ele>355.83</ele>
        <time>2017-04-08T15:08:31Z</time>
      </trkpt>
      <trkpt lat="43.07084" lon="1.35711">
        <ele>353.9</ele>
        <time>2017-04-08T15:08:43Z</time>
      </trkpt>
      <trkpt lat="43.07091" lon="1.35715">
        <ele>353.42</ele>
        <time>2017-04-08T15:08:49Z</time>
      </trkpt>
      <trkpt lat="43.07096" lon="1.35717">
        <ele>353.42</ele>
        <time>2017-04-08T15:08:53Z</time>
      </trkpt>
      <trkpt lat="43.07111" lon="1.35727">
        <ele>351.98</ele>
        <time>2017-04-08T15:09:08Z</time>
      </trkpt>
      <trkpt lat="43.0712" lon="1.35729">
        <ele>351.02</ele>
        <time>2017-04-08T15:10:18Z</time>
      </trkpt>
      <trkpt lat="43.07134" lon="1.35739">
        <ele>349.58</ele>
        <time>2017-04-08T15:10:32Z</time>
      </trkpt>
      <trkpt lat="43.07138" lon="1.35745">
        <ele>348.62</ele>
        <time>2017-04-08T15:10:37Z</time>
      </trkpt>
      <trkpt lat="43.07146" lon="1.35765">
        <ele>346.21</ele>
        <time>2017-04-08T15:10:51Z</time>
      </trkpt>
      <trkpt lat="43.07158" lon="1.35785">
        <ele>343.81</ele>
        <time>2017-04-08T15:11:05Z</time>
      </trkpt>
      <trkpt lat="43.07159" lon="1.35786">
        <ele>343.81</ele>
        <time>2017-04-08T15:11:06Z</time>
      </trkpt>
      <trkpt lat="43.07169" lon="1.3579">
        <ele>342.85</ele>
        <time>2017-04-08T15:11:14Z</time>
      </trkpt>
      <trkpt lat="43.07187" lon="1.35783">
        <ele>341.89</ele>
        <time>2017-04-08T15:11:28Z</time>
      </trkpt>
      <trkpt lat="43.07198" lon="1.35783">
        <ele>341.41</ele>
        <time>2017-04-08T15:11:37Z</time>
      </trkpt>
      <trkpt lat="43.07216" lon="1.35797">
        <ele>338.52</ele>
        <time>2017-04-08T15:11:53Z</time>
      </trkpt>
      <trkpt lat="43.07231" lon="1.3581">
        <ele>336.12</ele>
        <time>2017-04-08T15:12:07Z</time>
      </trkpt>
      <trkpt lat="43.07245" lon="1.35819">
        <ele>334.68</ele>
        <time>2017-04-08T15:12:19Z</time>
      </trkpt>
      <trkpt lat="43.07252" lon="1.35822">
        <ele>334.68</ele>
        <time>2017-04-08T15:12:25Z</time>
      </trkpt>
      <trkpt lat="43.0727" lon="1.35819">
        <ele>332.27</ele>
        <time>2017-04-08T15:12:39Z</time>
      </trkpt>
      <trkpt lat="43.07275" lon="1.35814">
        <ele>331.79</ele>
        <time>2017-04-08T15:12:45Z</time>
      </trkpt>
      <trkpt lat="43.0728" lon="1.35808">
        <ele>331.31</ele>
        <time>2017-04-08T15:12:50Z</time>
      </trkpt>
      <trkpt lat="43.07285" lon="1.35791">
        <ele>328.43</ele>
        <time>2017-04-08T15:13:03Z</time>
      </trkpt>
      <trkpt lat="43.0728" lon="1.35783">
        <ele>327.47</ele>
        <time>2017-04-08T15:13:18Z</time>
      </trkpt>
      <trkpt lat="43.0728" lon="1.35782">
        <ele>327.47</ele>
        <time>2017-04-08T15:13:19Z</time>
      </trkpt>
      <trkpt lat="43.07267" lon="1.3577">
        <ele>325.54</ele>
        <time>2017-04-08T15:13:33Z</time>
      </trkpt>
      <trkpt lat="43.0726" lon="1.35764">
        <ele>324.58</ele>
        <time>2017-04-08T15:13:58Z</time>
      </trkpt>
      <trkpt lat="43.07243" lon="1.35753">
        <ele>322.66</ele>
        <time>2017-04-08T15:14:12Z</time>
      </trkpt>
      <trkpt lat="43.07226" lon="1.35743">
        <ele>320.26</ele>
        <time>2017-04-08T15:14:27Z</time>
      </trkpt>
      <trkpt lat="43.07208" lon="1.35728">
        <ele>317.37</ele>
        <time>2017-04-08T15:14:43Z</time>
      </trkpt>
      <trkpt lat="43.07191" lon="1.35721">
        <ele>315.93</ele>
        <time>2017-04-08T15:14:56Z</time>
      </trkpt>
      <trkpt lat="43.07189" lon="1.35721">
        <ele>315.93</ele>
        <time>2017-04-08T15:14:58Z</time>
      </trkpt>
      <trkpt lat="43.07181" lon="1.35712">
        <ele>314.49</ele>
        <time>2017-04-08T15:15:07Z</time>
      </trkpt>
      <trkpt lat="43.07182" lon="1.35702">
        <ele>314.01</ele>
        <time>2017-04-08T15:15:12Z</time>
      </trkpt>
      <trkpt lat="43.07194" lon="1.35683">
        <ele>311.6</ele>
        <time>2017-04-08T15:15:25Z</time>
      </trkpt>
      <trkpt lat="43.07196" lon="1.35682">
        <ele>311.6</ele>
        <time>2017-04-08T15:15:27Z</time>
      </trkpt>
      <trkpt lat="43.07205" lon="1.35678">
        <ele>311.12</ele>
        <time>2017-04-08T15:15:39Z</time>
      </trkpt>
      <trkpt lat="43.07218" lon="1.35674">
        <ele>310.64</ele>
        <time>2017-04-08T15:15:51Z</time>
      </trkpt>
      <trkpt lat="43.0723" lon="1.35675">
        <ele>310.16</ele>
        <time>2017-04-08T15:16:00Z</time>
      </trkpt>
      <trkpt lat="43.0725" lon="1.35685">
        <ele>308.72</ele>
        <time>2017-04-08T15:16:16Z</time>
      </trkpt>
      <trkpt lat="43.07266" lon="1.35678">
        <ele>305.36</ele>
        <time>2017-04-08T15:16:30Z</time>
      </trkpt>
      <trkpt lat="43.07282" lon="1.35671">
        <ele>302.95</ele>
        <time>2017-04-08T15:16:43Z</time>
      </trkpt>
      <trkpt lat="43.07261" lon="1.3566">
        <ele>301.99</ele>
        <time>2017-04-08T15:23:29Z</time>
      </trkpt>
      <trkpt lat="43.07253" lon="1.35654">
        <ele>302.47</ele>
        <time>2017-04-08T15:23:42Z</time>
      </trkpt>
    </trkseg>
  </trk>
</gpx>